GFSGBSN_con_mlcape_000.txt.gz
CAPE
29 25 17 21 10 1 2 6 5 6 5 4 1 9 8 5 3 2 0 17 29 57 69 94 86 26 45 12 0 0 0 0 0 0 8 46 0 0 0 0 0 0 0 0 0 0 0
14 11 28 23 20 18 9 5 6 8 6 9 22 14 4 1 3 2 4 1 14 49 87 151 216 99 24 0 0 0 0 0 0 0 3 46 5 0 1 1 0 0 0 0 0 0 0
13 6 18 15 13 20 11 3 5 0 6 4 23 28 16 13 0 9 20 13 8 63 31 110 126 48 7 0 0 0 0 0 0 0 0 28 18 0 2 13 0 6 0 0 0 0 0
14 11 6 5 4 16 4 2 3 4 8 12 27 31 10 14 3 8 2 24 21 50 66 79 114 35 0 0 0 0 0 0 0 0 0 94 47 5 4 0 1 9 0 0 0 0 0
18 16 8 3 3 16 17 13 2 4 2 6 3 21 23 23 18 28 22 27 31 49 120 67 36 12 6 0 0 0 0 0 1 0 6 71 32 21 17 13 13 0 6 0 0 0 0
13 17 21 11 6 14 10 18 5 5 0 0 20 28 5 2 11 8 37 12 14 22 14 13 7 2 0 0 0 0 0 0 10 0 5 109 36 34 20 33 15 0 0 0 0 0 0
12 12 16 16 6 13 0 13 6 1 2 0 0 13 3 1 0 15 42 17 0 1 6 0 0 0 0 0 0 0 0 0 12 0 5 75 50 24 6 0 0 6 0 0 0 0 0
8 10 14 12 7 2 0 2 3 0 2 2 1 41 8 1 6 40 6 0 0 3 0 0 8 0 3 11 18 0 0 6 10 0 24 54 8 1 0 0 10 3 0 0 0 0 0
12 9 13 13 8 2 0 1 2 0 0 2 0 6 0 3 24 31 1 0 27 23 4 0 0 0 2 0 12 0 0 18 2 0 6 17 10 5 3 0 0 0 0 0 0 0 0
21 11 11 14 11 8 1 1 0 1 0 1 0 0 0 15 19 14 1 0 14 8 0 1 2 0 0 17 7 19 2 15 1 0 1 25 9 1 3 0 0 0 0 0 0 0 0
29 19 15 18 8 11 8 5 1 0 0 0 0 0 5 20 20 27 18 0 17 29 0 0 1 0 0 2 13 13 0 0 0 0 19 18 7 21 7 0 0 0 0 5 2 0 0
20 23 19 20 21 12 8 10 2 2 0 0 0 0 1 1 14 15 7 7 13 1 0 0 1 0 0 0 16 13 21 22 22 0 16 5 8 7 14 0 0 0 0 0 0 0 0
40 25 24 23 20 21 7 9 5 12 0 0 0 0 2 5 11 42 9 1 0 0 0 0 0 4 1 0 16 0 0 0 4 1 5 2 12 0 0 1 0 0 0 0 0 0 0
23 23 17 11 11 22 16 4 5 11 2 0 0 2 8 1 8 0 24 0 0 0 0 3 0 0 3 0 16 16 28 17 3 0 0 1 4 0 0 0 0 0 0 0 0 0 0
22 19 15 12 5 15 22 4 1 5 4 0 2 0 3 5 12 5 3 0 0 0 1 22 6 0 0 8 17 26 3 5 4 2 0 5 0 0 0 0 0 0 0 0 0 0 0
31 13 9 5 4 10 29 7 0 4 2 1 0 0 0 2 14 7 2 0 4 2 1 3 1 5 20 9 6 7 14 5 5 3 0 0 0 0 0 0 0 0 0 0 0 0 0
28 11 8 5 5 4 27 5 0 5 1 0 0 0 0 3 23 11 1 0 4 0 0 4 0 1 1 0 5 0 0 0 0 0 0 0 0 0 0 0 0 0 0 0 0 0 0
29 10 7 7 5 1 24 2 0 4 0 0 0 0 4 6 5 12 6 16 0 0 18 0 3 1 0 3 1 3 3 0 0 0 0 0 0 0 0 0 0 0 0 0 0 0 0
31 11 5 5 2 0 12 4 1 3 0 0 0 0 2 2 1 2 13 6 4 0 8 12 0 0 0 2 1 2 0 0 0 0 0 0 0 0 0 0 0 0 0 0 0 0 0
29 12 3 2 1 0 4 4 1 2 2 0 0 0 1 2 1 0 2 2 10 10 6 2 0 0 0 15 0 0 1 0 0 0 0 0 0 0 0 0 0 0 0 0 0 0 0
41 10 2 0 2 0 1 1 0 1 1 0 0 0 0 0 0 0 0 0 8 6 0 9 7 0 0 8 0 0 0 0 0 0 0 0 0 0 0 0 0 0 0 0 0 0 0
38 10 2 0 1 1 1 0 0 1 0 0 0 0 0 0 0 0 0 0 0 0 0 6 2 5 11 1 0 0 0 0 0 0 0 0 0 0 0 0 0 0 0 0 0 0 0
30 11 1 0 1 1 1 0 1 1 0 0 0 0 0 0 0 0 0 0 0 0 0 0 0 2 0 0 0 0 0 0 0 0 0 0 0 0 0 0 0 0 0 0 0 0 0
30 11 0 0 0 1 0 0 1 1 0 0 0 0 0 0 0 0 0 0 0 0 0 0 0 0 0 0 0 0 0 0 0 0 0 0 0 0 0 0 0 0 0 0 0 0 0
20 10 0 0 0 0 1 0 2 0 0 0 0 0 0 0 0 0 0 0 0 0 0 0 0 0 0 0 0 0 0 0 0 0 0 0 0 0 0 0 0 0 0 0 0 0 0
10 29 0 1 0 0 1 2 2 0 0 0 0 0 0 0 0 0 0 0 0 0 0 0 0 0 0 0 0 0 0 0 0 0 0 0 0 0 0 0 0 0 0 0 0 0 0
26 30 0 0 0 0 4 2 1 0 0 0 0 0 0 0 0 0 0 0 0 0 0 0 0 0 0 0 0 0 0 0 0 0 0 0 0 0 0 0 0 0 0 0 0 0 0
3 21 0 0 0 0 6 1 1 0 0 0 0 0 0 0 0 0 0 0 0 0 0 0 0 0 0 0 0 0 0 0 0 0 0 0 0 0 0 0 0 0 0 0 0 0 0
3 12 0 0 0 0 4 2 1 0 0 0 0 0 0 0 0 0 0 0 0 0 0 0 0 0 0 0 0 0 0 0 0 0 0 0 0 0 0 0 0 0 0 0 0 0 0

GFSGBSN_con_mlcape_003.txt.gz
CAPE
40 17 16 39 29 22 12 1 3 4 2 7 5 1 1 0 7 9 14 2 11 32 43 49 41 18 14 19 1 0 0 0 0 9 0 1 47 5 1 0 0 0 0 0 0 0 0
30 18 12 26 19 29 36 23 2 3 1 0 4 0 0 0 0 20 9 2 3 20 52 48 62 16 0 0 0 0 0 0 0 10 0 0 17 2 0 0 2 0 0 0 0 0 0
12 17 13 9 8 12 31 28 0 1 0 4 1 8 5 0 28 13 3 10 4 1 53 39 40 18 12 0 0 0 0 0 0 1 2 0 10 4 5 19 0 5 10 0 0 0 0
16 19 18 12 4 8 10 21 9 0 4 6 6 12 18 0 13 10 22 27 26 10 24 26 4 15 4 0 0 0 0 0 0 0 0 0 7 21 8 10 8 25 13 2 0 0 0
15 10 25 20 11 11 17 20 26 0 2 2 2 1 14 13 24 23 27 37 40 25 41 16 0 11 8 0 0 0 0 0 0 7 0 0 77 80 28 23 33 19 0 0 0 0 0
11 12 11 17 18 11 22 9 26 5 2 0 0 12 18 0 10 8 31 38 25 27 13 18 4 10 1 1 0 0 0 0 9 43 40 16 126 48 42 39 9 10 1 0 0 0 0
13 11 9 13 17 10 9 14 16 5 2 1 0 5 14 0 0 0 8 19 2 3 5 0 0 0 2 0 0 0 0 0 1 39 0 8 48 31 20 16 2 0 0 0 0 0 0
16 8 7 9 13 13 7 4 2 1 0 1 0 0 18 4 0 2 27 0 0 0 0 0 0 0 0 25 105 12 0 0 18 0 0 28 52 17 3 10 3 0 3 0 0 0 0
17 13 19 10 12 12 11 5 0 0 2 0 0 0 18 0 0 13 9 0 0 11 1 0 0 0 0 0 10 16 0 0 28 0 0 7 6 6 4 18 16 0 0 0 0 0 0
25 18 22 17 12 15 19 13 0 0 0 0 0 1 6 0 3 4 4 0 0 0 0 0 0 0 0 3 0 15 0 0 22 0 0 41 6 3 15 4 0 0 0 0 0 0 0
11 20 18 21 15 16 14 9 11 2 0 0 0 0 1 0 9 10 2 0 1 2 0 0 0 1 0 0 5 0 0 2 10 0 1 6 7 11 6 0 0 2 0 2 4 0 0
16 28 31 22 22 20 16 9 10 16 4 0 0 0 1 0 4 6 8 6 16 1 0 0 3 4 5 2 8 21 0 28 25 0 0 13 8 43 0 0 0 0 0 0 0 0 0
18 29 40 32 26 17 16 16 8 13 17 2 0 1 5 0 15 7 3 4 0 0 0 1 1 7 2 0 6 5 0 6 3 1 1 6 23 9 26 0 0 0 4 0 0 0 0
28 23 20 24 17 18 14 19 11 7 9 8 5 7 5 5 34 1 11 1 0 0 0 1 0 14 1 0 10 11 0 1 6 2 0 0 3 0 3 1 0 0 0 0 0 0 0
15 27 32 26 14 13 8 15 26 1 5 4 3 0 3 0 26 21 1 0 0 0 0 0 3 1 4 0 7 2 0 0 2 9 0 0 0 0 0 0 0 0 0 0 0 0 0
21 17 22 24 13 9 7 12 27 1 3 5 1 1 1 1 4 2 0 0 1 1 3 0 0 0 0 1 1 2 1 1 14 0 0 0 1 0 0 0 0 0 0 0 0 0 0
26 20 26 17 12 9 11 8 11 1 5 0 2 0 1 15 5 6 0 0 2 10 0 0 1 0 0 0 1 0 0 28 13 0 0 0 0 0 0 0 0 0 0 0 0 0 0
14 29 23 16 8 7 6 11 10 0 0 0 0 0 1 3 1 2 3 1 0 0 8 3 0 3 0 0 0 4 0 0 8 0 0 0 0 0 0 0 0 0 0 0 0 0 0
20 18 24 15 7 3 3 4 8 0 2 0 0 1 5 5 1 4 1 1 2 0 1 5 3 2 0 0 1 8 4 0 0 2 0 0 0 0 0 0 0 0 0 0 0 0 0
1 32 17 14 6 1 1 0 1 0 2 0 0 0 4 5 3 2 9 7 5 14 18 20 0 0 0 0 0 0 1 0 0 0 0 0 0 0 0 0 0 0 0 0 0 0 0
2 32 35 16 5 1 0 0 0 0 2 0 0 0 0 0 1 1 0 5 5 6 7 2 1 0 0 0 4 0 0 0 0 0 0 0 0 0 0 0 0 0 0 0 0 0 0
3 4 42 20 5 1 1 1 0 0 2 0 0 0 0 0 0 0 1 10 7 7 4 0 0 0 0 0 1 0 0 0 0 0 0 0 0 0 0 0 0 0 0 0 0 0 0
8 6 49 27 4 2 0 1 0 1 0 0 0 0 0 0 0 0 0 0 3 1 0 0 0 0 0 2 0 0 0 0 0 0 0 0 0 0 0 0 0 0 0 0 0 0 0
18 9 11 22 1 0 0 1 0 2 0 0 0 0 0 0 0 0 0 0 0 0 0 0 0 0 0 0 0 0 0 0 0 0 0 0 0 0 0 0 0 0 0 0 0 0 0
8 11 4 9 0 0 0 0 0 2 1 0 0 0 0 0 0 0 0 0 0 0 0 0 0 0 0 0 0 0 0 0 0 0 0 0 0 0 0 0 0 0 0 0 0 0 0
3 9 3 20 0 0 0 0 0 1 3 0 0 0 0 0 0 0 0 0 0 0 0 0 0 0 0 0 0 0 0 0 0 0 0 0 0 0 0 0 0 0 0 0 0 0 0
8 13 3 19 0 0 0 0 0 3 2 0 0 0 0 0 0 0 0 0 0 0 0 0 0 0 0 0 0 0 0 0 0 0 0 0 0 0 0 0 0 0 0 0 0 0 0
5 4 2 6 0 0 0 0 1 3 1 0 0 0 0 0 0 0 0 0 0 0 0 0 0 0 0 0 0 0 0 0 0 0 0 0 0 0 0 0 0 0 0 0 0 0 0
11 5 2 2 0 0 0 0 0 2 1 0 0 0 0 0 0 0 0 0 0 0 0 0 0 0 0 0 0 0 0 0 0 0 0 0 0 0 0 0 0 0 0 0 0 0 0

GFSGBSN_con_mlcape_006.txt.gz
CAPE
19 37 13 11 13 20 27 10 0 0 3 3 4 0 0 0 0 0 0 0 0 6 19 33 34 18 26 25 10 22 0 0 0 5 8 0 14 16 30 47 14 0 0 0 0 0 0
17 22 27 10 7 11 9 41 22 0 0 1 7 4 0 0 0 0 0 0 0 0 19 46 45 21 13 10 0 0 1 0 0 1 6 1 23 22 12 61 29 0 0 0 0 0 0
5 22 18 16 10 7 3 13 23 1 0 1 8 7 0 0 0 1 0 0 0 16 3 42 10 29 24 0 0 0 0 0 0 0 2 1 0 115 20 80 67 30 9 4 0 0 0
15 18 23 21 16 10 6 3 17 7 0 0 2 18 7 0 0 0 0 2 16 38 28 5 9 18 6 0 0 0 0 0 0 0 0 1 3 33 132 64 101 64 44 28 0 1 0
14 28 19 15 19 15 12 13 13 22 11 0 1 14 5 17 12 4 0 1 22 38 41 27 7 20 2 0 0 0 0 0 0 0 0 0 32 57 159 32 55 46 18 3 5 0 0
10 12 13 12 10 16 12 15 17 0 20 0 1 6 12 19 9 3 0 4 28 28 22 19 19 5 0 0 0 0 0 0 6 75 46 23 23 68 113 55 14 11 13 9 10 0 0
16 1 7 20 9 19 13 10 7 0 15 0 0 3 0 9 16 3 0 1 1 6 4 0 0 0 0 0 0 0 0 0 13 136 16 8 14 11 18 23 36 13 0 10 3 0 0
15 2 1 16 10 14 14 9 8 0 0 0 0 3 2 0 23 9 5 7 0 0 1 0 0 0 13 3 14 5 0 0 2 0 75 8 9 17 4 32 17 9 3 6 8 0 0
11 17 2 11 27 15 15 14 13 0 0 0 0 0 0 12 3 0 4 6 0 0 1 3 0 4 6 0 36 35 10 0 0 4 6 1 7 9 15 36 24 16 7 2 2 0 0
10 17 21 15 12 15 18 24 17 7 0 0 0 0 3 6 0 2 16 2 0 0 0 0 3 2 16 31 1 5 10 0 24 5 7 0 9 17 34 24 33 14 21 2 0 25 28
27 23 30 13 9 14 15 23 21 17 2 0 0 0 6 2 20 0 0 0 0 0 0 0 4 1 3 6 9 0 62 1 12 19 1 0 12 2 38 3 15 29 6 6 11 13 0
5 20 28 26 14 10 15 12 14 8 17 6 0 0 0 8 13 3 1 0 0 0 0 1 4 4 11 16 18 68 39 12 25 15 0 0 28 6 17 3 18 0 0 0 0 0 2
20 16 30 31 27 14 18 12 16 11 13 24 3 0 0 0 5 3 3 0 1 0 0 0 0 4 2 4 1 8 9 3 5 0 0 0 2 7 72 16 0 17 9 2 4 1 1
6 20 32 34 19 20 15 15 12 19 14 15 11 2 0 2 9 16 1 1 0 0 0 0 2 3 2 8 13 10 12 11 7 7 0 0 0 27 12 4 0 4 10 2 1 0 0
7 46 27 19 21 21 9 12 8 29 10 7 2 1 2 1 39 2 1 0 0 1 0 0 16 4 10 9 1 14 7 2 7 1 0 0 0 10 16 0 0 0 0 0 0 0 0
7 2 23 16 25 27 14 8 7 28 5 5 0 0 1 0 30 4 0 0 0 4 3 5 0 2 2 5 0 10 4 0 2 0 12 0 0 0 0 1 0 0 0 0 0 0 0
7 13 38 30 26 20 15 11 8 17 11 1 0 1 0 1 8 3 0 0 3 5 0 0 0 0 0 0 0 9 1 1 0 0 0 2 0 0 0 1 0 0 0 0 0 0 0
28 13 21 31 34 18 15 8 15 13 1 0 2 1 2 7 1 2 1 3 2 3 1 0 0 0 0 0 0 5 0 2 0 14 1 0 1 0 0 0 0 1 0 0 5 0 0
30 5 13 46 51 13 11 3 7 17 0 0 0 1 2 2 2 3 5 3 6 5 0 0 0 0 0 0 0 1 1 0 0 2 8 0 2 2 0 0 0 1 0 0 0 0 0
33 4 4 13 49 15 8 1 1 11 4 0 0 1 6 9 4 3 4 4 7 5 3 14 2 1 0 0 0 0 5 0 1 0 0 0 0 0 0 0 0 0 0 0 0 0 0
39 5 18 3 49 17 7 0 0 4 1 0 0 0 0 3 2 2 3 6 3 19 17 18 2 0 0 0 3 1 2 2 0 0 0 0 2 0 0 0 0 0 0 0 0 0 0
22 10 26 3 4 22 7 0 0 2 1 0 0 0 0 1 2 2 0 6 3 8 1 0 4 0 0 0 0 1 0 0 2 2 8 1 2 0 0 0 0 0 0 0 0 0 0
18 21 17 6 3 20 7 0 0 1 0 0 0 0 0 0 0 0 0 2 0 2 2 0 1 0 0 1 1 0 0 0 0 0 0 0 0 0 0 0 0 0 0 0 0 0 0
19 39 19 5 4 15 6 0 0 1 0 0 0 0 0 0 0 0 0 3 1 0 4 0 0 0 0 0 0 0 0 0 0 0 0 0 0 0 0 0 0 0 0 0 0 0 0
11 25 12 23 2 12 0 0 0 1 1 0 0 0 0 0 0 0 0 1 0 0 0 0 0 0 0 0 0 0 0 0 0 0 0 0 0 0 0 0 0 0 0 0 0 0 0
23 38 6 2 2 4 0 0 0 0 4 0 0 0 0 0 0 0 0 0 0 0 0 0 0 0 0 0 4 1 0 2 0 0 0 0 0 0 0 0 0 0 0 0 0 0 0
22 29 14 3 6 3 0 0 0 0 2 0 0 0 0 0 0 0 0 0 0 0 0 0 0 0 0 0 0 0 0 0 0 0 0 0 0 0 0 0 0 0 0 0 0 0 0
19 29 25 12 9 3 0 0 0 0 4 0 0 0 0 0 0 0 0 0 0 0 0 0 0 0 0 0 0 0 0 0 0 0 0 0 0 0 0 0 0 0 0 0 0 0 0
16 23 21 13 2 2 0 0 0 1 2 0 0 0 0 0 0 0 0 0 0 0 0 0 0 0 0 0 0 0 0 0 0 0 0 0 0 0 0 0 0 0 0 0 0 0 0

GFSGBSN_con_mlcape_009.txt.gz
CAPE
12 3 8 18 16 7 17 19 0 0 0 0 2 10 6 0 6 4 1 0 0 0 0 12 28 20 18 27 9 18 0 0 0 9 7 3 0 0 10 22 38 27 7 1 2 6 0
27 4 4 11 17 11 7 9 28 0 0 0 0 5 6 0 1 0 0 0 0 0 0 0 44 32 20 15 1 22 19 0 0 5 7 22 1 0 1 14 18 23 39 9 16 8 0
38 13 2 3 14 13 10 8 3 23 2 0 0 1 4 0 0 12 1 0 0 0 0 0 16 19 25 0 0 2 0 0 0 0 14 19 30 14 10 19 0 24 60 9 16 25 0
33 18 10 11 15 11 14 11 2 10 4 0 0 1 5 3 2 22 25 1 0 0 0 0 0 20 25 0 0 0 0 0 0 0 0 7 33 7 9 32 8 13 48 16 12 26 1
12 21 15 17 14 6 7 19 13 10 11 5 0 0 0 9 0 25 20 19 14 14 11 0 1 33 5 0 0 0 0 0 1 0 0 2 40 22 16 11 41 44 12 13 32 29 0
9 16 27 12 8 2 6 18 7 25 20 13 10 0 0 0 0 16 27 4 21 15 20 30 15 21 0 0 0 0 0 0 3 19 8 11 26 14 7 26 11 14 13 18 10 15 4
12 11 29 18 11 9 6 3 6 12 13 0 10 0 0 0 0 25 5 0 3 3 7 0 0 0 0 0 0 0 0 4 6 16 18 16 17 9 0 0 0 44 105 40 48 10 18
8 11 11 15 16 14 11 8 3 11 10 0 13 0 0 0 0 18 22 5 1 0 2 1 0 3 5 1 0 0 1 7 11 14 10 51 56 0 0 1 5 44 64 87 52 12 0
9 3 11 16 12 22 25 13 6 13 14 1 2 0 0 0 0 18 17 0 0 0 0 2 0 4 1 5 4 11 2 6 8 12 10 107 74 46 3 0 128 83 52 86 36 7 0
42 14 7 24 23 8 15 15 8 11 13 2 0 0 0 1 0 0 10 0 0 0 0 0 0 0 0 10 4 2 37 20 13 11 15 79 23 127 13 1 27 32 44 49 23 5 1
9 14 20 20 27 11 7 18 10 7 14 8 0 0 0 0 10 24 0 2 0 0 0 0 2 1 5 4 2 0 0 40 15 13 0 0 5 2 20 2 9 60 60 52 44 46 29
25 7 37 20 19 27 13 19 18 6 8 14 3 0 1 15 5 13 1 0 0 0 0 1 3 1 5 7 0 11 0 13 29 4 5 0 0 2 2 11 6 68 101 96 41 17 4
0 12 22 66 16 20 12 16 19 12 16 10 28 3 0 1 1 0 0 2 0 0 0 0 0 2 3 2 10 20 18 18 14 2 0 4 0 0 6 3 3 9 24 5 5 9 0
28 12 7 5 51 11 13 30 26 12 18 23 38 5 1 0 22 2 0 0 0 0 0 2 1 1 0 3 12 15 24 20 3 0 0 0 0 2 0 9 4 2 4 0 2 1 0
15 27 31 0 1 30 20 40 18 14 19 25 15 4 2 0 21 2 2 0 1 6 0 0 4 0 0 0 6 7 19 22 4 0 0 0 0 0 0 10 0 0 3 0 0 0 9
13 27 45 16 7 26 24 38 14 19 31 8 0 0 0 2 16 3 1 1 2 6 2 2 1 4 5 8 16 16 8 0 2 0 0 1 0 0 2 1 0 2 14 2 0 0 3
50 48 19 19 11 17 19 39 7 15 33 1 0 1 4 0 18 4 1 1 3 11 1 5 6 0 5 8 5 9 2 0 0 0 0 5 0 0 1 4 4 3 0 0 0 0 26
63 51 41 38 7 0 34 19 12 17 28 1 1 1 2 8 2 1 3 0 2 3 2 2 0 9 4 0 0 15 3 1 0 0 5 7 3 0 0 0 0 1 0 0 1 0 0
33 18 27 1 1 3 32 13 12 32 0 0 1 8 2 2 2 2 3 3 3 2 4 0 1 1 0 0 0 2 0 0 0 0 12 15 1 0 0 0 0 0 0 1 4 0 0
24 28 29 4 15 3 13 9 9 28 0 0 3 7 1 8 1 3 2 3 2 0 7 0 0 1 3 1 0 0 1 0 0 0 0 5 0 0 1 0 0 1 0 0 0 0 0
25 30 22 14 23 10 8 6 6 15 3 0 0 3 2 1 3 2 3 5 4 5 2 0 7 0 1 0 0 3 0 14 0 0 0 7 7 0 0 0 0 0 0 0 0 0 0
32 28 22 28 2 0 8 7 5 5 8 0 0 0 3 23 0 0 2 2 4 1 12 4 10 6 1 0 0 0 0 9 7 15 0 2 17 0 2 0 0 0 0 0 0 0 0
26 42 28 1 14 9 5 12 5 2 0 0 0 0 0 13 15 3 2 0 1 3 3 6 0 14 6 0 0 7 0 0 13 0 7 11 19 6 7 0 0 0 0 0 0 0 0
19 37 34 17 7 7 3 16 3 2 0 0 0 0 1 0 1 0 0 0 2 0 1 1 2 1 11 0 4 45 16 0 14 1 1 1 13 0 0 0 0 0 0 0 0 0 0
20 39 32 41 11 8 2 5 0 1 1 0 0 0 4 0 0 0 0 0 0 0 2 0 0 0 0 0 16 8 0 0 0 0 4 2 9 3 0 1 0 0 0 0 0 0 0
17 29 22 48 21 6 5 2 0 0 3 1 0 0 0 2 0 0 0 0 1 0 0 0 0 0 0 0 27 2 0 0 0 0 0 2 1 15 0 0 0 0 0 0 0 0 0
8 26 25 51 12 7 3 2 0 0 0 1 0 0 0 2 0 0 0 0 4 0 0 0 0 0 0 0 2 15 5 3 0 0 0 0 2 1 0 0 0 0 0 0 0 0 0
9 18 18 31 23 7 1 1 4 0 0 0 0 0 0 8 2 0 0 0 0 0 0 0 0 0 2 2 0 1 0 0 0 0 0 0 0 0 0 0 0 0 0 0 0 0 0
9 23 18 31 10 2 2 2 4 0 1 1 1 0 0 2 2 0 0 0 0 0 0 0 0 0 0 0 0 0 0 0 0 0 0 1 0 0 0 0 0 0 0 0 0 0 0

GFSGBSN_con_mlcape_012.txt.gz
CAPE
8 13 15 8 13 8 5 10 17 6 0 0 0 1 1 0 0 2 0 0 0 0 0 13 16 0 0 2 0 5 0 0 0 0 8 2 11 0 0 9 34 20 20 13 1 0 1
5 9 20 7 2 15 12 9 7 12 8 6 2 0 1 1 1 4 0 0 0 2 6 9 39 23 0 1 0 0 14 4 0 1 14 27 30 9 0 3 13 43 43 20 18 2 1
6 0 7 22 7 7 13 15 11 10 12 24 16 0 0 0 0 0 1 0 0 13 25 36 38 23 13 0 0 0 13 8 0 0 0 22 18 41 13 2 10 14 16 48 11 9 7
7 6 1 20 9 12 22 19 14 7 7 13 9 12 0 0 3 3 2 0 0 4 25 44 21 32 8 0 0 0 0 0 0 0 0 0 5 26 32 6 29 50 30 3 0 6 7
7 4 2 6 8 16 22 18 18 13 8 8 6 11 4 4 12 11 8 0 0 0 24 24 2 34 2 0 0 0 0 0 0 0 0 0 0 15 30 11 13 14 0 0 0 13 5
30 3 0 5 14 20 21 20 16 21 16 12 10 9 15 0 19 14 21 0 0 0 8 24 3 7 0 0 0 0 0 0 1 1 0 0 7 5 13 13 0 1 4 0 0 0 14
12 12 8 2 15 24 12 24 19 19 14 8 4 0 13 0 7 12 13 0 0 0 10 0 0 0 0 0 0 0 0 1 2 9 3 9 9 0 0 0 0 0 19 31 0 51 14
16 8 68 11 11 16 23 17 23 21 21 15 3 0 5 0 12 11 21 1 0 0 0 0 0 0 0 0 0 0 0 5 11 9 8 14 2 0 0 1 3 0 6 9 33 67 28
9 10 37 70 17 13 24 16 27 19 20 18 9 0 0 0 13 6 1 0 0 0 6 6 0 0 0 0 2 2 0 0 1 6 9 2 0 0 0 9 15 6 2 0 35 102 36
29 8 7 13 10 19 3 15 17 16 15 10 11 0 0 0 0 0 12 7 8 0 0 0 1 2 0 0 0 1 2 3 6 2 8 25 1 0 13 4 10 5 0 2 30 12 24
35 37 4 4 4 2 20 19 16 15 20 16 16 0 0 0 15 4 0 0 0 1 0 0 3 0 2 0 0 0 0 11 14 0 14 0 0 0 10 1 5 1 7 0 20 46 11
48 41 10 20 1 7 10 37 25 25 30 16 22 0 0 0 0 6 1 0 0 0 0 0 1 3 4 3 5 2 0 21 8 15 18 0 13 6 0 8 14 2 9 3 20 14 59
57 63 43 21 6 1 6 45 32 33 41 26 33 12 0 6 0 0 0 0 0 0 0 0 1 2 2 4 3 2 1 7 5 10 2 5 0 0 0 84 2 54 31 55 40 28 7
77 95 74 33 0 4 15 19 31 30 42 37 46 27 2 2 0 0 0 0 0 1 0 2 1 1 0 3 2 1 1 4 16 5 2 0 0 0 0 4 0 25 7 4 9 9 0
43 74 70 48 1 9 21 47 33 37 43 41 53 18 2 0 0 0 0 0 0 8 1 1 1 0 0 6 3 2 8 0 0 3 10 0 0 0 0 0 40 3 0 0 1 0 0
60 54 75 58 43 31 32 23 36 51 27 55 13 3 2 0 2 4 2 0 6 6 2 3 0 1 1 2 0 1 4 1 0 3 0 0 0 4 3 6 14 0 1 3 0 0 0
46 57 24 19 32 11 25 5 37 41 48 16 0 0 0 1 1 3 1 0 1 5 2 1 0 2 3 0 0 0 0 0 0 0 0 1 0 0 0 24 1 4 4 0 0 0 14
25 35 27 29 23 12 30 1 4 45 53 7 1 0 1 4 2 3 1 0 2 4 7 3 2 0 1 0 0 0 0 0 0 0 3 0 1 0 0 0 0 3 0 0 22 0 0
12 21 29 24 36 20 1 5 3 40 11 1 0 0 3 0 1 2 1 2 1 0 5 4 1 0 0 0 0 0 4 2 0 0 0 2 0 0 0 2 5 5 2 0 0 0 0
9 23 28 30 28 3 3 6 24 21 12 5 0 2 5 4 1 1 3 2 1 3 2 9 0 0 0 0 0 0 0 0 0 0 0 12 8 0 0 0 0 0 0 0 0 0 0
10 13 23 28 23 20 31 9 8 41 5 0 0 1 0 1 1 1 1 2 3 1 2 0 0 0 0 1 0 0 0 0 0 0 1 2 1 3 0 0 0 0 0 0 0 0 0
4 5 19 23 18 12 4 0 2 48 1 0 0 0 1 12 0 0 2 1 2 2 3 0 0 1 0 0 0 0 0 1 0 1 0 0 0 0 0 0 0 0 0 0 0 0 0
1 1 16 28 26 12 4 0 2 36 0 1 0 0 0 6 3 3 1 0 0 3 3 0 0 0 0 0 0 0 0 0 3 0 0 0 0 3 0 0 0 0 0 0 0 0 0
7 4 11 24 30 15 9 1 1 34 16 0 0 0 0 0 0 8 20 12 10 9 2 2 4 0 14 6 52 23 1 7 4 1 9 0 0 1 0 0 0 0 0 0 0 0 0
13 8 13 21 21 12 2 4 7 5 14 0 0 0 0 1 0 0 0 1 0 3 6 0 1 0 0 0 15 19 6 10 1 0 3 3 11 3 1 0 0 0 0 0 0 0 0
14 11 11 15 18 23 2 0 5 4 11 1 0 0 0 0 0 0 0 1 7 0 1 0 0 0 0 0 12 1 3 0 0 0 0 9 10 3 0 0 0 0 0 0 0 0 0
14 8 7 23 33 27 2 0 2 3 11 4 0 0 0 1 0 0 0 0 26 0 0 0 0 0 0 1 2 4 4 0 0 0 0 1 4 2 1 0 0 0 0 0 0 0 0
15 7 15 16 24 27 8 8 2 2 8 9 0 0 0 0 0 0 0 0 4 0 0 0 1 2 2 7 3 0 0 0 0 0 0 0 0 0 0 2 0 0 0 0 0 0 0
15 12 9 23 25 17 12 16 3 2 9 9 4 0 0 0 0 0 0 0 0 0 0 0 0 0 3 3 0 0 0 0 0 0 0 0 0 0 0 0 0 0 0 0 0 0 0

GFSGBSN_con_mlcape_015.txt.gz
CAPE
4 2 0 0 14 21 3 8 11 21 15 5 0 0 3 5 6 0 0 0 0 0 0 4 13 20 1 0 0 0 0 0 0 4 5 6 3 0 0 0 0 0 0 2 0 0 0
46 2 2 0 0 18 11 5 13 17 23 14 10 6 0 0 6 0 0 0 0 0 0 0 0 15 0 0 0 0 0 0 0 0 0 8 1 5 9 0 0 0 2 0 0 1 0
36 26 9 4 3 3 12 8 14 23 18 14 27 19 0 0 0 0 0 9 0 0 0 0 0 0 0 0 0 0 0 0 0 0 0 22 14 41 21 0 0 0 0 0 0 4 0
14 12 32 7 2 2 17 7 12 34 25 17 17 23 1 0 0 0 0 11 20 0 2 2 0 0 0 0 0 0 0 0 0 0 0 0 0 0 8 10 0 0 8 0 0 0 0
12 5 12 12 20 0 4 22 11 21 38 25 21 17 13 2 0 4 2 10 0 3 8 8 0 1 0 0 0 0 0 0 0 0 0 0 0 0 3 9 7 4 0 8 2 0 15
15 22 8 21 5 22 9 12 28 29 34 30 35 20 8 10 0 1 10 11 0 0 1 19 3 3 0 0 0 0 0 0 0 0 0 0 0 0 0 22 3 0 0 1 0 0 5
9 14 19 4 9 98 23 16 20 28 23 24 19 17 7 11 0 0 1 0 0 0 9 0 0 0 0 0 0 0 0 0 0 1 1 0 0 1 0 0 1 0 0 1 0 0 9
31 8 16 12 3 7 30 25 4 23 21 18 26 27 8 12 0 0 2 0 0 0 0 0 0 0 0 0 0 0 0 0 7 1 0 1 2 0 0 0 1 0 0 0 0 0 25
26 22 22 16 20 3 3 64 18 6 30 28 36 15 14 3 1 0 0 0 0 0 0 2 0 0 0 0 0 0 0 0 1 4 0 0 0 0 0 0 1 0 0 0 0 0 2
12 30 29 22 34 13 25 13 14 14 31 32 39 16 10 1 0 0 0 0 0 1 5 0 1 7 2 0 0 0 3 0 9 2 0 0 0 0 0 0 3 0 0 0 0 2 0
25 19 28 40 52 34 39 8 7 10 26 53 51 22 2 0 0 0 0 0 5 2 0 0 3 0 4 7 1 0 0 4 2 2 1 0 0 0 0 0 0 0 0 0 5 0 4
33 19 28 38 65 52 39 7 7 3 31 65 63 35 6 0 0 0 0 0 1 0 0 0 0 1 2 8 9 4 1 4 6 3 1 0 3 1 0 0 0 0 0 0 15 21 16
38 23 38 45 100 52 35 8 2 1 46 61 54 31 3 0 0 0 0 0 0 0 0 0 1 2 2 3 2 4 2 2 0 0 0 3 0 2 1 0 0 16 10 4 2 11 0
31 24 61 59 25 98 80 10 0 4 54 64 61 47 6 0 0 0 0 0 0 0 0 0 1 0 1 0 5 6 4 1 4 0 0 0 0 0 0 0 0 0 0 12 0 0 0
26 26 78 46 19 22 33 11 0 6 32 67 102 41 3 7 0 0 1 2 0 0 0 0 1 0 1 2 2 7 7 0 0 0 0 0 0 0 0 0 16 0 9 0 15 6 16
15 22 29 34 15 26 15 0 0 1 54 73 74 6 2 0 0 0 1 0 0 0 0 0 0 0 0 0 1 1 0 0 0 0 0 0 0 0 0 0 1 6 30 1 0 13 0
34 27 23 15 20 41 4 11 26 10 51 75 6 6 1 2 1 2 1 0 0 0 0 0 0 0 0 0 0 0 0 0 0 0 0 0 0 0 0 1 0 2 105 15 1 0 19
47 33 29 31 15 32 34 26 27 6 4 32 0 6 2 1 3 3 2 0 1 0 7 2 3 1 3 0 0 0 0 0 0 0 0 0 1 0 0 0 10 0 32 9 0 0 0
50 35 23 35 31 38 14 25 24 3 3 0 2 3 3 3 1 1 2 1 3 2 3 4 1 1 0 3 0 0 0 0 0 0 0 1 0 0 1 3 2 3 1 0 1 4 0
49 28 19 20 24 55 28 10 0 0 18 3 0 1 13 8 5 1 2 2 2 1 2 10 3 1 0 0 0 0 0 0 0 0 3 2 0 0 0 1 5 2 0 1 1 0 0
36 16 14 11 27 49 8 26 1 0 22 0 0 2 0 0 1 1 1 2 1 0 1 5 4 0 0 0 0 0 0 0 0 0 5 2 0 1 0 0 0 0 0 0 2 0 0
37 23 14 13 31 27 18 1 11 2 0 0 0 0 1 0 1 2 1 1 2 1 2 6 1 0 0 0 0 0 0 0 3 0 0 0 0 4 2 0 2 0 0 3 0 0 0
29 20 15 14 17 17 25 5 23 3 1 11 0 0 0 2 0 1 1 0 0 0 0 0 3 0 0 0 4 18 0 0 4 0 0 0 0 2 0 2 1 0 0 0 0 0 0
24 16 14 6 17 24 27 21 8 3 3 1 0 0 0 3 0 1 1 10 2 3 4 2 0 2 0 2 5 3 4 0 0 0 0 0 0 2 0 0 0 0 0 0 0 0 0
25 17 9 12 13 29 50 15 3 2 1 0 0 2 0 2 0 0 0 0 11 10 3 11 14 0 0 0 13 15 1 25 2 0 0 0 0 5 0 0 0 0 0 0 0 0 0
31 17 12 13 16 23 46 13 4 2 2 0 0 0 0 1 0 0 0 2 11 0 0 4 0 0 0 0 10 4 0 0 0 5 0 4 4 14 0 0 0 0 0 0 0 0 0
29 18 12 6 13 30 42 14 8 1 1 2 2 0 0 0 0 0 0 0 15 4 2 0 0 0 2 1 1 0 0 0 0 0 2 11 4 0 0 0 0 0 0 0 0 0 0
28 18 13 9 13 19 32 17 5 2 0 1 0 0 1 0 0 0 0 0 0 9 2 0 0 0 0 2 2 1 1 0 0 0 2 0 0 1 0 0 0 0 0 0 0 0 0
37 15 17 13 9 17 25 15 4 4 1 0 0 0 0 0 0 0 0 0 0 0 2 0 0 1 3 1 2 0 0 0 0 0 0 1 0 0 0 0 0 0 0 0 0 0 0

GFSGBSN_con_mlcape_018.txt.gz
CAPE
15 31 38 55 11 0 4 32 9 12 23 46 16 8 1 2 9 0 0 0 0 0 0 0 0 3 0 0 0 0 0 0 0 15 19 4 0 0 0 0 0 0 0 0 0 0 0
5 4 5 14 30 9 0 6 22 11 24 33 31 13 6 0 4 3 0 0 0 0 0 0 0 0 0 0 0 0 0 0 0 6 22 19 0 0 0 0 0 0 0 0 0 0 0
7 6 1 2 17 20 20 0 17 13 26 37 44 25 16 1 0 4 0 0 0 0 0 0 2 0 0 0 0 0 0 0 0 5 0 4 0 18 14 1 0 0 0 0 0 0 0
19 14 7 4 3 3 10 17 1 13 28 46 43 25 28 9 0 1 0 13 15 0 0 0 1 0 0 0 0 0 0 0 0 2 0 0 0 20 2 10 1 0 0 0 0 0 0
3 13 18 10 11 7 24 34 12 4 11 47 53 33 13 13 4 0 6 22 3 0 0 10 0 0 0 0 0 0 0 0 0 0 0 0 0 0 1 24 17 3 0 0 0 0 0
5 2 14 11 16 12 14 9 29 20 3 27 44 46 35 18 7 3 13 17 15 0 0 18 6 0 0 0 0 0 0 0 0 0 0 0 0 0 0 12 0 0 0 0 0 4 0
31 18 11 21 15 18 17 7 3 44 14 19 23 42 36 19 14 7 20 4 0 0 1 0 0 0 0 0 0 0 0 0 0 0 0 0 0 1 0 0 0 0 0 0 0 9 0
12 46 35 15 11 26 23 14 5 4 30 14 19 46 43 15 15 2 0 0 0 0 0 0 0 0 0 0 0 0 0 0 0 0 0 3 4 0 0 0 0 0 0 0 0 0 2
17 9 47 29 26 28 28 11 5 2 19 17 15 40 56 19 14 3 0 0 0 0 0 1 0 3 0 3 1 0 0 0 0 0 6 1 0 0 0 0 0 0 0 0 0 0 0
18 34 16 28 21 20 23 38 11 11 1 31 22 52 55 39 2 0 3 0 0 3 0 0 0 4 4 13 3 1 1 2 4 1 0 1 0 0 2 4 0 0 0 0 3 3 0
39 35 26 25 14 29 41 50 36 38 5 7 31 73 39 1 0 0 0 0 0 12 0 0 1 0 9 5 0 0 1 6 2 1 0 0 0 0 0 0 0 0 0 0 10 12 10
23 20 32 38 16 76 48 47 65 43 3 6 51 85 26 0 0 0 0 0 9 0 0 0 0 1 1 7 8 1 0 4 9 4 1 0 0 0 0 0 0 9 6 9 15 25 1
49 35 31 32 40 48 47 28 32 9 32 14 13 89 2 0 0 0 0 4 0 0 0 1 0 0 0 1 2 1 0 2 1 3 0 0 0 1 5 0 2 15 20 0 0 0 0
34 42 24 18 15 30 25 6 0 10 22 1 3 43 0 0 0 0 0 0 0 0 0 1 0 0 0 0 2 4 7 2 2 0 0 0 0 0 0 0 0 4 0 0 0 0 0
57 50 34 28 23 25 14 15 46 51 14 5 2 3 3 0 0 0 4 1 0 0 0 0 2 2 2 2 0 5 2 3 0 3 1 0 0 0 0 0 5 4 11 0 0 0 2
39 49 41 30 23 26 41 38 24 10 11 28 8 37 13 0 0 2 2 0 0 0 0 0 0 0 1 1 1 3 0 0 1 0 0 0 0 0 0 0 2 3 1 0 1 0 0
41 44 34 28 22 25 20 39 27 8 0 0 5 34 2 1 6 8 0 0 0 0 0 0 0 0 0 0 0 0 0 0 0 0 0 0 0 0 0 0 0 1 0 10 0 0 35
31 34 40 19 17 11 31 19 27 15 0 6 11 1 1 1 0 1 0 0 0 0 0 0 2 3 3 0 0 0 0 0 0 0 0 0 1 0 0 0 0 0 0 0 2 0 0
38 32 38 16 21 22 25 27 27 14 21 24 20 8 2 0 0 1 2 0 0 0 0 2 1 1 1 0 0 0 0 0 0 0 0 0 0 0 0 0 2 2 1 0 10 0 2
38 27 31 15 21 20 27 21 17 17 10 7 0 1 3 6 2 1 2 2 2 0 4 4 2 2 4 0 0 0 0 0 0 0 0 2 0 0 0 0 0 1 1 0 0 0 0
41 26 26 23 23 16 29 35 15 23 3 4 7 1 1 1 3 0 2 1 0 2 2 3 1 1 2 0 0 0 0 0 0 0 2 1 0 0 0 1 1 8 0 9 31 0 0
37 25 28 31 12 14 30 50 13 10 2 2 10 0 0 0 1 2 0 0 3 3 1 2 1 2 1 0 0 0 0 0 0 0 2 3 0 0 0 0 4 1 0 7 5 0 0
37 16 23 25 7 14 27 46 16 10 3 33 0 0 0 1 0 2 0 0 0 0 0 1 1 2 1 0 0 0 0 2 0 0 2 1 0 0 0 4 2 0 0 1 0 0 0
39 14 28 17 5 12 9 16 14 20 7 3 1 0 0 2 0 1 0 0 0 0 0 2 0 2 0 0 3 2 13 1 0 0 0 1 0 1 0 1 0 0 0 0 0 0 1
29 31 32 20 8 5 18 37 15 9 2 1 0 0 0 0 0 0 0 0 0 0 0 2 6 0 0 0 21 26 0 0 0 0 0 0 0 0 0 0 0 0 0 0 0 0 0
31 37 18 25 14 6 6 35 11 4 3 1 0 0 0 0 0 7 4 0 2 1 0 0 0 0 0 5 19 5 1 0 0 4 0 0 0 2 0 0 0 0 0 0 0 0 0
32 28 10 16 12 6 6 17 13 16 2 3 1 0 0 5 0 0 0 0 9 0 0 0 2 2 6 14 1 0 0 0 0 0 1 3 2 0 0 0 0 0 0 0 0 0 0
35 33 21 14 16 9 2 16 18 9 1 2 0 0 6 3 0 0 0 0 0 0 0 0 2 1 6 2 3 1 3 0 0 0 1 0 0 0 1 0 0 0 0 0 0 0 0
36 36 26 12 13 9 1 15 14 4 1 3 0 0 0 1 0 0 0 0 0 0 0 2 0 0 3 2 0 3 2 0 0 0 0 0 0 0 0 0 0 0 0 0 0 0 0

GFSGBSN_con_mlcape_021.txt.gz
CAPE
4 2 0 3 3 4 7 52 2 19 18 27 32 37 19 6 0 17 3 1 0 0 0 0 0 0 0 0 0 0 0 0 0 20 8 7 0 0 0 0 0 0 0 0 0 0 0
6 5 5 0 2 6 6 3 61 6 25 13 13 26 24 12 4 10 11 0 0 0 0 0 0 1 0 0 0 0 0 0 0 31 17 21 0 0 0 0 0 0 0 0 0 0 0
0 3 4 4 5 3 1 2 7 43 10 23 24 31 33 21 9 0 13 9 7 0 0 0 0 0 0 0 0 0 0 0 0 0 1 22 37 20 15 2 0 0 0 0 0 0 0
8 8 9 9 6 6 12 2 13 3 42 18 2 29 23 17 14 1 1 16 29 9 1 0 8 0 0 0 0 0 0 0 0 0 0 0 19 14 32 9 2 5 1 0 0 0 0
7 6 8 5 10 28 15 18 0 10 5 56 0 12 43 36 14 0 0 14 26 21 9 15 0 0 0 0 0 0 0 0 0 0 0 1 0 0 2 10 6 2 0 0 0 0 0
4 2 4 6 10 16 28 30 19 3 2 5 21 0 23 31 25 6 3 14 29 7 3 15 6 0 0 0 0 0 0 0 0 0 0 0 0 0 0 5 0 0 0 1 0 0 0
18 7 11 7 16 17 20 18 38 23 5 4 14 8 34 46 41 6 3 9 1 0 0 0 1 0 0 0 0 0 0 0 0 0 0 0 0 0 0 0 1 0 0 0 0 0 0
22 7 16 17 17 33 13 17 17 24 18 6 3 13 33 56 35 19 0 0 0 0 0 0 0 0 0 0 0 0 0 0 0 0 0 0 0 0 0 0 0 0 0 1 0 0 0
51 40 29 42 16 19 32 21 8 24 22 8 5 7 36 67 43 13 0 0 0 0 0 0 0 0 0 0 1 0 0 0 0 0 0 0 0 0 0 0 0 0 0 0 0 0 0
32 37 36 33 20 44 35 7 39 28 52 31 20 1 40 77 32 1 4 0 0 4 0 0 0 0 2 17 2 0 0 0 0 0 0 0 0 0 0 0 0 0 0 0 0 0 0
30 29 40 25 27 31 46 51 63 45 53 8 6 0 28 26 0 1 0 0 4 8 0 0 2 0 13 3 0 0 1 2 0 0 0 0 0 0 0 0 0 1 0 0 0 0 0
50 31 52 76 33 24 28 68 48 65 22 3 1 6 5 0 0 0 0 0 20 0 0 0 0 1 3 6 4 1 0 19 8 4 1 0 0 0 0 0 0 6 1 12 8 2 1
42 52 46 80 48 75 45 35 20 3 2 1 1 22 3 0 0 0 0 0 1 0 0 0 0 2 0 1 2 3 0 2 3 0 1 0 1 2 0 0 0 2 5 0 0 2 0
34 42 48 67 37 36 38 22 5 6 54 67 14 0 2 0 0 0 0 0 0 0 0 0 0 0 0 0 1 2 6 1 16 4 0 0 0 1 0 0 0 0 0 0 0 0 0
37 54 60 46 34 34 45 19 21 62 19 43 17 0 16 3 0 1 1 0 0 0 0 0 1 1 0 0 1 3 6 1 3 1 1 0 0 0 0 0 0 0 0 0 0 0 0
35 46 54 34 39 27 26 28 39 44 41 42 2 5 18 1 1 9 1 0 0 0 0 0 0 0 0 2 1 2 0 0 1 0 1 0 0 0 0 0 1 0 0 0 0 0 0
34 44 61 34 26 23 15 31 36 29 16 12 10 5 39 1 5 7 0 0 0 0 0 0 0 0 0 0 1 0 0 0 0 0 1 4 1 0 1 3 0 5 1 5 0 0 0
36 44 41 26 13 19 16 33 33 38 31 10 7 0 23 5 4 0 0 0 0 0 0 0 0 0 1 0 0 0 0 0 0 0 2 1 1 0 0 0 0 0 0 3 0 0 0
39 39 34 28 20 27 19 22 45 21 35 8 10 6 24 11 0 0 2 0 0 0 0 0 0 2 0 5 0 0 0 0 0 0 0 0 0 0 0 0 1 0 0 1 0 11 0
40 46 47 28 30 22 18 22 31 19 14 10 5 0 7 8 2 0 1 3 2 0 1 2 2 5 4 0 0 0 0 0 0 0 0 0 0 0 0 0 0 1 2 1 1 3 0
40 44 46 34 34 21 20 16 32 1 1 3 0 1 1 0 1 0 0 1 2 2 1 2 2 2 2 1 1 0 0 0 0 0 1 1 0 0 0 0 0 0 1 2 1 0 0
35 35 44 29 23 10 20 15 26 0 1 25 7 2 3 3 1 0 1 1 1 0 1 0 1 1 1 2 0 0 0 0 0 0 2 4 0 0 0 2 3 0 0 1 1 2 0
33 44 50 33 27 6 12 11 22 12 24 1 1 0 0 4 1 2 1 0 0 3 1 0 0 1 3 1 0 0 0 0 0 0 2 0 0 0 0 2 0 0 0 0 0 0 1
39 37 47 14 24 8 11 6 17 24 15 3 0 3 5 0 2 1 2 0 0 0 1 2 0 2 0 0 2 0 0 0 0 0 0 0 0 1 0 0 0 0 0 0 0 0 0
40 49 45 15 9 8 5 3 22 14 9 2 0 0 3 1 1 0 0 0 0 0 0 0 3 8 2 3 3 0 0 8 0 0 0 0 1 1 2 0 0 0 0 2 1 0 0
36 37 35 24 6 8 8 2 17 10 2 1 0 0 0 1 5 0 0 2 0 0 2 1 0 0 3 3 3 0 0 0 0 0 0 0 0 0 0 0 0 0 0 0 0 0 0
35 43 33 35 8 13 10 0 12 9 3 2 0 0 0 1 0 0 0 0 0 0 0 0 0 2 1 6 7 3 0 0 0 0 0 1 3 1 0 0 0 0 0 0 0 0 0
31 39 32 34 9 9 7 0 13 14 3 4 1 0 5 0 0 0 0 0 0 0 0 0 0 1 4 9 4 1 0 0 0 0 0 0 0 0 1 0 0 0 0 0 0 0 0
33 39 39 32 19 9 6 5 10 19 3 3 2 0 1 2 2 0 0 0 0 0 0 0 0 5 5 5 4 8 11 0 0 0 0 0 0 0 0 0 0 0 0 0 0 0 0

GFSGBSN_con_mlcape_024.txt.gz
CAPE
4 6 5 7 3 2 2 4 2 8 5 38 36 50 62 32 14 1 6 0 4 1 0 0 9 9 0 0 0 0 0 0 0 28 17 2 0 0 0 0 0 0 0 0 0 0 0
7 5 8 4 6 6 7 4 5 0 5 5 32 7 15 46 17 10 12 4 2 2 0 0 0 8 0 0 0 0 0 0 2 8 8 19 2 0 0 0 0 0 0 0 0 0 0
8 8 10 8 17 7 2 4 10 10 0 8 11 22 15 30 22 19 8 12 9 0 0 0 13 0 0 0 0 0 0 0 0 15 25 25 16 6 7 0 0 0 0 0 0 0 0
7 7 5 8 14 10 32 17 4 14 3 2 6 22 2 47 40 27 14 30 10 11 0 0 21 0 0 0 0 0 0 0 0 0 0 0 26 20 25 2 2 1 1 0 0 0 0
13 7 7 10 12 12 9 41 34 24 25 7 8 7 27 8 52 37 17 20 29 30 14 13 1 0 0 0 0 0 0 0 0 0 0 0 0 0 0 4 1 0 0 0 0 0 0
9 6 4 10 17 7 15 26 39 36 25 25 5 6 3 11 49 51 16 17 38 13 5 4 7 0 0 0 0 0 0 0 0 0 0 0 4 5 1 0 0 0 0 0 0 0 0
31 11 12 12 0 15 22 8 31 39 28 18 11 8 6 32 36 68 12 8 11 14 0 0 0 0 0 0 0 0 0 0 0 0 0 0 1 1 2 0 0 0 0 0 3 0 0
35 36 30 32 24 25 13 25 26 29 35 24 28 16 7 4 39 41 0 0 0 0 0 0 0 0 0 0 0 0 0 0 0 0 0 0 0 0 0 0 1 0 0 0 0 0 0
43 53 41 43 43 37 17 14 40 43 40 38 46 38 22 0 23 4 0 0 0 0 0 0 0 0 0 1 1 0 0 0 0 0 0 0 0 0 0 0 0 0 0 0 0 0 0
19 17 26 31 28 44 45 40 41 52 43 23 42 6 4 5 8 1 3 0 0 0 0 0 0 0 0 4 6 2 1 0 1 0 0 0 0 0 0 0 0 0 0 0 0 0 0
12 27 22 54 59 41 67 72 87 53 18 53 48 13 0 12 19 1 0 0 0 0 0 0 4 0 15 0 0 0 1 4 6 0 0 0 0 0 1 0 0 1 0 0 0 0 0
20 26 33 44 66 65 54 83 32 19 13 24 7 1 2 2 2 0 0 1 0 0 0 0 1 3 7 3 0 1 7 20 2 4 3 0 0 0 0 0 0 2 0 4 5 0 1
18 31 34 51 52 55 32 31 22 33 16 2 0 11 25 29 12 0 0 1 0 0 0 0 1 1 1 0 2 3 4 4 3 1 0 3 1 1 0 0 0 1 0 0 0 0 0
12 26 36 42 48 31 25 32 29 9 33 80 25 40 8 0 29 0 1 0 0 0 0 0 0 0 1 0 0 1 1 3 14 1 0 0 0 0 0 0 0 0 0 0 0 0 0
30 37 39 43 34 27 23 16 49 105 20 75 53 30 10 0 41 3 0 0 0 0 0 0 1 1 1 0 0 3 5 1 0 2 0 1 0 0 0 0 1 1 0 0 0 0 0
30 36 39 44 32 25 13 17 42 51 36 29 11 19 0 2 34 16 0 0 0 0 0 0 0 0 0 0 0 1 0 0 1 1 0 0 1 0 0 0 2 3 0 0 0 0 0
31 41 41 51 39 18 14 19 35 46 20 28 0 1 30 43 29 15 1 0 0 0 0 0 0 0 0 0 0 0 0 0 0 0 0 1 2 0 3 4 0 2 1 0 0 0 0
27 41 40 58 38 20 10 22 23 30 28 5 0 0 67 27 1 2 1 0 0 0 0 0 0 0 0 0 0 1 0 0 0 0 0 0 2 0 0 0 0 0 0 6 3 0 0
36 48 40 60 32 27 11 28 20 31 23 19 4 1 48 1 0 0 0 0 0 0 0 0 0 0 0 0 0 0 0 0 0 0 0 0 0 0 0 0 2 0 0 0 6 4 0
38 55 44 64 55 18 13 15 18 37 26 12 0 0 7 9 4 0 0 3 0 0 0 0 0 2 0 2 0 0 0 0 0 0 0 0 0 0 0 0 0 0 1 0 0 0 0
46 59 42 55 34 28 11 10 14 38 5 3 0 1 1 0 1 0 0 0 0 0 0 0 2 2 2 1 1 0 0 0 0 0 0 0 0 0 0 1 0 0 0 1 0 0 0
48 58 44 52 20 20 5 8 10 40 0 3 1 2 2 2 1 0 0 0 0 0 1 1 2 2 3 1 0 0 0 0 0 0 1 3 0 1 0 0 1 2 1 0 0 0 0
42 52 58 51 17 6 7 12 10 31 15 5 0 6 0 6 1 1 1 0 1 1 0 1 0 1 1 0 0 0 0 0 0 0 3 1 0 0 0 0 0 0 1 3 2 2 0
55 55 61 44 23 2 5 8 13 24 21 8 1 2 9 1 1 0 0 2 0 1 3 2 1 3 0 6 3 2 0 0 0 0 0 1 0 0 0 0 0 0 3 0 0 0 0
44 54 61 41 21 6 7 9 8 21 18 3 1 1 8 0 1 9 1 0 0 1 1 2 0 0 4 6 2 0 0 0 0 0 0 0 2 0 0 1 0 0 0 0 0 0 0
41 47 47 30 23 5 2 6 2 19 9 2 2 0 0 0 0 0 3 0 0 1 1 1 0 0 12 4 3 1 0 0 0 0 0 0 0 0 0 0 0 0 0 0 0 0 0
23 30 33 36 23 10 9 4 3 21 7 3 1 1 0 1 0 1 0 0 0 1 0 0 0 0 1 1 1 1 0 0 0 0 0 0 1 0 4 1 0 0 0 0 0 0 0
25 19 14 37 9 8 13 3 5 12 8 3 1 0 0 2 0 0 0 0 0 0 0 0 0 1 2 2 2 0 0 0 0 0 0 0 0 0 0 0 0 0 0 0 0 0 0
28 24 26 29 19 11 8 3 12 20 16 1 2 0 0 0 0 0 0 0 0 0 0 0 0 2 1 6 0 2 3 0 0 0 0 0 0 0 0 0 0 0 0 0 0 0 0

GFSGBSN_con_mlcape_027.txt.gz
CAPE
8 11 11 9 8 5 3 4 3 3 4 5 20 8 59 49 67 24 3 0 0 0 0 0 0 1 0 0 0 0 0 0 0 10 8 1 0 0 0 0 0 0 0 0 0 0 0
13 16 13 14 15 9 10 7 11 6 10 16 5 15 3 32 12 39 7 7 0 0 0 0 0 0 0 0 0 0 0 0 0 20 15 10 2 0 0 0 0 0 0 0 0 0 0
15 10 6 10 13 11 17 20 14 9 15 24 7 8 7 4 32 44 18 17 1 0 0 0 1 0 0 0 0 0 0 0 0 9 16 26 2 0 0 0 0 0 0 0 0 0 0
14 8 6 5 10 17 14 3 5 6 13 37 15 8 10 8 17 24 32 35 12 0 12 0 18 0 0 0 0 0 0 0 0 0 0 9 14 23 16 4 2 4 0 0 0 0 0
9 19 13 8 14 19 24 24 24 17 41 40 43 16 3 10 9 14 30 26 33 16 30 29 0 0 0 0 0 0 0 0 0 0 0 0 5 0 0 0 0 1 0 0 0 0 0
29 40 11 32 23 8 6 8 12 18 29 26 36 31 9 7 6 28 39 15 42 35 9 15 8 0 0 0 0 0 0 0 0 0 0 1 0 0 2 0 0 0 0 0 0 0 0
56 53 26 37 29 35 35 1 12 19 21 41 47 29 24 14 8 25 44 13 5 4 1 0 0 0 0 0 0 0 0 0 0 0 0 0 1 0 0 0 0 0 0 0 0 0 0
35 19 40 43 28 44 21 29 46 32 40 46 51 34 41 14 16 2 0 0 0 0 0 0 0 0 0 0 0 0 0 0 0 0 0 0 0 0 1 0 1 2 1 0 1 0 0
11 15 34 36 32 33 28 28 23 66 84 78 49 62 41 11 5 2 1 0 0 0 0 0 0 0 0 0 0 0 0 0 0 0 0 0 0 0 0 0 1 0 1 1 0 0 0
26 31 26 28 20 29 29 31 27 59 65 59 48 57 48 24 0 12 2 0 0 0 0 0 0 0 0 8 0 0 0 0 0 0 0 0 0 0 0 0 0 0 0 0 0 0 0
27 13 27 35 18 29 20 28 24 36 34 47 41 45 30 43 0 3 4 0 0 0 0 0 0 2 10 0 0 0 0 4 1 0 0 0 0 0 0 0 0 0 0 0 0 0 0
38 34 24 21 21 26 25 29 22 18 48 24 19 7 11 15 4 0 0 0 0 0 0 0 3 5 9 6 10 2 14 22 2 3 2 0 0 0 0 0 0 0 0 3 4 2 0
32 29 26 26 22 19 26 40 12 13 31 35 37 66 5 4 2 8 3 0 0 0 0 0 2 6 5 2 5 3 2 5 1 2 2 0 1 0 0 0 0 1 1 0 0 0 0
38 20 29 31 30 23 23 17 7 20 37 13 38 32 18 1 0 0 0 0 0 0 0 0 0 1 1 1 0 0 1 4 3 2 4 0 0 1 0 1 0 0 0 0 0 0 0
27 26 23 36 36 33 20 7 7 19 60 22 83 40 15 9 1 0 4 0 0 0 0 1 1 3 2 0 0 1 1 1 1 8 0 0 0 0 0 0 0 0 2 0 0 0 0
37 33 33 42 38 34 14 17 19 36 36 46 17 12 20 12 0 7 0 0 0 0 0 0 0 0 0 0 0 3 0 0 0 0 5 0 0 0 0 1 0 7 0 6 1 0 0
30 29 40 38 51 31 17 18 24 30 48 6 5 10 13 9 2 2 0 0 0 0 0 0 0 0 0 0 0 0 0 0 0 0 0 0 0 0 0 0 0 3 4 0 2 3 1
35 28 42 48 62 33 25 20 15 30 39 18 5 0 4 55 0 0 0 0 0 0 0 0 0 0 0 0 0 0 0 0 0 0 0 0 1 0 0 0 0 0 0 0 5 0 0
21 25 44 44 58 51 33 5 8 39 21 14 3 9 22 0 0 0 1 0 0 0 0 0 0 0 0 0 0 0 0 0 0 0 0 0 2 0 0 0 0 1 0 0 0 0 0
22 31 45 47 50 38 13 0 13 24 13 15 0 6 1 14 0 0 0 0 0 0 0 0 0 0 0 2 0 0 0 0 0 0 0 0 0 0 0 0 0 0 1 0 0 0 0
23 33 35 39 22 29 10 2 6 5 12 15 0 1 0 0 0 0 0 0 0 0 0 0 0 0 0 2 2 2 0 0 0 0 0 0 0 0 0 0 1 0 0 0 0 0 0
22 29 30 36 4 24 9 10 6 15 3 0 4 2 1 1 0 2 0 0 0 0 0 0 0 0 1 1 0 0 0 0 0 0 0 1 0 1 0 1 1 0 0 1 0 1 1
19 26 22 33 18 18 10 13 2 11 24 3 1 2 6 2 0 0 0 0 0 0 0 0 0 1 3 1 1 0 0 0 0 3 1 3 0 0 0 0 0 0 0 0 1 1 0
19 20 25 23 16 28 15 11 4 4 29 11 4 3 10 1 0 1 0 0 0 0 0 4 1 2 1 0 5 4 0 1 0 0 0 3 1 0 0 0 0 0 1 1 0 0 0
28 18 14 10 14 14 11 12 1 3 13 4 2 2 8 1 1 0 0 0 0 0 6 11 3 2 6 18 0 1 0 0 0 0 0 0 1 7 0 0 0 0 0 0 0 0 0
18 18 7 11 11 9 8 6 0 3 14 3 3 0 11 0 0 0 2 1 0 2 0 0 0 0 8 4 2 0 0 0 0 0 0 0 1 0 0 0 0 0 0 0 0 0 0
23 21 5 23 16 11 11 2 0 5 6 5 1 1 0 3 0 0 0 0 2 0 1 2 0 0 2 2 0 0 0 0 0 0 0 0 4 0 0 0 0 0 0 0 0 0 0
10 19 18 20 15 21 19 0 1 5 8 4 0 0 1 0 0 1 0 0 0 0 0 0 0 0 1 0 0 0 0 0 0 0 0 0 0 0 0 0 0 0 0 0 0 0 0
7 10 9 18 22 21 6 1 6 13 10 9 1 0 1 0 0 0 0 0 0 0 0 0 0 1 1 2 2 4 2 0 0 0 0 0 0 0 0 0 0 0 0 0 0 0 0

GFSGBSN_con_mlcape_030.txt.gz
CAPE
7 10 7 9 8 6 9 10 15 5 7 6 5 2 5 6 5 39 45 6 0 0 0 0 0 0 0 0 0 0 0 0 0 38 22 0 0 1 0 0 0 0 0 0 0 0 0
9 8 4 6 12 16 18 15 8 6 6 14 11 18 0 7 9 17 34 6 3 0 0 0 0 0 0 0 0 0 0 0 0 19 43 8 2 0 2 0 0 0 0 0 0 0 0
2 7 9 8 9 18 27 23 27 13 13 7 11 32 25 3 5 4 37 22 15 1 0 0 0 0 0 0 0 0 0 0 0 35 27 21 3 0 4 7 5 1 0 0 0 0 0
12 15 17 21 22 12 16 9 12 14 15 22 15 28 29 9 1 8 25 73 22 2 0 0 6 0 0 0 0 0 0 0 0 0 32 31 17 19 20 6 5 0 0 0 0 0 0
13 38 43 44 27 26 12 15 16 5 9 12 17 22 30 19 6 9 5 44 27 22 18 6 0 0 0 0 0 0 0 0 0 0 0 40 32 0 8 5 1 1 0 0 0 0 0
33 14 43 44 43 34 43 33 29 13 19 14 38 37 31 31 22 12 0 41 25 36 33 33 3 0 0 0 0 0 0 0 0 0 0 0 0 0 0 1 0 0 0 0 0 0 0
19 36 29 30 39 38 43 38 37 27 29 31 28 79 63 32 30 10 9 40 15 7 4 0 0 0 0 0 0 0 0 0 0 2 6 8 3 0 0 0 0 0 0 0 0 0 0
8 31 22 29 33 24 32 32 44 36 20 49 77 107 87 58 38 20 2 9 1 0 0 0 0 0 0 0 0 0 0 0 5 5 8 1 0 0 0 0 0 3 1 0 0 0 0
25 21 14 22 26 33 41 46 38 33 27 45 70 81 79 42 41 2 4 7 0 0 0 0 0 0 0 0 0 0 0 0 0 2 0 0 0 0 0 0 2 2 0 1 0 0 0
34 8 45 32 31 36 38 44 52 38 20 15 28 63 62 49 15 1 11 0 0 0 1 0 0 0 0 4 0 0 0 0 0 0 0 3 0 0 0 1 0 0 0 1 3 1 0
17 17 34 34 35 43 48 44 29 34 11 9 41 46 18 31 14 0 0 27 0 0 0 0 1 2 4 0 0 1 0 1 5 0 0 0 0 1 2 0 1 1 0 1 1 2 0
37 28 34 23 32 64 50 43 27 7 10 16 32 43 59 22 23 0 0 2 0 0 0 1 4 7 5 6 6 8 11 19 6 6 0 1 0 0 2 0 0 1 4 6 6 7 2
37 20 25 35 49 54 42 36 22 12 22 22 25 56 26 27 9 14 10 0 0 0 0 1 3 12 5 5 10 5 10 8 3 2 2 4 6 1 0 1 0 5 2 2 1 1 0
20 27 35 42 56 36 42 26 12 5 19 50 46 72 83 9 24 15 13 0 0 0 1 2 10 9 11 2 12 4 6 6 6 5 0 1 0 0 1 3 2 3 6 2 0 0 0
29 39 46 47 55 43 42 25 15 12 14 51 8 2 33 39 10 17 1 0 0 0 0 1 9 4 3 3 0 3 6 0 0 4 0 1 0 0 0 0 1 2 3 0 8 5 5
30 31 34 49 43 55 43 31 19 15 9 29 3 4 23 45 23 0 0 1 0 0 0 0 1 0 0 1 2 1 1 0 1 1 2 4 0 0 0 0 2 3 1 2 3 1 1
23 29 39 42 51 59 45 19 8 14 19 25 6 1 34 41 1 0 0 0 2 0 0 0 0 2 1 2 1 0 0 0 0 0 7 4 1 0 3 2 0 2 1 3 1 4 1
22 27 39 39 52 33 35 7 2 12 20 7 5 0 23 0 0 0 2 4 4 0 0 0 0 0 0 0 0 1 0 0 0 0 0 0 1 0 0 0 0 0 0 1 1 0 0
19 25 28 34 27 23 23 5 7 14 17 1 1 32 13 1 0 2 1 6 0 0 0 0 0 0 0 0 0 0 0 0 0 0 0 1 3 0 0 0 0 0 0 0 3 0 0
23 24 22 27 23 12 13 2 8 7 3 18 4 0 1 1 5 0 0 0 0 0 0 0 0 0 0 0 0 0 0 0 0 0 0 0 4 0 0 0 0 0 0 1 1 0 0
17 21 18 26 25 16 11 4 6 6 0 1 1 0 0 1 1 0 0 0 0 0 0 0 0 0 0 0 0 0 0 0 0 0 0 1 0 0 0 0 0 0 2 3 0 0 0
28 21 10 17 18 18 12 4 3 0 0 1 2 11 2 3 2 1 1 0 0 0 0 0 0 0 0 0 0 1 1 1 0 0 2 5 0 2 0 0 2 0 0 1 2 1 3
12 28 26 18 12 16 10 7 2 0 8 2 0 0 6 4 5 8 1 0 0 0 0 0 0 0 0 0 0 3 0 0 0 0 0 5 2 0 0 0 0 0 1 2 0 1 1
21 21 21 12 12 12 8 6 0 5 11 8 2 2 8 3 6 0 0 0 0 0 0 2 0 2 1 2 2 3 6 3 6 1 0 9 2 1 0 0 0 0 1 1 5 1 2
17 17 13 14 15 7 3 9 0 8 13 5 1 1 7 2 0 4 0 0 0 0 0 2 4 0 6 14 13 1 2 0 0 1 6 10 12 1 0 1 0 0 1 0 0 1 0
13 14 13 6 18 8 13 3 0 11 14 0 0 1 8 2 0 1 0 0 0 0 0 2 3 1 1 14 5 0 0 0 0 1 0 0 3 2 1 0 0 0 0 0 0 0 0
8 4 7 6 15 27 7 0 0 7 11 0 1 1 1 6 0 0 1 2 0 0 2 1 2 1 1 4 2 1 0 0 0 0 0 0 1 1 0 0 0 0 0 0 0 0 0
7 5 6 6 5 7 2 0 0 4 2 1 0 1 2 1 0 0 0 0 0 1 0 0 1 1 1 2 1 1 2 3 0 0 0 0 1 0 2 3 0 0 0 0 0 0 0
7 5 4 3 4 3 2 0 2 3 2 1 1 0 1 0 0 0 0 0 0 0 0 0 0 1 3 2 2 2 4 2 0 1 0 0 0 0 0 0 0 0 0 0 0 0 0

GFSGBSN_con_mlcape_033.txt.gz
CAPE
2 2 5 4 9 12 15 15 14 14 5 2 2 3 2 7 1 5 10 33 22 3 1 0 0 0 0 3 1 0 0 0 0 44 35 7 9 4 0 0 0 0 0 0 0 0 0
3 7 8 10 10 12 7 10 12 12 12 11 5 1 10 22 8 2 2 10 53 13 4 0 0 0 0 0 0 0 0 0 2 16 28 20 18 12 17 6 0 0 0 0 0 0 0
13 11 29 23 9 8 21 15 7 4 6 6 9 12 4 17 16 9 0 10 58 23 14 1 0 0 0 0 0 0 0 0 9 8 31 11 6 0 11 3 4 0 0 0 0 0 0
27 36 28 25 17 49 38 25 25 26 25 8 10 15 19 13 22 18 5 7 20 31 19 0 0 0 0 0 0 0 0 0 0 38 31 31 9 13 15 9 0 0 0 0 0 0 0
14 20 22 33 43 45 55 23 23 46 54 35 10 20 18 26 28 29 9 7 4 48 35 15 4 3 1 0 0 0 0 6 4 1 27 22 22 21 24 10 2 1 0 0 0 0 0
11 9 25 44 45 56 36 37 33 37 37 34 24 19 22 30 44 29 21 3 4 44 31 45 15 0 0 0 0 0 0 12 7 10 19 11 7 0 0 8 0 0 0 0 0 0 0
28 43 41 44 45 44 31 48 42 54 57 43 48 43 70 59 48 29 21 0 50 14 44 7 0 0 0 0 0 0 0 10 8 6 1 0 1 0 0 4 1 0 0 0 0 0 0
37 38 23 38 35 32 37 50 67 79 61 44 46 34 79 97 82 50 32 2 5 11 4 0 0 1 0 0 0 0 0 3 1 2 1 2 2 0 0 0 0 0 0 0 0 0 0
22 21 32 42 27 25 34 57 74 88 63 52 18 14 26 87 75 16 29 0 1 2 8 8 2 0 0 0 3 0 0 3 4 4 0 3 0 0 0 0 0 0 0 0 0 0 0
21 34 23 23 33 54 54 64 69 60 46 10 6 18 56 32 0 8 27 35 0 6 0 1 3 0 0 0 1 4 0 0 3 0 1 4 0 0 0 0 0 0 0 0 0 0 0
17 20 24 31 38 46 57 57 55 44 6 4 27 40 30 29 16 18 22 3 36 18 0 0 5 2 4 0 0 4 1 7 1 3 0 0 0 2 0 0 0 0 1 0 0 1 0
14 22 31 39 34 47 56 55 47 34 19 28 29 24 49 39 22 11 33 43 14 0 0 2 2 3 3 8 5 12 10 12 5 3 2 2 0 2 3 0 0 0 0 0 1 2 0
11 28 23 33 35 42 41 55 22 22 28 23 28 1 82 12 9 29 23 3 0 0 0 3 5 8 5 1 6 12 6 6 0 2 0 3 1 1 0 2 2 5 3 0 0 1 0
19 28 21 26 35 37 45 36 24 24 16 26 6 0 92 12 22 60 0 0 3 1 1 0 14 15 9 1 8 1 2 7 5 1 0 0 0 0 0 1 1 0 4 0 0 0 0
23 21 24 32 35 45 47 34 21 8 7 14 18 5 33 65 34 0 6 1 0 0 1 6 20 10 10 6 2 10 11 7 6 2 0 0 0 0 2 2 1 2 1 0 2 0 0
17 23 24 28 27 25 21 23 5 3 15 15 10 4 17 36 36 0 5 0 5 1 0 6 1 1 2 10 4 3 4 1 0 0 1 1 0 0 3 4 0 1 1 0 0 1 0
19 23 25 27 24 25 23 16 7 12 10 2 0 15 50 23 5 1 0 3 20 5 1 4 0 1 0 3 3 1 0 0 0 0 3 0 1 0 0 1 0 0 3 2 1 1 1
19 19 27 27 20 23 20 18 10 12 17 15 1 2 31 14 2 1 0 6 5 2 0 0 2 0 0 2 4 3 0 0 0 0 0 1 0 0 0 0 0 2 0 1 2 0 0
14 21 26 26 12 12 19 14 8 3 12 8 8 6 32 9 2 1 2 4 8 1 1 1 2 0 0 2 0 3 0 0 0 0 1 0 1 0 0 0 0 0 0 0 1 0 0
21 25 22 12 18 10 16 8 0 0 0 5 5 1 1 2 5 5 0 3 2 11 1 0 0 0 0 0 0 0 0 0 0 0 0 2 2 0 0 0 0 0 1 0 0 0 0
22 18 33 18 18 17 13 7 0 0 0 2 17 1 2 4 21 4 3 3 5 3 0 0 0 0 0 0 2 0 1 0 0 0 0 1 0 2 1 0 0 0 1 0 1 0 0
27 20 16 14 15 13 10 14 0 0 0 0 1 4 4 9 5 6 0 0 12 0 0 0 0 0 0 1 1 0 0 1 1 1 1 3 0 2 0 0 0 1 0 1 2 1 1
14 18 12 6 25 13 7 16 0 6 1 1 0 0 2 5 10 6 0 0 6 0 0 0 0 0 2 1 0 0 0 1 1 1 4 7 3 0 0 0 0 1 0 2 2 4 2
6 7 16 7 14 9 12 5 0 13 16 3 1 1 1 6 8 2 1 0 0 0 2 1 0 1 6 0 0 0 0 0 0 0 0 3 6 9 0 0 0 0 0 0 1 1 3
4 3 4 13 5 20 18 3 0 7 15 2 1 1 3 7 7 0 3 5 0 0 1 6 4 3 4 4 6 1 2 1 0 1 9 1 6 1 2 1 0 0 0 0 0 0 0
4 2 2 6 5 8 4 1 1 3 6 0 1 1 1 5 5 7 4 4 6 6 2 5 3 3 0 2 2 0 0 0 2 3 1 5 8 5 2 0 0 0 0 0 1 0 0
8 5 3 1 2 0 2 0 0 2 2 0 1 2 2 7 9 1 1 4 4 5 3 6 2 4 2 3 0 0 0 0 1 2 0 1 0 0 0 1 0 0 0 0 1 0 0
11 7 5 2 3 3 4 2 6 4 1 1 0 1 1 1 10 1 11 13 7 3 5 2 0 0 1 1 0 0 7 12 1 4 2 0 0 0 1 0 0 0 0 0 0 0 0
12 10 5 5 5 6 8 6 8 4 4 4 1 0 1 0 10 4 2 0 4 15 19 1 13 0 4 0 3 3 3 3 4 2 0 0 0 2 1 0 1 0 0 0 0 0 0

GFSGBSN_con_mlcape_036.txt.gz
CAPE
6 10 8 14 9 8 14 21 12 18 21 22 22 20 14 7 13 5 9 6 6 48 26 5 0 0 0 1 0 2 0 0 15 44 32 18 0 0 0 0 0 0 0 0 0 0 0
13 15 34 35 31 18 16 21 18 10 22 24 33 22 23 16 16 26 22 10 3 12 36 9 0 0 0 0 0 0 0 0 0 5 34 36 10 7 10 0 1 1 0 0 0 0 0
40 23 25 22 25 31 53 53 29 42 50 41 33 22 16 22 20 22 26 27 5 1 71 18 1 0 2 0 0 0 0 0 14 4 48 49 11 10 11 5 3 1 0 0 0 0 0
26 16 10 23 38 42 38 50 28 33 51 38 72 59 18 22 15 22 31 33 5 1 46 14 19 0 4 0 0 0 0 0 0 23 20 39 22 10 18 3 2 0 0 0 0 0 0
26 12 27 53 35 55 43 33 40 54 37 64 71 78 61 35 24 26 37 36 14 0 9 21 26 10 0 0 0 0 0 0 0 43 22 69 18 2 9 1 4 1 0 0 0 0 0
18 42 48 25 41 43 30 37 41 65 85 79 73 85 87 61 55 52 43 42 12 0 26 34 27 21 0 0 0 0 0 1 1 1 27 37 2 4 11 6 0 0 0 0 0 0 0
37 11 17 36 27 34 48 47 51 75 73 65 84 95 65 17 74 57 19 6 35 33 34 5 2 0 0 0 0 0 0 3 5 12 11 26 5 0 0 0 0 0 0 0 0 0 0
9 20 19 25 28 38 47 47 55 67 75 92 70 38 15 25 44 81 57 15 0 1 7 6 6 6 0 0 0 0 0 5 6 8 4 0 0 0 0 3 2 0 0 0 0 0 0
12 28 30 28 32 40 40 47 50 54 65 64 17 8 33 37 11 0 39 6 0 0 6 3 10 8 0 0 0 0 0 0 2 3 1 2 0 0 0 0 0 0 0 0 0 0 0
28 22 24 23 28 31 32 39 51 55 44 17 11 23 30 23 4 3 29 17 6 2 0 2 2 17 0 3 0 0 0 2 6 0 0 0 0 0 0 0 0 0 0 0 0 0 0
36 40 27 23 25 24 26 35 51 31 21 16 25 29 40 74 0 0 17 11 0 9 0 0 3 4 0 0 0 1 0 6 1 2 3 0 0 0 0 0 0 0 0 0 0 0 0
40 27 22 23 23 21 37 40 27 23 23 24 19 25 24 1 11 0 0 15 3 0 0 2 1 3 4 20 8 0 4 3 1 0 0 1 0 0 0 0 0 0 0 0 0 0 0
17 22 22 24 24 22 29 32 23 26 20 17 7 22 7 52 9 0 16 0 0 0 0 0 2 9 5 9 14 1 4 0 0 0 0 1 0 0 0 0 0 1 0 0 0 0 0
14 23 28 27 21 20 21 27 16 15 20 8 22 23 38 17 20 21 1 0 0 0 0 0 6 5 3 9 12 8 8 2 3 0 0 0 0 1 0 0 0 0 0 0 0 0 0
23 24 30 34 27 11 14 25 10 5 6 15 14 1 8 41 38 4 4 0 0 0 1 13 13 1 6 7 2 8 3 4 0 4 0 0 0 0 0 1 0 1 0 0 0 0 0
22 24 32 30 24 20 15 22 15 18 10 36 27 3 42 14 12 0 1 0 1 1 0 7 3 5 0 1 0 7 4 0 1 0 0 0 0 0 4 1 1 0 0 0 0 0 0
32 31 33 21 11 21 16 17 14 11 25 14 0 7 19 28 3 0 1 0 4 1 0 2 0 2 0 1 5 2 0 0 1 0 1 0 1 0 0 0 0 0 0 0 0 0 0
33 19 38 25 11 17 13 10 1 9 43 3 0 2 6 16 0 0 2 0 3 2 3 5 1 0 2 2 5 0 0 0 0 0 0 0 0 0 0 0 0 0 0 0 1 0 0
30 37 45 20 5 13 10 4 0 6 28 18 3 4 11 8 0 1 0 0 4 4 11 6 0 1 0 0 0 2 0 0 0 0 0 0 0 0 0 0 0 0 0 0 0 0 0
31 27 43 18 16 12 4 4 0 0 0 19 1 0 0 0 1 0 0 3 1 0 6 3 0 1 0 0 2 0 0 0 0 0 0 0 0 0 0 0 0 0 0 0 0 0 0
24 19 25 28 27 11 7 1 0 0 0 10 8 0 1 1 8 1 2 3 0 13 0 2 5 4 3 0 0 0 0 0 0 0 0 0 0 0 0 0 0 0 0 0 0 0 1
19 18 15 25 20 7 10 0 0 0 0 0 0 1 7 0 4 7 0 1 18 8 3 6 0 0 0 1 0 1 0 0 0 0 0 0 0 0 0 0 0 0 0 0 0 2 3
16 12 10 7 23 23 22 0 0 0 0 1 0 0 1 1 1 2 8 0 4 2 0 0 0 0 1 0 0 0 0 0 0 0 0 3 0 0 0 0 0 0 0 0 0 1 2
17 12 10 6 10 21 14 5 1 3 6 3 0 2 0 2 2 0 3 2 1 0 0 0 0 2 1 0 0 0 0 0 0 0 0 0 2 3 0 0 0 0 0 0 0 0 0
12 12 16 9 3 5 5 4 2 2 5 1 0 1 1 2 1 3 4 6 2 9 2 1 3 2 0 0 0 0 0 0 0 0 0 0 5 0 0 1 0 0 0 0 0 0 0
17 7 18 13 6 5 7 4 2 5 1 0 1 1 1 1 2 5 0 2 0 0 0 2 1 1 0 0 0 0 0 1 0 0 2 4 5 2 0 0 0 0 0 0 0 0 0
27 9 13 14 8 6 10 10 6 5 0 0 1 0 2 0 10 3 1 0 3 2 0 4 1 0 3 1 0 0 0 1 0 1 0 1 3 0 0 0 0 0 0 0 0 0 0
20 7 15 17 9 9 13 13 10 6 1 2 0 0 1 0 2 12 8 3 2 5 6 0 0 1 0 1 0 0 0 5 2 0 0 0 0 0 0 0 0 0 0 0 0 0 0
18 9 15 20 8 11 14 10 15 8 3 2 1 0 0 1 1 3 3 2 2 4 14 0 6 0 3 0 0 1 2 3 0 0 0 0 0 0 0 0 0 0 0 0 0 0 0

GFSGBSN_con_mlcape_039.txt.gz
CAPE
10 43 18 26 16 17 32 35 40 34 35 27 29 38 26 37 20 24 18 5 11 16 10 66 10 1 0 0 0 0 12 79 68 17 0 0 0 0 2 0 0 0 0 0 0 0 0
49 23 23 21 23 24 42 40 42 21 30 50 53 37 41 36 37 25 24 28 13 16 2 16 12 10 0 0 0 0 0 14 26 34 9 23 0 0 0 0 0 0 0 0 0 0 0
19 23 9 33 42 25 31 30 30 47 57 68 47 31 71 51 28 26 20 26 29 26 2 7 19 2 3 0 0 0 0 0 0 0 16 23 31 0 3 0 0 0 0 0 0 0 0
14 18 55 38 14 11 25 40 46 56 65 57 64 84 110 85 68 50 30 16 27 10 2 0 35 1 0 0 0 0 0 0 0 2 6 50 21 3 12 0 0 0 0 0 0 0 0
10 31 19 13 17 28 41 48 57 65 54 66 100 115 123 117 74 83 52 33 30 6 5 0 14 1 0 0 0 0 0 0 0 30 41 42 10 7 12 5 3 1 0 0 0 0 0
43 23 11 16 23 38 39 36 39 40 54 70 75 89 51 98 60 58 90 31 23 19 0 5 7 2 0 0 0 0 0 0 0 44 44 19 5 2 0 1 0 0 0 0 0 0 0
21 23 27 25 31 40 35 28 34 53 53 59 77 85 36 11 30 63 42 0 5 3 2 2 7 0 0 0 0 0 0 0 0 24 5 27 1 0 0 0 0 0 0 0 0 0 0
23 36 9 30 33 40 30 33 39 45 56 55 53 18 8 26 45 53 9 0 14 0 3 5 2 0 0 0 0 0 0 1 4 0 0 7 2 2 1 1 1 0 0 0 0 0 0
19 36 26 29 36 41 36 31 32 40 40 25 14 16 23 38 32 0 0 0 4 0 1 20 10 1 0 0 0 0 0 2 0 6 1 0 0 0 0 0 1 0 0 0 0 0 0
37 9 14 28 33 26 27 29 29 22 21 21 17 24 33 38 1 0 6 20 1 0 0 1 5 3 1 0 0 0 3 0 2 1 0 0 0 0 0 0 0 0 0 0 0 0 0
21 14 20 31 30 18 23 29 26 20 15 22 11 26 24 45 20 1 3 17 0 0 0 1 6 3 10 0 0 2 0 8 0 0 0 0 0 0 0 0 0 0 0 0 0 0 0
17 24 22 33 34 24 25 24 24 19 12 7 0 9 42 14 29 5 1 11 0 0 0 1 1 13 17 9 1 1 3 1 0 4 1 0 0 0 0 0 0 0 0 0 0 0 0
11 17 21 30 33 27 28 23 33 20 9 5 16 31 42 33 10 1 0 1 0 0 0 0 2 3 3 23 1 0 2 1 0 0 1 4 0 0 0 0 0 0 0 0 0 0 0
12 7 15 30 27 25 29 26 21 9 25 25 26 62 3 44 20 5 0 0 0 0 0 3 1 11 15 6 4 4 2 0 0 0 0 0 0 0 0 0 0 0 0 0 0 0 0
17 17 17 32 5 21 21 32 18 8 1 11 52 1 5 17 2 2 4 0 0 0 1 2 1 0 3 5 3 7 8 0 0 0 0 0 0 0 0 0 0 0 0 0 0 0 0
17 22 13 28 6 16 18 24 16 8 30 0 0 5 11 22 14 0 0 0 0 2 2 0 0 0 0 5 1 2 3 0 1 0 0 0 0 1 2 0 0 0 0 0 0 0 0
14 21 27 35 4 16 17 18 1 19 44 1 0 2 6 41 0 0 0 6 0 5 2 1 0 0 0 3 1 3 0 0 0 0 0 0 0 0 0 0 0 0 1 0 0 0 0
16 20 21 24 1 23 8 12 1 6 14 0 0 0 4 0 0 0 11 6 1 2 0 1 0 0 0 2 1 0 0 0 0 0 0 0 0 0 0 0 0 0 0 0 0 0 0
15 14 15 31 16 11 5 5 0 5 7 0 0 0 0 0 1 1 5 0 2 4 17 9 1 0 0 0 0 0 0 0 0 0 0 0 0 0 0 0 0 0 0 0 0 0 0
5 11 13 14 5 6 11 2 0 0 0 0 0 0 0 0 0 0 0 0 0 9 9 0 0 0 3 3 0 0 0 0 0 0 1 0 0 0 0 0 0 0 0 0 0 0 0
14 11 9 14 20 17 16 2 0 0 0 0 0 0 0 0 0 0 1 0 8 7 6 8 5 1 2 0 0 0 0 0 0 0 0 0 0 0 0 0 0 0 0 0 0 0 0
12 13 10 11 13 0 10 2 0 0 0 0 0 0 0 0 1 0 0 0 4 0 0 0 0 0 0 0 0 0 0 0 0 0 0 0 0 0 0 0 0 0 0 0 0 0 0
6 15 10 16 9 4 1 1 2 0 0 1 0 0 1 0 0 0 0 2 1 0 0 0 1 0 0 0 0 0 0 0 0 0 0 0 0 0 0 0 0 0 0 0 0 0 0
6 22 11 5 11 8 2 3 1 3 1 1 0 1 0 0 0 0 0 1 0 0 0 0 0 0 0 0 0 0 0 0 0 0 0 0 0 0 0 0 0 0 0 0 0 0 0
4 21 14 5 13 11 5 5 2 7 3 0 1 1 1 0 0 0 2 0 1 0 0 0 0 0 0 0 0 0 0 0 0 0 0 1 0 0 0 0 0 0 0 0 0 0 0
7 23 6 5 13 12 9 11 4 4 3 0 0 2 1 1 0 13 0 6 0 1 0 1 1 0 0 0 0 0 0 0 0 0 1 1 1 1 0 1 0 0 0 0 0 0 0
12 21 4 13 16 14 18 6 6 4 5 2 0 1 2 0 8 14 0 0 12 8 0 0 1 1 0 0 0 0 0 0 0 0 0 1 1 0 0 0 0 0 0 0 0 0 0
7 24 5 12 17 14 19 10 10 4 4 3 0 0 1 0 0 22 22 8 5 2 4 0 0 0 0 1 0 0 0 0 2 0 0 0 0 0 1 0 0 0 0 0 0 0 0
3 15 5 20 18 15 10 7 8 6 4 5 1 0 0 1 0 0 4 3 11 13 2 0 3 0 2 0 0 0 1 0 0 0 0 0 0 0 0 0 0 0 0 0 0 0 0

GFSGBSN_con_mlcape_042.txt.gz
CAPE
18 10 16 12 21 47 18 8 17 28 44 52 73 76 68 33 37 24 34 20 13 6 0 4 2 17 3 0 0 0 0 1 21 39 0 0 1 0 0 0 0 0 0 0 0 0 0
22 18 24 23 6 5 18 23 35 46 61 66 62 54 71 94 83 63 40 42 14 18 5 1 1 28 0 0 0 0 0 117 53 30 2 1 2 0 0 0 0 0 0 0 0 0 0
6 21 29 7 17 25 27 31 34 41 46 51 58 72 82 91 95 100 76 34 31 18 19 0 0 13 2 0 0 0 9 70 51 30 0 2 22 5 0 0 0 0 0 0 0 0 0
6 39 16 13 15 22 26 34 26 32 37 46 65 99 114 118 118 111 96 44 9 4 11 0 2 38 0 0 0 0 0 0 0 0 35 36 25 4 0 0 0 0 0 0 0 0 0
38 8 27 16 18 22 25 36 35 42 40 51 56 89 95 83 103 88 88 86 46 22 15 6 3 12 0 0 0 0 0 0 0 0 11 61 43 16 4 0 0 0 0 0 0 0 0
10 15 34 25 21 30 35 34 36 31 40 43 51 56 58 44 28 42 62 33 1 24 8 9 0 1 0 0 0 0 0 0 0 91 22 55 24 3 19 5 0 0 0 0 0 0 0
8 24 16 27 25 28 28 37 33 33 28 36 32 30 25 17 28 48 18 0 0 0 0 10 1 0 0 0 0 0 0 0 2 36 7 22 5 2 3 0 0 0 0 0 0 0 0
17 28 8 20 29 30 27 33 34 19 20 21 17 22 16 27 37 55 5 0 0 2 0 0 2 0 0 0 0 0 0 0 3 14 15 14 7 0 0 0 2 1 1 0 0 0 0
10 9 13 24 26 28 24 30 34 25 30 20 32 28 29 44 26 1 0 0 5 1 3 0 10 2 0 0 0 0 0 1 0 0 0 2 0 0 1 1 5 1 0 0 0 0 0
18 6 26 22 37 28 27 27 29 23 24 13 16 15 19 50 24 0 2 2 3 5 0 1 5 2 2 0 0 0 8 1 14 1 2 1 0 0 0 0 0 0 0 0 0 0 0
18 3 22 24 32 25 31 35 25 33 19 8 8 2 29 57 38 3 13 8 1 0 0 1 3 5 11 0 0 4 0 5 0 1 0 0 0 0 0 0 0 0 0 0 0 0 0
10 4 15 25 25 11 34 29 29 17 21 29 29 47 56 48 5 6 10 14 0 0 0 5 3 8 6 1 0 4 11 0 0 2 0 0 0 0 0 0 0 0 0 0 0 0 0
9 12 5 27 23 12 27 24 21 20 21 21 39 64 106 28 12 22 0 7 0 0 0 0 1 11 1 4 0 14 5 0 0 1 0 0 0 0 0 0 0 0 0 0 0 0 0
9 16 19 34 8 15 19 18 17 4 54 13 25 44 10 22 8 0 1 0 0 0 0 1 1 4 2 6 11 15 2 0 0 0 0 0 0 0 0 0 0 0 0 0 0 0 0
9 14 20 28 3 24 14 17 4 30 59 0 0 4 0 0 2 0 6 0 0 0 1 5 8 4 1 7 3 5 0 0 0 0 0 0 0 0 0 0 0 0 0 0 0 0 0
13 19 13 19 8 22 4 16 2 6 20 1 0 2 4 20 0 0 0 1 0 0 1 0 0 0 0 2 2 1 1 0 0 0 0 0 0 0 0 0 0 0 0 0 0 0 0
14 9 7 12 9 1 2 15 1 4 0 0 0 1 1 1 0 0 0 1 0 2 2 0 0 0 0 0 0 0 0 0 0 0 0 0 0 0 0 0 0 0 0 0 0 0 0
15 7 8 2 5 10 5 13 0 2 0 0 0 0 0 0 0 0 2 0 2 0 0 0 0 0 0 0 0 0 0 0 0 0 0 0 0 0 0 0 0 0 0 0 0 0 0
11 6 5 1 4 9 3 6 2 0 2 2 0 0 0 0 0 0 1 1 1 3 2 0 0 0 0 0 0 0 0 0 0 0 0 0 0 0 0 0 0 0 0 0 0 0 0
13 12 6 3 1 1 0 1 1 0 0 0 0 0 0 0 0 0 0 0 2 5 0 0 0 0 0 0 0 0 0 0 0 0 1 0 0 0 0 0 0 0 0 0 0 0 0
10 12 6 6 2 0 0 0 2 0 0 0 0 0 0 0 0 1 0 0 8 14 1 0 0 0 4 3 0 0 0 0 0 0 0 0 0 0 0 0 0 0 0 0 0 0 0
10 18 8 8 3 1 0 0 0 3 0 0 0 0 1 0 1 0 0 0 0 1 0 0 0 0 0 0 0 0 0 0 0 0 0 0 0 0 0 0 0 0 0 0 0 0 0
5 21 8 13 11 2 1 1 1 8 0 0 0 0 1 0 0 0 0 0 0 0 0 0 0 0 0 0 0 0 0 0 0 0 0 0 0 0 0 0 0 0 0 0 0 0 0
3 14 16 9 16 5 2 1 2 5 8 0 0 1 1 0 0 0 0 0 0 0 0 0 0 0 0 0 0 0 0 0 0 0 0 0 0 0 0 0 0 0 0 0 0 0 0
1 10 13 7 18 5 3 2 3 2 8 1 0 1 2 0 0 0 0 0 0 0 0 0 0 0 0 1 0 0 0 0 0 0 0 0 0 0 0 0 0 0 0 0 0 0 0
2 5 29 5 20 10 2 3 2 4 7 0 0 2 1 0 0 0 0 0 0 0 0 0 0 0 0 0 0 0 0 0 0 0 2 0 7 2 0 0 0 0 0 0 0 0 0
6 4 35 5 20 18 8 4 5 5 4 1 0 0 2 0 6 2 0 0 6 8 0 2 1 0 0 0 0 0 0 0 0 0 1 5 4 0 0 0 0 0 0 0 0 0 0
9 6 33 4 16 18 11 9 4 3 4 3 2 1 2 0 0 6 2 1 6 8 0 0 0 0 0 0 0 0 0 0 0 0 1 1 0 0 0 0 0 0 0 0 0 0 0
13 9 25 7 13 25 12 25 22 15 4 3 0 0 1 1 0 0 0 3 8 13 5 0 5 0 1 0 0 0 1 0 0 0 0 0 0 0 0 0 0 0 0 0 0 0 0

GFSGBSN_con_mlcape_045.txt.gz
CAPE
10 14 17 21 10 12 27 24 34 35 30 30 31 41 54 101 68 83 86 87 55 15 7 3 0 4 20 0 0 0 4 127 11 57 23 3 0 0 0 0 0 0 0 0 0 0 0
14 18 40 12 12 9 28 27 36 35 30 28 34 37 55 81 74 79 129 99 58 23 20 9 6 4 3 0 0 0 0 105 104 40 8 13 0 0 0 0 0 0 0 0 0 0 0
19 45 11 14 7 36 25 32 28 32 31 44 39 42 63 90 98 112 144 119 70 46 42 3 3 4 4 0 0 0 62 147 165 90 4 11 1 7 0 0 0 0 0 0 0 0 0
27 21 17 21 32 24 30 25 29 34 27 31 31 33 40 57 84 117 137 144 104 57 37 11 15 12 5 0 0 0 0 57 90 71 45 46 26 13 0 0 0 0 0 0 0 0 0
28 24 27 17 29 25 35 36 28 39 33 34 32 28 23 24 61 50 79 118 108 93 51 33 9 4 0 0 0 0 0 1 17 30 69 36 49 26 7 7 0 0 0 0 0 0 0
17 22 26 20 23 20 30 30 43 46 44 34 28 21 16 8 19 36 98 100 47 75 47 30 9 13 0 0 0 0 0 0 0 1 33 83 45 7 9 12 0 0 0 0 0 0 0
28 12 15 33 23 29 34 31 30 41 48 41 25 25 21 4 18 70 34 0 0 0 1 0 0 1 0 0 0 0 0 0 54 69 39 35 21 4 0 0 0 0 0 0 0 0 0
28 25 16 40 25 28 29 38 42 51 41 43 27 13 17 12 39 78 16 8 0 3 0 0 0 1 1 0 0 0 0 0 30 36 14 23 11 1 0 6 2 0 0 0 0 0 0
16 12 12 18 19 26 25 38 47 26 33 24 11 12 9 17 48 1 0 0 0 4 0 0 0 3 3 0 1 0 0 3 23 43 10 3 2 0 1 1 1 1 0 0 0 0 0
13 4 9 17 25 22 11 33 29 25 18 25 26 47 21 26 6 4 0 6 0 4 0 0 0 3 0 0 2 0 0 28 19 1 2 0 0 0 2 0 0 0 0 0 0 0 0
8 14 6 8 37 7 28 33 23 24 40 47 67 49 43 48 7 12 2 11 3 1 0 0 3 8 20 0 0 0 0 1 0 0 0 0 0 0 0 0 0 0 0 0 0 0 0
7 10 15 32 35 3 33 26 18 31 73 21 91 72 18 24 12 8 12 15 0 0 0 0 2 4 0 3 5 2 6 0 0 0 0 0 0 0 0 0 0 0 0 0 0 0 0
7 4 16 28 19 13 28 15 13 35 47 14 25 19 2 20 1 18 15 2 0 0 0 0 0 2 1 13 13 13 4 13 4 3 0 0 0 0 0 0 0 0 0 0 0 0 0
5 12 8 12 23 13 9 12 1 17 42 0 4 0 2 0 5 1 0 0 0 0 0 3 2 2 4 9 19 5 0 3 0 0 0 0 0 0 0 0 0 0 0 0 0 0 0
3 12 2 9 8 6 12 6 1 8 6 4 0 0 2 5 0 0 0 0 0 0 0 4 6 1 0 2 1 8 11 2 0 0 0 0 0 0 0 0 0 0 0 0 0 0 0
10 5 3 5 7 13 6 6 4 3 1 4 0 0 0 0 0 0 0 0 0 0 1 0 0 0 0 0 0 2 1 1 0 0 0 0 0 0 0 0 0 0 0 0 0 0 0
3 11 2 3 5 3 5 3 1 1 1 0 0 0 0 0 0 0 0 0 1 0 1 0 0 0 0 0 0 2 0 0 0 0 0 0 0 0 0 1 0 0 0 0 0 0 0
3 5 4 4 5 2 0 0 0 0 2 0 0 0 0 0 0 0 1 0 1 0 0 0 0 0 0 0 0 0 0 0 0 0 0 0 0 0 0 0 0 0 0 0 0 0 0
4 4 1 3 9 5 0 0 0 0 2 0 0 0 0 0 0 0 0 0 0 0 0 0 0 0 0 0 0 0 0 0 0 0 0 0 0 0 0 0 0 0 0 0 0 0 0
4 4 6 0 5 5 1 0 0 0 0 0 0 0 0 0 0 0 0 0 1 0 0 0 0 0 0 0 0 0 0 0 0 0 0 0 0 0 0 0 0 0 0 0 0 0 0
4 0 15 1 2 5 3 1 0 0 0 0 0 0 0 0 0 0 0 0 3 0 0 0 0 0 0 0 0 0 0 0 0 3 0 0 0 0 0 0 0 0 0 0 0 0 0
1 0 10 4 8 1 3 2 1 0 0 0 0 1 0 0 0 0 0 0 0 0 0 0 0 1 1 0 0 0 0 0 0 0 0 0 0 0 0 0 0 0 0 0 0 0 0
0 0 3 4 8 7 0 4 2 1 0 0 0 0 0 0 0 0 0 0 0 0 1 0 0 0 0 0 0 0 0 0 0 0 0 0 0 0 0 0 0 0 0 0 0 0 0
2 1 1 3 7 12 3 1 5 1 4 0 0 1 0 0 0 0 0 0 0 0 0 0 0 0 0 0 0 0 0 0 0 0 0 0 0 0 0 0 0 0 0 0 0 0 0
2 3 1 17 0 18 11 4 4 3 2 0 0 1 1 0 0 0 0 0 0 0 0 0 0 0 0 0 0 0 0 0 0 0 0 0 0 0 0 0 0 0 0 0 0 0 0
1 7 0 17 1 9 16 3 4 5 3 0 0 1 2 1 0 0 0 0 0 0 0 0 0 0 0 0 0 0 0 0 0 0 0 0 0 1 0 0 0 0 0 0 0 0 0
3 5 0 15 0 3 14 10 4 3 1 0 0 1 1 1 0 0 0 0 0 0 0 3 1 0 0 0 0 0 0 0 0 0 1 2 5 0 1 0 0 0 0 0 0 0 0
0 4 0 8 3 0 26 12 3 5 4 0 2 4 1 1 0 0 0 0 0 1 0 0 0 0 0 0 0 0 0 0 0 0 0 0 0 0 0 0 0 0 0 0 0 0 0
0 3 0 10 10 2 28 24 34 37 20 5 1 5 2 1 0 0 0 0 0 1 8 0 2 0 0 1 0 0 0 0 0 0 0 0 0 0 0 0 0 0 0 0 0 0 0

GFSGBSN_con_mlcape_048.txt.gz
CAPE
16 18 37 17 29 18 34 27 28 36 34 28 34 39 38 38 43 47 73 81 126 120 73 27 13 5 3 1 0 0 0 73 0 6 11 25 7 2 0 0 0 0 0 0 0 0 0
20 21 17 22 32 35 27 26 22 41 45 27 24 42 39 36 37 54 104 126 150 155 125 67 33 5 5 0 0 0 0 52 11 138 38 27 10 1 0 0 0 0 0 0 0 0 0
16 21 21 13 28 27 31 34 35 43 42 41 34 42 46 28 28 37 107 128 133 169 134 73 42 28 5 0 0 0 0 121 77 194 89 19 6 1 0 0 0 0 0 0 0 0 0
26 10 23 15 22 24 29 40 48 45 39 45 48 54 42 45 31 33 83 101 140 150 138 87 37 29 3 0 0 0 0 60 191 185 120 39 7 17 0 0 0 0 0 0 0 0 0
12 18 13 22 35 31 36 42 41 43 34 46 66 57 38 27 20 33 76 151 170 176 169 113 21 1 23 11 0 1 0 53 131 83 80 14 54 27 11 0 0 0 0 0 0 0 0
9 16 13 16 16 27 32 24 39 33 43 52 57 59 36 19 24 41 108 83 44 62 92 73 12 5 4 0 0 0 0 1 35 69 77 60 23 13 12 7 0 0 0 0 0 0 0
14 9 5 11 18 26 28 14 27 34 36 28 14 16 9 13 36 96 45 0 0 0 0 0 5 0 7 0 0 0 0 0 63 33 44 26 13 2 2 2 0 0 0 0 0 0 0
7 7 6 14 33 26 7 13 23 17 15 27 37 27 29 10 46 116 5 0 0 2 0 0 0 0 0 18 0 2 0 1 46 18 10 4 8 4 0 0 0 0 0 0 0 0 0
10 4 9 14 13 29 3 28 25 15 33 57 118 121 72 62 16 4 0 0 0 2 3 16 1 7 15 7 7 0 0 7 30 52 24 10 3 2 8 6 10 10 0 0 0 0 0
7 3 15 24 27 6 11 20 14 33 55 86 42 69 107 53 2 5 0 1 0 11 0 0 0 6 1 6 1 0 0 48 40 21 21 2 14 4 2 3 7 0 0 0 0 0 0
4 6 18 23 18 8 21 9 32 17 35 9 26 33 33 8 6 6 6 8 9 2 0 0 0 17 7 4 0 1 0 5 37 11 0 0 6 1 4 1 0 0 0 0 0 0 0
5 4 16 10 19 8 11 16 17 18 24 7 3 13 6 0 0 9 8 1 0 0 0 0 8 2 1 2 9 8 16 0 0 0 0 0 0 0 0 0 0 0 0 0 0 0 0
2 5 15 9 10 13 11 12 9 8 10 22 1 1 7 1 1 11 3 0 0 0 0 0 0 2 5 10 14 23 8 11 0 0 0 0 0 0 0 0 0 0 0 0 0 0 0
1 6 10 9 9 7 6 5 2 2 0 0 0 0 1 2 9 0 0 0 0 0 0 0 1 3 6 14 17 2 0 6 0 0 0 0 0 0 0 0 0 0 0 0 0 0 0
1 5 7 6 5 4 5 4 7 0 2 0 0 0 1 5 1 0 0 0 0 0 0 0 1 0 2 19 6 2 0 1 0 0 0 0 0 0 0 0 0 0 0 0 0 0 0
2 7 7 6 3 2 3 4 1 3 0 0 0 0 0 0 0 0 0 0 0 0 1 0 0 0 0 1 1 0 0 0 0 0 0 0 0 0 0 0 0 0 0 0 0 0 0
2 6 10 6 5 3 2 4 0 1 0 0 0 0 0 0 0 0 0 0 0 0 0 0 0 0 0 0 0 0 0 0 0 0 0 0 0 0 0 0 0 0 0 0 0 0 0
3 6 11 6 7 4 1 2 1 3 0 0 0 0 0 0 0 0 0 1 1 0 0 0 0 0 0 0 0 0 0 0 0 0 0 0 0 0 0 0 0 0 0 0 0 0 0
3 3 6 9 7 5 2 1 1 1 3 2 0 0 0 0 0 0 0 0 0 0 0 0 0 0 0 0 0 0 0 0 0 0 0 0 0 0 0 0 0 0 0 0 0 0 0
2 3 7 11 3 5 2 0 0 0 0 0 0 0 0 0 0 0 0 1 0 0 0 0 0 0 0 0 0 0 0 0 0 0 0 0 0 0 0 0 0 0 0 0 0 0 0
3 3 3 20 4 6 2 0 0 0 0 0 0 0 0 0 0 0 0 1 0 0 0 0 0 0 0 0 0 0 0 0 0 0 0 0 0 0 0 0 0 0 0 0 0 0 0
3 3 3 12 8 5 4 0 0 0 0 0 0 0 0 0 0 0 0 2 0 0 0 0 0 0 0 0 0 0 0 0 0 0 0 0 0 0 0 0 0 0 0 0 0 0 0
3 5 6 16 6 2 5 0 0 0 0 0 0 0 0 0 0 0 0 0 0 0 2 0 0 0 0 0 0 0 0 0 0 0 0 0 0 0 0 0 0 0 0 0 0 0 0
2 3 7 14 13 0 7 5 0 2 1 0 0 1 0 0 0 0 0 0 0 0 0 1 0 0 0 0 0 0 0 0 0 0 0 0 0 0 0 0 0 0 0 0 0 0 0
1 5 5 6 34 0 9 13 3 2 4 0 0 1 1 1 0 0 0 0 0 0 0 0 0 0 0 0 0 0 0 0 0 0 0 0 0 0 0 0 0 0 0 0 0 0 0
7 6 3 1 26 3 1 13 8 6 3 0 0 0 2 2 0 0 0 0 0 0 0 0 0 0 0 0 0 0 0 0 0 0 0 0 0 0 0 0 0 0 0 0 0 0 0
14 6 2 4 16 25 3 21 7 5 9 0 0 1 1 2 0 0 0 0 0 0 0 0 0 0 0 0 0 0 0 0 0 0 0 2 0 0 0 0 0 0 0 0 0 0 0
19 2 15 10 3 24 5 20 13 14 21 4 1 10 2 1 0 0 1 0 0 0 1 0 0 0 0 0 0 0 0 0 0 0 0 0 0 0 0 0 0 0 0 0 0 0 0
4 2 24 13 7 31 2 9 19 21 16 16 0 7 7 1 1 0 0 0 0 0 5 1 6 0 0 0 0 0 1 0 0 1 0 0 0 0 0 0 0 0 0 0 0 0 0

GFSGBSN_con_mlcape_051.txt.gz
CAPE
11 9 18 13 28 11 12 23 21 34 33 31 38 45 44 50 54 39 47 43 63 93 145 119 100 43 31 10 5 0 0 0 8 0 6 18 1 15 4 0 0 0 0 0 0 0 0
9 21 18 14 17 13 24 27 30 39 42 45 51 49 46 66 69 36 41 70 124 172 195 190 123 50 25 0 1 0 0 0 3 2 61 12 0 0 4 0 0 0 0 0 0 0 0
12 13 20 9 15 15 26 22 28 28 37 35 49 73 72 73 74 76 60 91 111 175 212 225 140 39 14 0 0 0 0 6 28 5 94 64 1 2 0 0 0 0 0 0 0 0 0
6 12 18 13 16 20 27 29 21 21 35 38 51 86 124 88 67 50 76 104 149 125 223 209 154 40 7 6 9 1 0 15 52 143 218 139 10 5 0 0 0 0 0 0 0 0 0
7 8 8 8 12 35 38 22 11 16 37 33 25 26 41 72 23 78 59 160 209 222 273 234 65 9 10 75 0 4 0 1 140 150 138 102 70 39 8 0 0 0 0 0 0 0 0
3 14 2 15 15 30 45 7 16 25 23 21 31 51 26 11 10 42 125 154 79 34 131 176 46 15 5 14 9 1 0 1 70 75 62 69 39 1 15 0 0 0 0 0 0 0 0
4 12 5 18 20 46 15 4 30 16 31 45 89 81 72 25 3 63 47 0 0 0 8 0 0 0 17 36 32 6 0 44 80 34 5 41 2 0 0 1 0 0 0 0 0 0 0
8 7 11 9 17 39 5 24 11 32 21 25 30 57 82 81 31 59 2 0 0 0 0 0 0 0 0 0 34 7 0 30 47 35 1 26 4 1 0 4 0 0 0 0 0 0 0
2 10 5 17 11 13 14 9 43 16 12 26 29 45 81 77 41 0 0 0 0 2 1 0 16 2 0 8 2 0 0 1 30 3 2 3 6 12 0 10 2 0 0 0 0 0 0
8 8 13 11 11 7 12 30 17 13 6 23 12 11 32 17 0 1 0 13 0 7 0 0 4 6 9 13 2 0 6 13 13 7 0 3 0 10 5 2 3 0 0 0 0 0 0
8 6 15 13 7 10 12 13 13 9 8 24 7 6 13 8 16 3 0 13 11 0 0 0 0 10 5 7 0 0 0 7 13 0 0 0 8 7 3 0 1 0 0 0 0 0 0
7 3 10 10 9 8 4 3 4 4 7 20 3 0 1 0 1 0 0 0 0 0 0 0 2 1 3 3 12 9 9 0 0 5 0 0 0 0 0 0 1 0 0 0 0 0 0
7 1 7 3 11 7 3 3 4 0 1 4 0 0 0 0 3 3 0 0 0 0 0 2 0 0 4 8 8 6 2 0 2 1 0 1 0 0 0 0 0 0 0 0 0 0 0
3 4 7 4 7 6 3 4 2 1 0 3 0 0 0 0 0 0 0 0 0 0 0 1 0 5 2 2 12 8 1 0 0 0 0 0 0 0 0 0 0 0 0 0 0 0 0
3 1 7 7 1 6 2 2 3 2 1 3 0 0 0 0 0 0 0 0 0 0 2 0 2 1 1 5 1 0 0 0 0 0 0 0 0 0 0 0 0 0 0 0 0 0 0
2 3 4 5 3 5 2 1 1 2 0 1 0 0 0 0 0 0 0 0 0 1 0 1 0 0 0 1 0 0 0 0 0 0 0 0 0 0 0 0 0 0 0 0 0 0 0
3 3 6 5 10 2 4 0 1 1 2 0 0 0 0 0 0 0 0 0 0 0 0 0 0 0 0 0 0 0 0 0 0 0 0 0 0 0 0 0 0 0 0 0 0 0 0
3 3 4 20 8 7 3 1 1 0 4 0 0 0 0 0 0 0 0 0 0 0 0 0 0 0 0 0 0 0 0 0 0 0 0 0 0 0 0 0 0 0 0 0 0 0 0
1 4 6 8 8 2 4 1 0 0 2 1 0 0 0 0 0 0 0 1 0 0 0 0 0 0 0 0 0 0 0 0 0 0 0 0 0 0 0 0 0 0 0 0 0 0 0
1 4 6 5 14 5 7 3 0 0 0 0 0 0 0 0 0 0 0 1 0 0 0 0 0 0 0 0 0 0 0 0 0 0 0 0 0 0 0 0 0 0 0 0 0 0 0
1 3 5 4 19 11 7 3 0 0 0 0 0 0 1 0 0 0 0 0 0 0 0 0 0 0 0 0 0 0 0 0 0 0 0 0 0 0 0 0 0 0 0 0 0 0 0
3 3 3 1 23 5 6 0 2 0 0 0 0 1 0 0 0 0 0 0 0 0 0 0 0 0 0 0 0 0 0 0 0 0 0 0 0 0 0 0 0 0 0 0 0 0 0
1 1 2 3 20 8 4 5 0 1 0 0 0 0 1 0 0 0 0 0 1 0 0 0 0 0 0 0 0 0 0 0 0 0 0 0 0 0 0 0 0 0 0 0 0 0 0
4 2 4 4 6 26 4 8 0 0 0 0 0 1 1 0 0 0 0 0 0 0 5 0 0 0 0 0 0 0 0 0 0 0 0 0 0 0 0 0 0 0 0 0 0 0 0
11 8 7 6 4 22 11 12 1 0 0 0 0 1 2 2 0 0 0 0 0 0 0 0 0 0 0 0 0 0 0 0 0 0 0 0 0 0 0 0 0 0 0 0 0 0 0
15 16 6 3 23 12 26 6 17 3 1 0 0 0 2 3 0 0 0 0 0 0 0 0 0 0 0 0 0 0 0 0 0 0 0 0 0 0 0 0 0 0 0 0 0 0 0
12 19 13 6 29 12 22 16 2 2 3 1 0 0 1 2 0 3 1 0 0 0 0 0 0 0 0 0 0 0 0 0 0 0 0 1 2 0 0 0 0 0 0 0 0 0 0
11 20 14 16 36 13 18 7 1 1 5 7 0 0 5 0 0 1 2 2 0 0 0 0 0 0 0 0 0 0 0 0 2 0 0 0 0 0 0 0 0 0 0 0 0 0 0
7 11 18 24 28 26 34 10 2 11 14 16 0 0 11 0 0 1 0 0 0 0 1 0 1 0 0 0 0 0 1 1 4 0 0 0 0 0 0 0 0 0 0 0 0 0 0

GFSGBSN_con_mlcape_054.txt.gz
CAPE
10 14 14 31 15 10 16 28 31 27 27 30 42 41 49 42 75 89 69 73 73 89 74 70 66 59 36 8 0 11 0 0 195 36 19 15 21 39 17 8 0 0 0 0 0 0 0
4 9 23 19 16 23 10 25 27 24 16 29 43 43 66 75 109 126 103 110 133 117 137 157 163 60 20 1 0 21 0 0 4 40 15 35 11 29 26 16 1 0 0 0 0 0 0
7 13 9 18 16 18 22 29 11 4 14 35 35 26 34 84 108 127 70 131 173 175 162 195 201 112 13 0 12 18 1 0 40 18 3 81 24 37 17 15 3 0 0 0 0 0 0
7 8 6 13 13 25 42 8 0 10 41 34 38 50 54 50 71 83 92 100 136 147 190 231 186 89 2 0 0 0 13 1 30 2 27 167 122 42 25 8 0 0 0 0 0 0 0
6 12 5 9 25 33 21 6 42 16 27 34 53 64 91 72 26 6 23 117 211 235 210 263 132 26 0 132 3 0 32 27 102 40 155 159 92 17 15 4 3 0 0 0 0 0 0
9 3 4 17 28 17 14 16 6 32 28 34 25 30 53 63 17 2 96 152 162 82 205 179 13 11 0 46 20 41 43 10 260 56 133 142 60 33 18 7 0 0 0 0 0 0 0
3 6 4 25 11 10 9 4 35 23 36 36 16 27 47 90 36 1 98 0 0 3 32 0 1 18 29 0 108 32 0 21 251 52 30 34 5 0 3 0 0 0 0 0 0 0 0
7 5 6 13 16 9 12 31 29 27 34 32 9 20 70 55 16 16 8 0 0 0 0 0 0 0 0 0 17 17 0 213 26 6 9 10 7 8 21 11 0 0 0 0 0 0 0
3 5 9 13 8 10 5 10 15 21 25 25 9 14 79 25 4 0 0 3 4 6 1 0 5 0 0 0 21 1 5 23 23 11 3 4 4 22 9 7 2 0 0 0 0 0 0
5 5 11 8 9 10 4 5 3 13 18 18 6 21 14 1 0 0 1 8 4 1 3 2 3 0 0 3 51 16 0 5 11 1 0 0 8 8 12 9 3 3 0 0 0 0 0
1 1 9 10 9 6 5 6 4 8 12 3 3 0 2 0 2 0 0 16 6 0 0 0 1 5 3 3 0 1 0 28 2 2 3 1 0 5 8 6 8 10 0 0 0 0 0
6 4 12 8 8 6 4 5 5 4 7 1 6 0 0 0 5 4 3 2 0 0 0 1 2 1 3 3 6 3 31 0 9 2 0 1 13 0 0 0 2 0 0 0 0 0 0
5 3 8 10 7 6 5 4 4 4 4 2 4 0 0 0 0 0 6 2 0 0 0 0 0 0 2 14 11 13 3 2 1 4 2 1 2 1 1 0 0 0 0 1 0 0 0
3 4 4 14 6 6 6 3 4 2 3 3 0 0 0 0 0 0 1 0 0 0 1 3 0 5 2 11 19 7 0 0 0 0 0 0 0 0 0 0 0 1 0 0 0 0 0
3 4 4 12 6 4 2 3 3 1 3 3 0 0 0 0 0 0 0 0 0 0 0 0 3 1 0 2 7 0 1 0 0 0 0 0 0 0 0 0 0 0 0 0 0 0 0
3 4 4 7 8 5 3 3 3 2 3 1 0 0 0 0 0 0 0 0 0 0 1 1 0 1 1 2 2 0 0 0 0 0 0 0 0 0 0 0 0 0 0 0 0 0 0
4 5 4 3 13 6 5 4 1 1 2 0 0 0 0 0 0 0 0 0 0 0 0 0 0 0 2 1 0 0 0 0 0 0 0 0 0 0 0 0 0 0 0 0 0 0 0
4 4 4 1 13 2 5 2 2 1 1 1 0 0 0 0 0 0 0 0 0 0 0 0 0 0 0 0 0 0 0 0 0 0 0 0 0 1 0 0 0 0 0 0 0 0 0
3 3 2 1 14 8 5 3 0 0 0 1 0 0 0 0 0 0 1 0 0 0 0 0 0 0 0 0 0 0 0 0 0 0 0 0 0 0 1 0 0 0 0 0 0 0 0
4 4 2 3 11 8 0 2 0 0 0 0 0 0 0 0 0 0 0 0 0 0 0 0 0 0 0 0 0 0 0 0 0 0 0 0 0 0 0 0 0 0 0 0 0 0 0
4 2 1 2 1 9 0 1 0 0 0 0 0 0 0 0 0 0 0 0 0 0 0 0 0 0 0 0 0 0 0 0 0 0 0 0 0 0 0 0 0 0 0 0 0 0 0
3 2 1 1 1 15 11 0 0 0 0 0 1 1 0 0 0 0 0 0 0 0 0 0 0 0 0 0 0 0 0 0 0 0 0 0 0 0 0 0 0 0 0 0 0 0 0
3 2 1 1 3 8 7 3 0 0 0 0 0 0 1 1 0 0 0 0 0 0 0 0 0 0 0 0 0 0 0 0 0 0 0 0 0 0 0 0 0 0 0 0 0 0 0
4 8 5 9 0 0 18 1 9 0 0 0 0 2 1 1 0 0 0 0 0 0 0 0 0 0 0 0 0 0 0 0 0 0 0 0 0 0 0 0 0 0 0 0 0 0 0
1 12 15 13 7 17 9 21 14 0 0 0 0 1 2 0 0 0 0 0 0 0 1 1 0 0 0 0 0 2 2 0 0 0 0 0 0 0 0 0 0 0 0 0 0 0 0
0 12 22 24 14 14 10 17 19 13 5 0 0 0 3 2 0 0 1 0 0 0 0 0 0 0 0 0 0 0 0 1 0 0 0 0 0 1 0 0 0 0 0 0 0 1 0
4 18 23 29 12 20 3 1 10 20 16 12 1 0 2 3 0 1 1 2 0 0 0 0 0 1 0 0 2 0 0 0 0 0 1 4 1 0 2 0 0 0 0 0 0 0 0
11 21 21 22 16 13 10 18 5 12 2 21 4 0 0 0 0 0 0 3 2 0 0 0 0 0 0 7 0 0 0 2 1 3 1 0 1 1 2 0 0 0 0 0 0 0 0
10 14 14 18 9 8 2 2 17 10 9 27 6 0 10 9 1 0 0 0 0 0 1 0 0 0 0 0 0 0 0 1 3 3 0 0 0 0 0 0 0 0 0 0 0 0 0

GFSGBSN_con_mlcape_057.txt.gz
CAPE
7 10 6 13 12 15 13 11 22 10 8 20 28 25 27 25 35 50 66 93 124 167 204 160 114 83 6 18 0 6 55 177 362 119 3 29 4 9 18 12 0 0 0 0 0 0 0
7 11 6 13 12 16 29 27 8 7 23 28 29 27 30 39 47 54 109 124 160 181 168 97 106 31 3 2 0 0 4 9 290 129 1 27 2 6 38 34 3 0 1 0 0 0 0
11 14 7 9 12 22 21 16 19 14 18 27 34 44 57 79 82 52 99 123 147 171 185 174 108 46 19 0 0 153 1 1 5 170 6 11 17 38 19 15 33 5 1 2 0 0 0
8 5 7 12 18 9 16 14 13 9 28 37 44 44 37 95 132 45 37 30 152 167 240 218 193 62 15 0 0 0 3 4 0 166 15 15 90 61 42 27 29 15 2 1 0 0 0
6 6 5 10 6 11 10 17 21 22 24 26 31 14 45 107 75 44 2 31 144 252 262 239 135 53 2 48 0 0 14 34 25 209 15 55 197 85 86 28 31 27 0 0 0 0 0
6 5 6 11 7 6 8 27 21 21 22 25 17 31 89 93 41 0 0 117 161 94 187 155 82 19 0 0 39 4 20 36 77 113 32 60 57 41 26 32 9 0 0 0 0 0 0
7 5 3 8 5 9 7 8 9 15 27 27 18 15 63 1 12 0 48 61 54 92 90 26 12 4 3 0 24 0 142 53 186 21 14 74 44 9 1 0 0 0 0 0 0 0 0
5 2 4 4 7 8 6 6 5 12 22 29 23 17 23 8 0 0 34 26 14 11 8 0 0 0 0 4 1 66 45 22 174 10 10 63 0 9 16 13 8 0 0 0 0 0 0
4 2 6 6 6 8 6 8 1 10 16 26 27 13 0 12 0 10 8 1 0 4 10 5 15 6 0 3 3 37 50 20 11 2 17 5 1 0 7 12 11 2 0 0 0 0 0
3 4 5 4 5 9 6 9 8 2 7 15 14 11 0 0 2 7 3 0 7 5 7 0 5 7 1 0 0 0 9 2 1 8 22 2 15 2 8 15 6 10 0 0 0 0 0
5 4 3 7 5 7 9 6 4 9 3 5 2 11 0 0 3 1 2 3 15 4 0 0 0 0 0 13 2 3 0 5 0 0 0 0 1 8 5 8 11 21 0 0 0 0 0
5 4 3 6 2 5 9 5 5 3 6 1 2 1 0 6 3 0 0 3 1 1 0 0 3 1 5 4 9 14 16 0 0 0 0 1 0 0 4 0 26 5 0 0 0 0 0
5 3 2 2 3 3 6 4 4 1 2 4 2 1 0 0 5 5 8 9 0 0 0 0 0 9 8 12 12 3 4 2 0 0 0 0 0 2 0 0 0 16 14 2 2 0 0
4 3 3 0 6 3 5 7 2 1 1 3 2 0 0 0 4 10 1 1 0 1 0 1 1 2 1 11 10 0 5 2 13 0 0 0 0 0 4 0 0 5 24 20 1 0 0
4 3 3 1 7 4 3 7 3 1 1 2 0 0 0 1 1 4 1 0 0 0 1 0 7 1 2 6 2 1 10 6 2 1 0 0 0 3 2 3 0 2 0 0 0 0 0
4 3 2 2 5 0 0 5 3 0 0 1 0 0 0 0 0 0 1 0 1 0 1 0 0 0 0 3 0 1 5 0 0 0 0 0 0 0 0 3 0 1 0 0 0 0 0
1 3 2 3 1 0 0 2 3 0 0 0 0 0 0 0 0 2 0 0 1 2 1 0 0 3 1 3 3 0 0 0 0 0 0 0 0 0 0 0 1 0 0 0 0 0 0
2 3 2 3 2 1 0 0 2 0 0 1 1 0 0 0 2 1 3 0 0 3 0 0 2 2 7 5 4 1 1 2 0 0 0 0 0 1 0 0 0 0 1 0 0 0 0
2 4 5 4 0 5 0 0 0 0 0 3 0 0 0 0 0 0 0 0 0 0 0 0 0 0 0 0 0 0 0 0 0 0 0 0 0 0 0 0 0 0 0 0 0 0 0
2 3 2 1 1 11 0 0 0 0 0 0 0 0 0 2 1 7 0 0 0 0 0 0 0 0 0 0 0 0 0 0 0 0 0 0 0 0 0 0 0 0 0 0 0 0 0
2 1 1 1 1 5 6 0 0 0 0 0 0 0 1 1 5 2 0 0 0 0 0 0 0 0 0 0 0 0 0 0 0 0 0 0 0 0 0 0 0 0 0 0 0 0 0
2 1 5 1 4 3 12 0 0 0 0 0 0 1 1 1 0 0 3 4 0 0 0 0 0 0 0 0 0 0 0 0 0 0 0 0 0 0 0 0 0 0 0 0 0 0 0
2 3 6 5 6 1 5 5 3 0 0 0 0 5 1 0 0 1 2 11 8 0 0 0 0 0 0 0 0 0 0 0 0 0 0 0 0 0 0 0 0 0 0 0 0 0 0
2 2 11 10 15 13 12 17 4 0 0 0 0 2 0 0 1 0 0 0 2 9 10 0 0 0 0 0 0 0 0 0 0 0 0 1 0 0 0 0 0 0 0 0 0 0 0
0 0 17 20 25 15 26 13 20 3 0 0 2 6 1 0 0 0 1 2 3 3 19 19 2 0 0 0 4 4 5 3 3 0 0 2 5 3 0 0 0 0 0 0 0 0 0
0 1 13 22 30 15 19 8 20 6 9 1 3 0 10 2 1 1 2 1 1 15 10 9 0 0 0 16 14 1 0 0 0 2 0 0 3 0 1 0 0 0 0 0 0 2 0
0 6 16 9 23 15 21 19 24 14 10 3 5 5 4 4 0 0 4 1 3 0 10 6 0 6 0 7 17 2 0 3 1 1 1 4 7 2 0 0 0 0 0 0 1 0 0
0 8 7 15 16 8 15 11 3 6 24 10 11 16 6 4 0 0 0 1 0 3 10 16 7 5 12 8 11 9 4 2 1 4 2 4 2 1 0 0 0 0 0 0 0 0 0
0 6 4 15 2 0 22 8 1 17 5 23 8 11 11 7 0 0 0 3 4 2 3 1 15 11 26 12 0 1 1 4 2 0 0 0 0 3 0 1 0 0 1 0 0 0 0

GFSGBSN_con_mlcape_060.txt.gz
CAPE
7 7 6 5 11 24 17 19 9 11 14 26 35 37 38 42 97 98 95 96 113 102 109 146 198 188 84 22 0 0 53 4 116 256 10 34 0 12 7 2 0 0 0 0 0 0 0
6 3 5 5 17 10 15 16 14 8 23 31 26 39 37 79 136 145 151 111 138 160 137 126 37 63 12 0 0 6 4 58 73 118 44 25 0 15 12 61 1 0 0 0 0 0 0
4 2 4 7 10 12 8 17 31 36 22 21 27 30 64 69 98 154 168 96 141 189 196 175 189 32 5 0 18 262 25 0 8 93 84 7 4 9 22 29 39 5 4 0 1 0 0
4 2 3 4 5 8 12 8 11 20 17 32 35 24 29 49 88 83 56 49 58 178 187 268 164 84 2 0 0 0 0 0 0 0 77 1 15 7 77 64 38 36 5 4 0 0 0
4 2 2 5 5 8 8 4 13 22 21 22 31 19 17 42 76 8 12 0 109 188 277 291 167 50 3 3 0 0 0 0 3 0 112 101 51 34 33 21 20 31 0 2 0 0 0
2 2 3 5 8 11 8 8 6 24 19 16 19 18 21 19 3 0 0 31 169 157 228 166 92 29 3 11 20 7 0 0 2 82 96 72 40 12 27 37 0 0 0 0 0 0 0
1 3 1 7 2 7 10 7 10 4 15 14 7 17 2 1 0 0 66 124 110 143 114 71 21 4 4 0 75 32 26 0 2 133 5 12 24 0 0 0 0 0 0 0 0 0 0
1 1 1 3 2 2 7 7 6 2 10 6 6 16 4 0 0 1 19 6 9 4 0 3 0 0 5 0 0 19 22 5 1 44 22 16 1 0 0 0 1 5 1 0 0 0 0
1 0 1 2 7 9 6 5 6 7 2 1 7 5 7 0 0 15 4 1 0 9 1 11 18 7 1 0 0 1 16 15 5 3 0 3 2 3 7 6 16 0 0 0 0 0 0
1 0 1 3 3 1 6 5 5 5 4 4 0 2 6 0 1 1 2 0 3 6 0 1 5 4 6 0 0 41 46 35 9 1 27 16 1 0 10 2 9 10 0 3 1 0 0
2 0 0 3 8 1 4 7 3 3 4 3 0 1 2 0 4 1 0 0 6 2 0 0 0 0 5 0 0 3 9 1 3 11 0 0 1 1 0 3 25 10 4 1 0 0 0
1 0 0 1 3 4 4 2 4 2 3 2 2 1 0 1 1 0 8 7 1 0 0 0 0 0 2 1 7 2 9 0 2 0 0 0 0 1 0 1 2 7 20 0 0 0 0
1 0 0 2 2 2 6 2 3 1 1 1 3 2 0 0 4 3 1 1 0 0 0 0 0 3 2 2 1 0 0 3 0 0 0 0 0 1 0 4 3 5 0 1 0 0 0
1 2 1 2 2 6 7 8 3 1 0 0 0 0 0 0 1 1 0 1 0 0 0 0 0 0 0 2 2 4 9 3 6 0 0 0 0 0 0 1 0 11 0 0 0 0 0
1 2 1 2 2 5 5 3 5 0 0 0 0 0 0 0 0 0 1 0 0 0 0 0 7 3 2 0 0 3 0 0 2 0 0 0 0 2 4 0 0 1 0 0 0 0 0
1 2 3 3 1 3 3 2 2 0 0 0 0 0 0 0 0 0 0 0 1 0 0 0 5 5 0 0 0 2 0 0 0 0 0 0 0 1 3 0 0 0 0 0 0 0 0
0 2 3 4 2 2 2 3 2 0 0 0 0 0 0 0 0 0 0 0 0 1 1 0 2 1 0 0 6 1 1 0 0 0 0 0 0 0 2 0 0 0 0 0 0 0 0
1 1 2 2 1 2 7 2 1 0 0 0 0 0 0 0 0 2 0 0 0 1 0 0 0 0 8 0 1 0 0 0 0 0 0 0 0 0 0 0 0 0 0 0 0 0 0
0 1 5 1 2 2 6 1 0 0 0 2 0 0 0 0 0 2 0 0 0 0 0 0 0 0 0 2 0 0 0 0 0 0 0 0 0 0 0 0 0 0 0 0 0 0 0
0 1 3 1 1 0 9 0 0 0 0 0 0 0 0 2 0 0 1 0 0 0 0 0 0 0 0 0 0 0 0 0 0 0 0 0 0 0 0 0 0 0 0 0 0 0 0
0 0 2 2 8 1 1 1 0 0 0 0 0 0 0 0 0 0 0 1 1 0 0 0 0 0 0 0 0 0 0 0 0 0 0 0 0 0 0 0 0 0 0 0 0 0 0
0 0 0 0 0 6 12 2 1 0 0 0 0 0 0 1 0 0 0 3 0 3 0 0 0 0 0 0 0 0 0 0 0 0 0 0 0 0 0 0 0 0 0 0 0 0 0
0 0 0 2 12 12 17 9 0 0 0 0 0 0 1 0 0 1 2 7 4 1 0 0 0 0 0 0 0 0 0 0 0 0 0 0 0 0 0 0 0 0 0 0 0 0 0
0 0 0 16 16 12 16 0 3 1 0 0 0 4 1 0 0 0 0 1 0 10 4 6 0 0 0 0 0 0 0 0 0 0 0 0 0 0 0 0 0 0 0 0 0 0 0
0 0 0 15 18 9 11 2 0 0 0 0 1 1 1 0 0 0 0 0 0 4 3 19 0 0 0 0 3 0 2 0 1 0 0 0 2 0 0 0 0 0 0 0 0 0 0
0 0 1 13 16 12 10 16 19 15 1 0 2 0 6 0 0 0 1 0 0 3 9 3 0 0 0 3 5 3 0 0 0 0 0 0 2 0 0 0 0 0 0 0 0 0 0
0 0 0 12 20 7 6 15 0 7 5 0 0 5 5 1 0 0 1 1 3 0 1 0 0 0 0 2 1 0 1 2 0 0 0 0 2 0 0 0 0 0 0 0 0 0 0
0 0 1 10 11 1 4 5 0 6 6 4 0 10 12 3 0 0 0 0 0 1 0 4 0 0 0 1 1 5 0 2 3 3 1 2 1 1 1 0 0 0 0 0 0 0 0
0 0 0 4 0 0 4 1 12 12 20 17 0 3 18 2 0 0 0 0 0 0 3 2 1 8 15 7 7 3 0 0 0 0 0 0 0 1 0 0 0 0 0 0 0 0 0

GFSGBSN_con_mlcape_063.txt.gz
CAPE
3 3 6 7 11 10 11 5 18 34 14 13 13 26 16 33 43 69 114 123 148 134 107 85 55 23 1 0 0 1 0 3 0 46 17 29 0 41 0 28 16 0 0 0 0 0 0
4 3 6 2 10 5 9 7 10 15 10 18 23 17 21 31 40 77 135 102 114 122 122 33 105 41 0 0 0 1 2 1 18 50 39 52 0 0 36 55 12 0 0 0 4 0 0
2 1 5 2 7 10 13 7 12 6 13 21 25 6 11 17 53 91 118 79 97 122 114 193 168 24 12 0 0 6 15 16 45 26 75 45 9 1 4 38 20 2 4 16 0 0 0
2 2 4 5 0 11 9 9 7 6 8 12 17 8 13 12 9 12 21 20 31 98 165 203 205 114 0 0 0 0 0 0 13 16 41 77 35 3 6 24 32 43 2 21 0 0 0
1 2 4 0 3 4 4 10 11 3 14 6 17 19 6 11 0 1 1 0 31 138 214 301 153 20 0 1 0 0 0 0 14 0 8 83 52 11 0 15 44 53 4 0 0 0 0
0 2 3 2 5 2 10 10 11 8 3 13 10 9 3 4 0 0 0 28 67 97 142 145 76 4 0 2 0 0 0 1 4 14 31 78 32 6 13 5 0 0 0 0 0 0 0
0 1 2 3 9 8 7 7 7 11 7 1 8 4 12 0 0 0 0 0 0 0 32 0 0 0 2 0 9 11 2 8 15 2 74 44 15 0 0 0 0 0 0 0 0 0 0
0 0 2 6 5 5 6 8 8 8 9 3 0 4 7 0 0 2 0 0 1 0 0 0 5 0 0 0 0 9 1 0 1 0 5 27 1 0 0 0 0 0 0 0 0 0 0
0 0 1 6 2 5 1 2 2 6 7 8 2 4 3 0 0 0 0 0 0 1 1 0 6 12 0 0 0 7 0 0 0 0 9 2 2 0 0 0 0 0 0 0 0 0 0
0 0 0 4 5 20 8 2 2 2 6 6 8 3 3 1 0 0 0 0 0 1 1 0 2 1 5 0 6 9 0 0 0 1 1 0 1 0 9 0 0 0 0 0 0 0 0
0 0 0 4 3 8 4 2 0 7 4 5 6 0 1 3 0 0 0 0 0 0 0 0 0 0 2 0 0 1 5 7 0 0 0 0 1 0 11 12 5 2 0 6 0 0 0
0 0 0 3 2 3 3 9 4 3 4 0 1 0 2 0 0 0 6 0 0 0 0 0 0 0 0 3 6 13 5 19 0 1 0 1 0 9 0 0 3 7 7 7 0 0 0
0 0 0 1 1 2 2 6 5 1 1 0 0 3 1 0 0 0 0 0 0 0 0 0 0 2 0 2 1 1 4 0 0 0 0 1 0 0 0 0 4 2 1 2 5 2 0
0 0 0 1 1 3 2 6 6 1 0 0 0 0 0 0 0 0 0 0 0 0 0 0 0 0 0 2 0 4 6 3 0 0 0 0 0 0 0 0 1 6 0 0 0 0 0
0 0 1 2 1 1 4 7 4 1 1 0 0 0 0 0 0 0 0 0 0 0 0 0 0 0 0 0 1 1 1 0 0 0 0 0 0 0 0 1 0 1 0 0 0 0 0
0 1 2 1 2 1 5 7 3 1 0 0 0 0 0 0 0 0 0 0 0 0 0 0 0 0 0 0 0 4 0 0 0 0 0 0 0 1 1 1 0 0 0 0 0 0 0
0 0 1 2 2 2 4 5 1 2 0 0 0 0 0 0 0 0 0 0 0 0 0 0 0 0 0 0 0 0 0 0 0 0 0 0 0 1 2 0 0 0 0 0 0 0 0
0 0 2 3 2 1 3 1 0 1 0 0 0 0 0 0 0 0 0 0 0 0 0 0 0 1 0 0 0 0 0 0 0 0 0 0 0 0 0 0 0 0 0 0 0 0 0
0 1 1 4 1 0 1 1 0 0 0 0 0 0 0 0 0 0 0 0 0 0 0 0 0 0 0 0 0 0 0 0 0 0 0 0 0 0 0 0 2 0 0 0 0 0 0
0 0 0 0 0 2 2 0 0 0 0 0 0 0 0 0 0 0 1 0 4 0 0 0 0 0 0 0 0 0 0 0 0 0 0 0 0 0 0 0 0 0 0 0 0 0 0
0 0 0 0 2 4 1 0 0 0 0 0 0 0 0 0 0 0 0 0 0 2 0 0 0 0 0 0 0 0 0 0 0 0 0 0 0 0 0 0 0 0 0 0 0 0 0
0 0 0 0 1 4 4 0 0 0 0 0 0 0 0 0 0 0 1 2 5 5 0 0 0 0 0 0 0 0 0 0 0 0 0 0 0 0 0 0 0 0 0 0 0 0 0
0 0 0 1 1 1 3 0 0 0 0 0 0 0 0 0 0 0 0 0 2 6 2 0 0 0 0 0 0 0 0 0 0 0 0 0 0 0 0 0 0 0 0 0 0 0 0
0 0 0 0 0 0 1 1 1 1 0 0 0 0 0 0 0 0 0 0 0 0 8 13 0 0 0 0 0 0 0 0 0 0 0 0 0 0 0 0 0 0 0 0 0 0 0
0 0 0 2 3 0 0 2 1 0 0 0 0 0 0 0 0 0 0 0 0 0 3 8 3 0 0 0 0 0 0 0 0 0 0 0 0 0 0 0 0 0 0 0 0 0 0
0 0 0 5 0 0 0 2 0 0 0 0 0 0 1 0 0 0 0 0 0 1 15 16 0 0 0 1 0 0 0 0 0 0 0 0 0 0 0 0 0 0 0 0 0 0 0
0 0 0 3 0 0 0 1 0 1 1 0 0 0 0 2 0 0 0 0 1 1 0 1 0 0 1 7 6 0 0 0 0 0 0 0 0 0 1 0 0 0 0 0 0 0 0
0 0 0 0 0 0 0 1 4 0 6 0 0 0 1 0 0 0 0 0 0 0 2 0 0 1 0 2 2 7 0 1 0 0 1 0 0 0 0 0 0 0 0 3 0 0 0
0 0 0 0 0 0 0 2 6 8 17 16 8 1 10 15 0 0 0 0 0 0 0 1 1 1 5 0 1 2 1 0 0 0 0 0 0 0 0 0 0 0 0 0 0 0 0

GFSGBSN_con_mlcape_066.txt.gz
CAPE
5 7 2 6 11 8 5 10 7 18 9 11 16 21 15 12 21 50 68 126 48 90 138 54 66 56 1 0 0 0 3 0 0 4 3 33 0 5 4 18 34 2 0 0 13 19 0
3 6 4 4 11 7 5 11 8 13 20 13 11 25 14 12 8 26 76 75 19 46 103 6 36 32 0 0 0 0 0 7 0 0 0 20 2 0 34 14 39 11 20 19 1 0 7
2 7 7 6 7 7 3 6 12 7 17 13 8 19 9 7 4 6 29 43 60 84 90 176 201 10 0 0 0 0 0 0 27 0 6 21 18 4 0 29 54 21 38 38 0 0 0
2 5 6 3 6 10 10 8 12 15 4 12 8 20 17 7 5 0 1 0 1 50 109 165 223 105 0 0 0 0 0 0 7 60 33 25 53 3 15 26 40 37 41 22 0 2 0
2 3 6 3 16 6 3 9 8 14 13 4 9 15 11 2 5 0 0 0 0 27 97 209 106 11 0 0 19 0 1 0 13 17 34 72 24 0 6 20 12 33 3 0 0 0 0
1 2 3 3 4 5 5 10 15 8 11 8 2 4 10 6 0 1 34 3 9 17 61 97 55 3 0 0 0 0 0 4 5 10 31 25 37 1 12 5 0 0 0 0 0 0 0
1 3 2 2 2 1 3 10 9 20 14 10 8 3 2 5 0 1 0 0 0 0 0 0 0 0 0 0 0 42 4 0 0 1 3 24 9 0 0 0 0 0 0 0 0 0 0
1 1 2 4 7 1 2 4 6 14 12 10 7 2 3 1 1 0 0 0 0 0 0 0 0 3 0 0 0 10 1 0 0 1 5 5 0 0 0 1 0 0 0 0 0 0 0
0 1 1 2 6 6 2 1 5 4 4 9 7 1 2 1 0 0 0 0 0 0 0 0 0 7 0 0 2 8 0 4 0 0 0 1 0 0 0 1 0 0 0 0 0 0 0
0 1 0 3 5 7 8 8 4 7 9 6 5 5 2 2 0 0 0 0 0 0 0 0 2 1 1 0 5 10 0 0 0 0 0 13 0 0 0 0 0 0 0 0 0 0 0
0 0 0 2 5 5 3 4 6 3 7 2 2 4 3 4 0 1 0 0 0 0 0 1 1 0 2 1 5 0 0 0 0 0 1 0 0 0 0 0 0 0 0 0 0 0 0
0 0 1 1 4 6 5 2 4 2 4 0 0 3 0 0 0 1 1 0 1 0 0 0 0 2 0 1 0 1 22 2 6 5 1 0 0 0 7 0 10 4 0 0 0 0 0
0 0 0 2 3 4 4 2 3 1 0 0 0 0 1 0 0 0 0 0 0 0 0 5 1 2 2 0 2 4 0 0 4 0 0 1 1 0 1 15 23 7 0 0 5 4 0
0 0 0 1 3 3 5 2 3 1 1 0 0 0 0 0 0 0 0 0 0 0 0 1 1 3 0 1 2 4 2 0 0 0 0 1 2 0 0 0 9 16 0 0 0 0 0
0 0 0 0 1 1 2 4 1 1 0 0 0 0 0 0 0 0 0 0 0 0 0 0 0 0 0 2 2 5 1 0 0 0 0 0 0 1 0 0 0 5 2 0 0 0 0
0 0 0 1 1 0 1 2 1 1 0 0 0 0 0 0 0 0 0 0 0 0 0 0 0 0 0 0 1 0 0 0 0 0 0 0 0 1 0 0 0 0 0 0 0 0 0
0 0 0 1 1 0 1 1 1 0 0 0 0 0 0 0 0 0 0 0 0 0 0 0 0 0 0 0 1 0 0 0 0 0 0 0 0 1 2 1 0 1 0 0 0 0 0
0 0 0 0 0 1 3 0 0 0 0 0 0 0 0 0 0 0 0 0 0 0 0 0 0 0 0 0 0 0 0 0 0 0 0 0 0 1 1 1 0 0 0 0 0 0 0
0 0 0 0 0 0 1 0 0 0 0 0 0 0 0 0 0 0 0 0 0 0 0 0 0 0 0 0 0 0 0 0 0 0 0 0 0 0 0 0 0 0 0 0 0 0 0
0 0 0 0 2 0 1 0 0 0 0 0 0 0 0 0 0 0 0 0 0 0 0 0 0 0 0 0 0 0 0 0 0 0 0 0 0 0 0 0 0 0 0 0 0 0 0
0 0 0 0 1 1 0 0 0 0 0 0 0 0 0 0 0 0 0 0 1 0 0 0 0 0 0 0 0 0 0 0 0 0 0 0 0 0 0 0 0 0 0 0 0 0 0
0 0 0 1 1 1 0 0 0 0 0 0 0 0 0 0 0 0 0 1 10 5 0 0 0 0 0 0 0 0 0 0 0 0 0 0 0 0 0 0 0 0 0 0 0 0 0
0 0 0 1 0 1 0 1 0 0 0 0 0 0 0 0 0 0 0 0 0 5 4 0 0 0 0 0 0 0 0 0 0 0 0 0 0 0 0 0 0 0 0 0 0 0 0
0 0 0 0 0 0 1 1 1 0 0 0 0 0 0 0 0 0 0 0 0 0 0 5 0 0 0 0 0 0 0 0 0 0 0 0 0 0 0 0 0 0 0 0 0 0 0
0 0 0 0 0 0 0 0 1 0 0 0 0 0 0 0 0 0 0 0 0 0 2 9 13 0 0 0 0 0 0 0 0 0 0 0 0 0 0 0 0 0 0 0 0 0 0
0 0 0 0 0 0 0 6 4 1 0 0 0 0 0 0 0 0 0 0 0 0 0 24 5 0 0 0 0 0 0 0 0 0 0 0 0 0 0 0 0 0 0 0 0 0 0
0 0 0 0 0 0 0 0 15 17 9 0 0 0 0 0 0 0 0 0 0 1 0 1 0 0 3 10 7 0 0 0 0 0 0 2 0 0 0 0 0 0 0 0 0 0 0
0 0 0 0 0 0 0 1 6 16 28 0 0 0 0 0 0 0 0 0 0 0 0 0 0 1 0 21 10 5 0 0 0 0 0 0 0 0 0 0 0 0 0 0 0 0 0
0 0 0 0 0 0 0 0 16 21 32 21 1 0 1 6 0 0 0 0 0 0 0 0 0 1 2 0 0 2 4 0 0 0 0 0 0 0 0 0 0 0 0 0 0 0 0

GFSGBSN_con_mlcape_069.txt.gz
CAPE
3 4 3 13 6 5 18 17 11 4 16 23 29 21 7 5 13 19 12 21 20 4 30 8 16 31 1 0 0 0 0 0 0 0 0 9 2 0 5 60 53 0 1 0 12 0 0
7 6 4 12 1 8 19 11 13 9 5 21 22 21 28 10 9 10 19 9 24 82 120 11 27 26 0 0 0 0 0 0 0 4 0 3 2 0 3 48 56 10 0 1 6 0 0
6 6 6 6 13 3 13 9 10 8 9 10 22 14 17 8 7 4 1 7 30 72 129 196 166 0 0 0 0 0 0 0 0 8 5 5 21 0 10 16 63 16 5 1 0 0 8
3 4 6 3 6 7 18 16 10 12 10 7 8 14 11 22 2 4 2 0 0 9 83 211 253 82 0 0 0 0 0 0 0 21 10 22 37 4 11 9 50 33 12 0 0 24 3
1 3 4 3 5 3 12 16 11 17 25 9 5 2 10 11 14 0 10 38 0 10 50 167 62 4 0 0 3 0 2 0 0 28 20 69 65 0 7 19 0 25 0 0 0 10 6
1 3 3 3 4 4 12 5 10 17 22 13 6 2 6 5 10 4 10 0 0 3 31 98 48 1 0 0 0 0 0 0 14 2 20 37 52 0 0 12 0 0 0 0 0 0 1
0 1 3 3 4 5 12 7 4 4 11 9 4 4 3 3 8 7 0 0 0 0 0 0 0 0 0 0 0 9 17 17 0 0 4 30 1 0 0 0 0 0 0 0 0 0 0
0 1 2 3 5 4 6 7 6 3 7 2 6 6 1 3 3 4 0 0 0 0 0 0 0 0 0 0 0 8 25 0 0 0 6 33 0 0 0 2 0 0 0 0 0 0 1
0 1 1 2 4 5 7 2 9 3 3 2 8 5 2 3 1 0 0 0 0 0 0 0 0 0 0 0 0 0 5 0 0 0 0 0 1 0 0 6 3 0 0 0 0 0 0
0 1 1 1 3 4 6 3 2 3 1 4 7 6 1 1 0 0 0 0 0 0 0 0 5 0 1 0 0 21 2 10 0 0 1 2 0 0 0 11 0 0 0 0 0 0 0
0 0 1 1 2 3 6 4 2 3 3 8 7 4 2 0 0 0 0 0 0 0 0 1 1 0 0 3 6 2 0 0 0 0 0 0 0 0 0 5 0 0 0 0 0 0 0
0 0 1 1 2 4 4 4 4 8 6 5 2 3 1 0 0 1 0 0 0 0 0 0 1 3 1 7 0 0 1 1 5 2 2 2 0 0 0 0 3 0 0 0 0 0 0
0 0 0 1 2 3 4 4 4 5 5 2 1 1 0 0 0 2 2 0 0 0 0 0 0 0 0 1 3 5 3 0 0 0 0 4 2 0 0 3 1 0 0 2 2 0 0
0 0 0 0 1 2 3 4 3 3 4 0 0 0 0 0 0 0 0 0 0 0 0 0 1 1 1 2 1 1 0 0 1 1 0 0 2 1 0 0 0 1 0 0 0 0 0
0 0 0 0 0 2 4 4 2 2 0 0 0 0 0 0 0 0 0 0 0 0 0 0 0 0 1 2 2 3 1 0 0 0 0 0 0 0 0 0 0 1 0 0 0 0 0
0 0 0 0 0 1 4 4 0 2 0 0 0 0 0 0 0 0 0 0 0 0 0 0 0 0 0 0 0 0 0 3 1 0 0 0 0 0 1 0 0 2 0 0 0 0 0
0 0 0 0 0 0 1 2 1 1 0 0 0 0 0 0 0 0 0 0 0 0 0 0 0 0 0 0 0 0 0 0 0 0 0 0 0 0 2 2 1 0 0 0 0 0 0
0 0 0 0 0 1 1 0 0 1 0 0 0 0 0 0 0 0 0 0 0 0 0 0 0 0 0 0 0 0 0 0 0 0 0 0 0 0 1 0 1 3 3 0 0 0 0
0 0 0 0 0 0 0 0 0 0 0 0 0 0 0 0 0 0 0 0 0 0 0 0 0 0 0 0 0 0 0 0 0 0 0 0 0 0 0 0 0 3 5 0 0 0 0
0 0 0 0 0 0 0 0 0 0 0 0 0 0 0 0 0 0 0 0 0 0 0 0 0 0 0 0 0 0 0 0 0 0 0 0 0 0 0 0 0 1 2 0 0 0 0
0 0 0 0 0 0 0 0 0 0 0 0 0 0 0 0 0 0 0 0 0 0 0 0 0 0 0 0 0 0 0 0 0 0 0 0 0 0 0 0 0 0 0 0 0 0 0
0 0 0 0 0 0 0 0 0 0 0 0 0 0 0 0 0 0 0 0 0 0 0 0 0 0 0 0 0 0 0 0 0 0 0 0 0 0 0 0 0 0 0 0 0 0 0
0 0 0 0 0 0 0 0 0 0 0 0 0 0 0 0 0 0 0 0 0 0 7 0 0 0 0 0 0 0 0 0 0 0 0 0 0 0 0 0 0 0 0 0 0 0 0
0 0 0 0 0 0 0 0 0 0 0 0 0 0 0 0 0 0 0 0 0 0 0 0 0 0 0 0 0 0 0 0 0 0 0 0 0 0 0 0 0 0 0 0 0 0 0
0 0 0 0 0 0 0 0 0 0 0 0 0 0 0 0 0 0 0 0 0 0 0 0 8 0 0 0 0 0 0 0 0 0 0 0 0 0 0 0 0 0 0 0 0 0 0
0 0 0 0 0 0 0 0 0 4 0 0 0 0 0 0 0 0 0 0 0 0 0 4 3 0 0 0 0 0 0 0 0 0 0 0 0 0 0 0 0 0 0 0 0 0 0
0 0 0 0 0 0 0 0 0 3 8 0 0 0 0 0 0 0 0 0 0 0 0 0 0 0 0 3 7 0 0 0 0 0 0 0 0 0 0 0 0 0 0 0 0 0 0
0 0 0 0 0 0 0 0 1 0 17 0 0 0 0 0 0 0 0 0 0 0 0 0 0 0 0 5 10 2 0 0 0 0 0 0 0 0 0 0 0 0 0 0 0 0 0
0 0 0 0 0 0 0 0 2 0 9 0 0 1 1 1 0 0 0 0 0 0 0 0 0 0 1 0 0 0 4 0 0 0 0 0 0 0 0 0 0 0 0 0 0 0 0

GFSGBSN_con_mlcape_072.txt.gz
CAPE
5 5 2 7 6 9 11 10 5 6 7 6 13 17 29 26 9 5 14 7 4 0 5 4 0 22 2 0 0 0 0 46 18 10 0 3 13 0 8 26 20 0 1 14 11 5 0
3 4 5 5 9 5 11 20 13 8 7 8 10 18 20 32 11 7 3 8 3 0 5 10 38 20 0 0 0 0 0 0 0 0 0 0 4 0 23 22 18 7 3 0 11 5 0
3 2 6 2 5 7 10 15 20 15 26 9 8 9 11 20 25 15 12 0 7 4 39 63 42 0 0 0 0 0 1 0 0 0 0 0 26 3 14 28 45 32 33 24 8 8 1
2 1 4 2 4 4 11 19 16 18 17 22 6 4 9 14 19 17 20 29 0 0 16 72 142 11 0 0 0 0 0 0 0 2 0 41 51 5 20 12 33 36 16 13 0 1 13
0 1 3 2 2 4 7 14 9 13 15 16 7 12 4 12 12 23 19 8 0 0 10 69 0 0 0 0 9 0 0 0 0 7 56 85 52 10 30 17 0 24 1 0 1 0 0
0 0 2 1 2 5 8 1 4 9 16 14 11 4 2 9 9 17 21 10 0 0 9 21 0 0 0 0 0 0 0 0 0 3 14 49 23 2 12 6 0 0 0 0 0 0 0
0 0 0 1 2 4 6 1 13 11 16 14 14 7 4 6 6 11 3 0 0 0 0 0 0 0 0 0 0 20 0 3 0 1 0 1 3 0 0 0 0 0 0 0 0 0 0
0 0 0 1 2 5 6 10 5 15 17 12 8 7 2 8 2 11 0 0 0 0 0 0 0 0 0 0 0 10 13 0 2 1 0 11 0 0 0 1 0 0 0 0 0 0 0
0 0 0 0 2 3 6 7 10 8 12 7 6 2 4 8 3 0 0 0 0 0 0 0 0 0 0 0 0 8 18 3 0 0 1 2 0 0 0 12 1 0 0 0 0 0 2
0 0 0 1 1 4 6 7 7 2 6 4 4 8 3 3 0 0 0 0 0 0 0 0 0 0 1 3 0 15 15 4 0 0 0 17 0 0 0 13 8 0 0 0 0 0 0
0 0 0 1 2 4 7 5 5 3 1 2 6 2 6 1 0 0 0 0 0 0 0 1 0 2 1 14 1 0 2 0 0 0 1 4 1 4 7 20 19 0 0 0 0 3 0
0 0 0 1 2 4 4 6 3 1 1 8 4 1 2 0 0 0 0 1 0 0 0 0 3 1 0 4 1 0 3 17 0 0 1 1 1 10 9 12 2 0 0 0 0 0 0
0 0 0 1 2 4 2 5 4 5 4 4 4 0 1 0 0 2 1 0 0 0 0 0 0 1 0 0 0 0 0 0 0 0 0 2 2 0 0 10 6 0 0 0 0 0 0
0 0 0 0 1 2 3 1 3 7 3 1 0 0 0 0 0 0 0 0 0 0 0 0 2 1 0 0 3 1 1 0 1 0 0 0 0 2 0 0 2 12 0 0 0 0 0
0 0 0 0 1 1 5 4 2 3 1 0 0 0 0 0 0 0 0 0 0 0 0 0 1 0 3 1 2 5 0 0 0 1 0 0 0 0 0 0 0 4 2 0 0 0 0
0 0 0 0 0 2 3 2 1 3 0 0 0 0 0 0 0 0 0 0 0 0 0 0 0 0 0 0 0 0 1 2 0 0 0 0 0 0 0 0 0 0 0 0 0 0 0
0 0 0 0 0 0 1 1 1 1 0 0 0 0 0 0 0 0 0 0 0 0 0 0 0 0 0 0 0 0 0 1 0 0 0 0 0 0 0 0 0 0 0 0 0 0 0
0 0 0 0 0 0 0 0 2 0 0 0 0 0 0 0 0 0 0 0 0 0 0 0 0 0 0 0 0 0 0 0 0 0 0 0 0 0 0 0 0 0 0 0 0 0 0
0 0 0 0 0 0 0 0 0 0 0 0 0 0 0 0 0 0 0 0 0 0 0 0 0 0 0 0 0 0 0 0 0 0 0 0 0 0 0 1 0 0 1 0 0 0 0
0 0 0 0 0 0 0 0 0 0 0 0 0 0 0 0 0 0 0 0 0 0 0 0 0 0 0 0 0 0 0 0 0 0 0 0 0 0 0 0 0 0 0 3 0 0 0
0 0 0 0 0 0 0 0 0 0 0 0 0 0 0 0 0 0 0 0 0 0 0 0 0 0 0 0 0 0 0 0 0 0 0 0 0 0 0 0 0 0 0 0 2 0 0
0 0 0 0 0 0 0 0 0 0 0 0 0 0 0 0 0 0 0 0 0 0 0 0 0 0 0 0 0 0 0 0 0 0 0 0 0 0 0 0 0 0 0 0 0 1 0
0 0 0 0 0 0 0 0 0 0 0 0 0 0 0 0 0 0 0 0 0 0 0 0 0 0 0 0 0 0 0 0 0 0 0 0 0 0 0 0 0 0 0 0 0 0 0
0 0 0 0 0 0 0 0 0 0 0 0 0 0 0 0 0 0 0 0 0 0 0 0 0 0 0 0 0 0 0 0 0 0 0 0 0 0 0 0 0 0 0 0 0 0 0
0 0 0 0 0 0 0 0 0 0 0 0 0 0 0 0 0 0 0 0 0 0 0 0 7 0 0 0 0 0 0 0 0 0 0 0 0 0 0 0 0 0 0 0 0 0 0
0 0 2 0 0 0 0 0 0 0 0 0 0 0 0 0 0 0 0 0 0 0 0 0 0 0 0 0 0 0 0 0 0 0 0 0 0 0 0 0 0 0 0 0 0 0 0
0 0 3 0 0 0 0 0 0 0 0 0 0 0 0 0 0 0 0 0 0 0 0 0 0 0 0 5 6 0 0 0 0 0 0 0 1 0 0 0 0 0 0 0 0 0 0
0 0 3 1 0 0 0 0 0 0 0 0 0 0 0 0 0 0 0 0 0 0 0 0 0 1 0 12 7 1 0 0 0 0 0 0 0 0 0 0 0 0 0 0 0 0 0
0 0 1 1 0 0 0 1 0 2 0 0 0 0 0 0 0 0 0 0 0 0 0 0 0 1 1 0 0 0 0 0 0 0 0 0 0 0 0 0 0 0 0 0 0 0 0

GFSGBSN_con_mlcape_075.txt.gz
CAPE
3 1 0 1 1 12 7 5 15 9 15 13 8 11 18 14 16 6 2 16 10 6 0 0 23 73 1 0 0 0 0 15 63 32 20 3 28 3 1 17 4 5 10 56 48 26 5
0 1 1 2 6 5 11 12 15 6 14 27 13 8 13 14 20 6 14 0 10 2 1 6 61 35 0 0 0 0 0 0 0 19 1 8 29 0 18 23 4 4 1 30 63 13 0
0 0 1 1 3 3 4 15 15 10 11 25 29 6 12 17 16 24 13 26 0 0 4 46 20 0 0 0 0 0 0 0 0 0 0 0 24 15 22 25 34 27 0 7 11 13 4
0 0 0 1 4 6 8 11 15 12 4 21 18 19 6 9 14 12 25 10 2 0 0 41 70 0 0 0 0 0 0 0 0 0 0 2 4 7 20 25 34 25 22 0 0 0 0
0 0 0 1 2 7 7 7 8 5 16 23 21 20 7 8 14 7 19 4 0 0 0 26 0 0 0 0 0 0 0 0 3 3 13 16 13 6 12 13 14 15 0 1 3 1 0
0 0 0 0 2 5 6 6 5 7 22 24 22 24 14 6 9 8 18 0 0 0 0 0 0 0 0 0 0 0 1 0 12 9 14 5 1 6 1 1 0 0 0 2 0 3 2
0 0 0 1 1 4 5 5 5 3 18 21 17 19 11 5 11 6 3 0 0 0 0 0 0 0 0 0 0 4 0 0 0 6 1 7 1 0 0 11 0 0 0 0 3 0 0
0 0 0 1 1 2 6 7 4 5 14 19 16 14 3 2 10 7 0 0 0 0 0 0 0 0 0 0 0 15 0 0 0 1 0 1 0 0 4 15 2 0 0 0 0 0 0
0 0 0 0 2 2 6 2 5 8 13 12 13 7 2 9 2 0 0 0 0 0 0 0 0 0 0 0 1 22 5 0 0 0 2 12 0 1 5 38 8 0 0 0 0 0 0
0 0 0 0 1 1 4 3 4 4 8 9 3 2 3 2 0 0 0 0 0 0 0 0 0 0 0 0 0 14 4 0 0 0 8 19 2 0 3 20 9 0 0 0 0 0 0
0 0 0 1 0 2 2 4 4 5 9 7 2 3 4 1 0 0 0 0 0 0 0 1 0 2 0 2 1 4 8 0 0 0 0 7 0 1 0 13 30 3 0 0 0 0 0
0 0 0 0 1 1 1 3 1 2 1 1 3 2 2 0 0 0 0 0 0 0 0 0 1 0 0 0 2 1 5 10 0 0 0 0 4 5 0 12 6 0 0 0 0 0 0
0 0 0 0 0 1 1 1 1 5 1 5 3 2 0 0 0 0 1 0 0 0 0 0 0 1 0 1 0 0 2 0 0 3 7 8 2 2 4 8 0 0 0 0 2 2 0
0 0 0 0 0 0 0 2 5 6 5 3 0 1 0 0 0 0 0 0 0 0 0 0 1 0 0 0 1 1 0 0 0 0 2 0 2 4 0 0 0 0 0 0 0 0 0
0 0 0 0 0 0 0 3 4 4 2 0 0 0 0 0 0 0 0 0 0 0 0 0 0 0 0 5 1 6 0 0 0 0 0 0 0 0 0 0 0 0 0 0 0 0 0
0 0 0 0 0 0 0 1 3 2 1 0 0 0 0 0 0 0 0 0 0 0 0 0 0 0 0 0 2 0 0 0 0 0 0 0 0 0 0 0 0 2 0 0 0 0 0
0 0 0 0 0 0 0 0 1 1 0 0 0 0 0 0 0 0 0 0 0 0 0 0 0 0 0 2 0 0 0 0 0 1 0 0 0 0 3 0 0 0 0 0 0 0 0
0 0 0 0 0 0 0 0 1 0 0 0 0 0 0 0 1 0 0 0 0 0 0 0 0 0 0 0 0 0 0 0 0 0 0 0 0 0 0 0 0 0 0 0 0 0 0
0 0 0 0 0 0 0 0 0 0 0 0 0 0 0 0 0 0 0 0 0 0 0 0 0 0 0 0 0 0 0 0 0 0 0 0 0 0 0 0 0 0 0 0 0 0 0
0 0 0 0 0 0 0 0 0 0 0 0 0 0 0 0 0 0 0 0 0 0 0 0 0 0 0 0 0 0 0 0 0 0 0 0 0 0 0 0 0 0 0 0 0 0 0
0 0 0 0 0 0 0 0 0 0 0 0 0 0 0 0 0 0 0 0 0 0 0 0 0 0 0 0 0 0 0 0 0 0 0 0 0 0 0 0 0 0 0 0 0 0 0
0 0 0 0 0 0 0 0 0 0 0 0 0 0 0 0 0 0 0 0 0 0 0 0 0 0 0 0 0 0 0 0 0 0 0 0 0 0 0 0 0 0 0 0 0 0 0
0 0 0 0 0 0 0 0 0 0 0 0 0 0 0 0 0 0 0 0 0 0 0 0 0 0 0 0 0 0 0 0 0 0 0 0 0 0 0 0 0 0 0 0 0 0 0
0 0 0 0 0 0 0 0 0 0 0 0 0 0 0 0 0 0 0 0 0 0 0 0 0 0 0 0 0 0 0 0 0 0 0 0 0 0 0 0 0 0 0 0 0 0 0
0 0 0 0 0 0 0 0 0 0 0 0 0 0 0 0 0 0 0 0 0 0 0 0 1 0 0 0 0 0 0 0 0 0 0 0 0 0 0 0 0 0 0 0 0 0 0
0 0 0 0 0 0 0 0 0 0 0 0 0 0 0 0 0 0 0 0 0 0 0 0 0 0 0 0 1 0 0 0 0 0 0 0 0 0 0 0 0 0 0 0 0 0 0
0 0 1 0 0 0 0 0 0 0 0 0 0 0 0 0 0 0 0 0 0 0 0 0 0 0 0 2 2 0 0 0 0 0 0 0 0 0 0 0 0 0 0 0 0 0 0
0 0 2 0 0 0 0 0 0 0 0 0 0 0 0 0 0 0 0 0 0 0 0 0 0 0 1 16 11 0 0 0 0 0 0 0 0 0 0 0 0 0 0 0 0 0 0
0 0 3 0 0 0 0 0 0 0 0 0 0 0 0 0 0 0 0 0 0 0 0 0 0 0 1 0 0 0 0 0 0 0 0 0 0 0 0 0 0 0 0 0 0 0 0

GFSGBSN_con_mlcape_078.txt.gz
CAPE
4 2 1 4 2 0 1 4 8 7 11 18 39 13 4 11 17 19 10 0 10 4 0 0 0 30 0 0 0 0 0 40 129 23 26 34 42 23 9 25 56 37 56 100 94 75 46
3 4 2 3 4 0 1 2 17 10 12 17 33 27 7 7 19 24 5 17 3 2 1 0 22 6 0 0 0 0 0 6 12 28 5 31 51 14 22 15 16 27 31 75 81 30 8
2 1 1 2 4 2 2 5 8 5 11 22 31 24 14 9 13 14 14 19 0 0 0 26 0 0 0 0 0 0 0 0 0 14 20 2 47 24 13 10 26 40 9 67 49 49 54
1 2 1 1 3 2 3 3 6 11 16 21 32 26 17 7 11 15 0 34 20 0 0 34 12 0 0 0 6 2 0 0 0 0 0 0 2 33 29 35 54 34 20 39 48 69 17
0 1 0 0 2 3 2 3 3 9 7 27 31 22 20 9 5 12 1 13 12 0 0 6 0 0 0 1 1 1 21 21 8 0 0 3 14 21 16 10 17 30 0 1 19 32 2
1 1 0 0 1 2 4 3 4 3 12 19 25 21 20 9 7 9 12 8 4 0 0 0 0 0 0 0 0 0 43 34 31 0 3 10 7 12 12 13 1 2 6 22 20 13 12
1 0 0 0 1 1 3 3 1 6 9 19 20 15 14 7 8 10 9 0 0 0 1 0 0 0 0 0 0 30 23 11 29 3 1 7 0 1 1 0 9 15 13 2 16 5 4
2 0 0 0 0 1 1 2 1 4 12 17 14 12 12 11 15 5 0 0 0 0 0 0 0 0 0 0 0 32 2 6 19 0 7 1 1 7 13 10 0 10 19 16 6 2 8
2 0 0 0 0 1 0 2 2 4 5 7 13 10 8 10 3 0 0 0 0 0 0 0 0 0 0 0 0 1 9 2 2 0 0 4 2 7 3 11 3 9 6 16 0 8 6
2 1 0 0 0 0 0 1 2 3 7 9 11 8 8 5 0 0 0 0 0 0 0 0 2 2 0 1 14 5 5 2 0 2 1 5 8 0 11 11 8 2 2 0 0 0 0
2 0 0 0 0 0 0 0 3 3 3 6 6 4 5 2 0 0 0 0 0 0 1 1 1 6 1 9 2 5 0 2 0 4 2 4 0 0 2 12 5 0 0 0 0 0 1
2 1 0 0 0 0 0 1 1 1 3 1 1 4 3 0 0 0 0 0 0 0 0 1 2 2 1 0 7 1 7 3 4 8 0 4 2 1 3 14 5 0 0 0 4 11 4
1 0 0 0 0 0 0 0 2 2 1 5 1 1 0 0 0 0 4 0 0 0 0 0 0 3 0 0 1 0 2 1 1 5 0 3 1 3 1 23 0 3 5 2 2 3 1
2 0 0 0 0 0 0 0 1 1 5 4 0 0 0 0 0 0 0 0 0 0 0 1 0 0 0 0 0 5 0 1 0 9 0 4 1 1 13 5 0 14 4 2 0 0 0
3 0 0 0 0 0 0 0 0 1 2 0 0 0 0 0 0 0 0 0 0 0 0 3 1 0 0 0 1 13 7 0 0 0 0 0 0 1 0 1 0 1 5 0 0 0 0
2 0 0 0 0 0 0 0 0 1 0 0 0 0 0 0 0 0 0 0 0 0 0 0 1 0 1 7 3 2 0 0 0 0 0 0 0 3 2 0 0 2 0 0 0 0 0
2 0 0 0 0 0 0 0 0 0 0 0 0 1 0 0 0 0 0 0 0 0 0 0 0 1 0 0 1 1 1 0 0 0 3 0 0 0 1 1 4 0 0 0 0 0 0
1 0 0 0 0 0 0 0 0 0 0 0 0 0 0 0 0 0 0 0 0 0 0 0 0 0 0 0 0 0 0 0 0 0 0 0 0 1 0 0 0 0 0 0 3 0 0
1 0 0 0 0 0 0 0 0 0 0 0 0 1 0 0 0 0 0 0 0 0 0 0 0 0 0 0 0 0 0 0 0 0 0 0 0 1 0 0 0 0 0 0 0 0 0
0 0 0 0 0 0 0 0 0 0 0 0 0 0 0 0 0 0 0 0 0 0 0 0 0 0 0 0 0 0 0 0 0 0 0 0 0 0 0 0 0 0 0 0 0 0 0
0 0 0 0 0 0 0 0 0 0 0 0 0 0 0 0 0 0 0 0 0 0 0 0 0 0 0 0 0 0 0 0 0 0 0 0 0 0 0 0 0 0 0 0 0 0 0
1 0 0 0 0 0 0 0 0 0 0 0 0 0 0 0 0 0 0 0 0 0 0 0 0 0 0 0 0 0 0 0 0 0 0 0 0 0 0 0 0 0 0 0 0 0 0
0 0 0 0 0 0 0 0 0 0 0 0 0 0 0 0 0 0 0 0 0 0 0 0 0 0 0 0 0 0 0 0 0 0 0 0 0 0 0 0 0 0 0 0 0 0 0
1 0 0 0 0 0 0 0 0 0 0 0 0 0 0 0 0 0 0 0 0 0 0 0 0 0 0 0 0 0 0 0 0 0 0 0 0 0 0 0 0 0 0 0 0 0 0
1 1 0 0 0 0 0 0 0 0 0 0 0 0 0 0 0 0 0 0 0 0 0 0 0 0 0 0 0 0 0 0 0 0 0 0 0 0 0 0 0 0 0 0 0 0 0
1 1 0 0 0 0 0 0 0 0 0 0 0 0 0 0 0 0 0 0 0 0 0 0 0 0 0 0 0 0 0 0 0 0 0 0 0 0 0 0 0 0 0 0 0 0 0
2 0 0 0 0 0 0 0 0 0 0 0 0 0 0 0 0 0 0 0 0 0 0 0 0 0 0 5 10 2 0 0 0 0 0 0 0 0 1 0 0 0 0 0 0 0 0
2 0 0 0 0 0 0 0 0 0 0 0 0 0 0 0 0 0 0 0 0 0 0 0 0 1 0 11 11 2 0 0 0 0 0 0 0 0 1 2 0 0 0 0 0 0 0
1 0 0 0 0 0 0 0 0 0 0 0 0 0 0 0 0 0 0 0 0 0 0 0 0 0 1 0 0 1 4 0 0 0 0 0 0 0 0 0 0 0 0 0 0 0 0

GFSGBSN_con_mlcape_081.txt.gz
CAPE
2 4 3 2 2 1 2 3 1 10 8 11 19 27 27 7 10 24 26 21 9 0 0 0 0 0 0 1 2 0 0 14 138 39 2 61 80 64 16 5 18 70 97 137 115 203 43
3 3 4 3 1 1 1 3 5 4 7 10 24 27 19 11 8 17 13 31 0 0 0 0 0 0 0 16 0 0 0 27 82 33 22 2 18 38 17 12 6 22 117 137 159 76 94
5 2 4 2 2 2 0 2 2 6 7 12 24 30 24 18 4 10 19 31 21 0 0 0 0 0 0 1 8 1 0 7 7 54 43 17 0 29 1 22 61 101 65 195 93 114 82
5 2 2 2 2 1 0 0 2 5 7 12 21 31 25 28 9 3 24 17 25 0 0 1 0 0 1 1 44 9 12 21 0 0 2 1 11 1 50 20 73 52 81 66 74 100 82
3 3 1 2 2 0 1 0 1 5 6 13 17 24 22 20 14 10 14 16 14 0 0 0 3 2 12 8 25 2 52 19 8 0 7 18 17 11 67 40 37 50 18 17 45 112 52
4 5 1 1 0 1 1 0 1 2 5 8 16 16 17 13 12 9 13 18 10 0 1 0 0 1 0 24 3 0 30 4 25 0 16 13 11 1 28 26 6 6 19 29 26 43 32
5 3 1 1 0 0 0 1 0 1 3 9 13 13 14 13 15 16 9 9 5 2 2 0 0 0 0 0 0 44 7 3 8 0 1 2 0 0 2 12 0 0 14 12 29 16 7
3 3 1 0 0 0 0 0 0 1 3 10 6 12 9 10 11 9 8 3 0 0 1 0 0 0 0 0 0 31 0 5 10 0 13 1 0 1 8 29 42 60 33 2 7 1 0
2 3 2 0 0 0 1 0 0 0 5 10 7 9 6 8 5 1 5 0 0 0 2 1 0 9 5 0 16 3 1 2 16 0 0 3 1 2 3 14 46 13 4 18 6 5 11
1 3 3 0 0 0 0 0 0 1 5 8 6 8 6 3 0 1 2 0 0 0 3 1 5 3 8 0 4 0 0 6 5 1 0 14 1 4 19 11 8 15 17 10 5 6 0
1 3 2 0 0 0 1 0 0 1 4 5 7 6 5 1 2 0 1 0 0 0 1 1 6 0 3 10 6 0 0 14 4 0 1 1 3 0 13 11 1 19 3 1 13 15 10
2 5 2 0 0 0 0 0 0 0 2 2 5 5 2 0 6 2 0 0 1 0 0 0 4 3 8 9 3 2 6 1 19 4 12 5 7 0 16 26 7 0 4 4 8 8 4
1 5 2 0 0 0 0 0 0 0 1 0 0 0 1 0 2 2 0 0 0 0 0 0 0 2 1 0 1 2 1 19 2 0 4 3 2 1 9 9 8 7 2 6 6 3 1
2 4 1 0 0 0 0 0 0 0 1 0 1 0 0 0 2 0 3 0 0 1 1 1 0 0 5 3 0 1 0 7 0 2 0 0 0 5 12 15 4 10 0 0 0 0 0
2 4 0 0 0 0 0 0 0 0 0 0 0 2 2 0 0 0 2 1 0 0 2 0 1 1 1 0 1 3 2 16 8 23 14 0 0 0 2 17 10 25 17 0 0 0 3
3 2 1 0 0 0 0 0 0 0 0 0 2 5 6 0 0 0 1 0 0 0 0 3 3 7 1 6 0 2 0 0 0 0 1 5 0 1 10 1 0 6 6 0 0 0 0
4 2 1 0 0 0 0 0 0 0 0 0 3 3 1 0 1 2 1 2 0 0 0 0 8 0 0 2 0 0 3 0 0 0 0 1 12 2 11 1 11 0 0 4 4 0 0
4 2 1 0 0 0 0 0 0 0 0 0 6 1 0 0 2 1 5 0 0 0 0 0 0 5 11 8 15 16 1 0 0 0 0 0 3 0 3 4 0 5 15 17 6 0 0
4 1 1 0 0 0 0 0 0 0 0 0 2 0 0 0 0 3 0 0 2 0 0 0 0 0 0 1 7 1 2 0 0 0 0 0 2 1 2 4 0 0 0 0 6 0 0
5 3 1 0 0 0 0 0 0 0 0 0 0 0 2 0 0 0 3 4 0 0 0 0 0 0 0 0 0 2 0 0 2 0 0 0 3 3 4 1 0 0 0 0 2 0 0
6 4 1 0 0 0 0 0 0 0 0 0 0 0 0 0 0 0 0 2 3 0 0 0 0 0 0 0 0 0 0 0 0 0 0 0 0 0 0 0 0 0 0 0 3 0 0
6 4 2 0 0 0 0 0 0 0 0 0 0 0 0 0 0 0 0 4 9 0 0 0 0 0 0 1 0 1 0 4 3 0 0 0 0 0 0 0 0 0 0 0 0 0 1
6 5 2 0 0 0 0 0 0 0 0 0 0 0 0 0 0 0 0 2 3 0 0 0 0 0 0 0 0 0 0 0 0 2 1 1 4 0 1 0 0 0 0 0 0 0 0
5 4 3 0 0 0 0 0 0 0 0 0 0 0 0 0 0 0 0 0 0 0 2 0 0 0 0 0 0 0 0 0 0 0 0 0 0 2 0 0 0 0 0 0 0 0 0
6 5 3 0 0 0 0 0 0 0 0 0 0 0 0 0 0 0 0 0 0 0 0 0 0 0 0 0 0 0 0 0 0 0 0 0 0 1 0 1 0 0 0 0 0 0 0
5 6 4 0 0 0 0 0 0 0 0 0 0 0 0 0 0 0 0 0 0 0 0 0 0 0 0 0 3 4 3 1 0 0 0 0 0 0 0 0 0 0 0 0 0 0 0
6 6 3 0 0 0 0 0 0 0 0 0 0 0 0 0 0 0 0 0 0 0 0 0 0 0 0 12 13 5 4 0 0 1 0 1 3 2 2 0 0 0 0 0 0 0 0
5 5 3 0 0 0 0 0 0 0 0 0 0 0 0 0 0 0 0 0 0 0 0 0 0 0 4 9 8 11 5 2 0 0 0 0 2 4 5 6 0 0 0 0 0 0 0
5 4 1 1 0 0 0 0 0 0 0 0 0 0 0 0 0 0 0 0 0 0 0 0 0 0 0 0 0 1 2 0 0 1 0 0 0 0 0 4 0 0 0 0 0 0 0

GFSGBSN_con_mlcape_084.txt.gz
CAPE
4 4 2 3 1 1 3 2 1 2 3 5 4 29 27 33 10 0 19 27 13 0 1 0 0 0 0 23 15 0 4 14 125 51 32 20 39 70 28 0 16 8 17 6 0 9 0
5 4 3 5 4 1 1 1 4 1 2 6 6 28 19 33 20 3 11 16 21 0 0 1 0 0 6 25 0 17 0 31 94 92 45 35 44 68 62 7 19 40 44 64 48 3 25
6 4 5 2 3 1 0 1 2 3 4 5 11 14 26 30 29 5 7 18 14 5 0 0 30 7 0 26 5 31 21 91 29 6 14 28 21 0 17 36 11 75 63 64 62 3 3
12 6 5 2 4 1 0 0 2 3 5 5 6 11 28 18 26 12 1 7 7 13 0 0 8 4 3 3 19 4 40 51 6 0 5 5 1 0 4 4 21 62 72 52 62 30 7
7 33 6 3 3 2 0 1 1 4 5 3 5 15 15 19 17 12 6 4 7 0 0 0 0 17 7 8 39 0 14 20 2 0 0 8 0 3 1 7 31 44 11 11 51 85 44
3 4 10 2 2 2 0 0 1 4 6 2 5 10 12 13 10 9 13 0 2 0 0 0 0 0 3 17 8 0 14 1 28 0 4 2 1 0 0 18 5 7 20 9 1 5 37
0 0 8 3 2 1 0 0 0 4 4 2 6 7 13 11 13 10 5 0 0 0 0 0 0 0 14 0 0 31 2 0 9 0 0 5 0 0 0 0 0 0 0 0 7 30 13
0 0 6 4 2 1 0 0 0 4 3 4 7 10 7 7 9 5 0 1 0 0 1 0 0 0 0 0 0 34 8 10 11 0 1 1 0 0 17 20 4 39 3 9 42 41 9
0 0 12 4 2 1 0 0 0 3 4 4 6 7 5 11 3 0 1 0 0 0 0 0 0 0 0 0 2 3 0 6 1 0 1 0 2 0 0 0 0 0 0 0 5 3 2
0 0 17 4 3 1 0 0 0 1 2 4 5 5 6 3 0 3 0 0 0 0 0 0 7 3 2 2 2 3 7 6 1 0 1 1 2 0 0 7 33 7 39 25 17 0 0
0 2 15 3 3 2 0 0 0 1 2 4 4 3 7 0 1 1 0 0 0 0 0 0 5 0 0 12 0 4 0 6 2 0 0 0 2 1 3 0 21 3 26 58 29 34 22
7 2 7 3 3 1 0 0 0 0 1 0 1 6 0 0 4 0 0 0 0 0 0 0 1 2 2 3 4 2 10 0 3 0 2 2 1 0 0 3 1 0 17 4 1 10 0
32 24 9 2 3 1 0 0 0 0 0 0 0 0 0 1 5 1 0 0 0 0 0 0 0 2 0 2 1 0 1 0 0 0 0 0 0 0 0 5 7 14 0 0 0 0 0
50 14 30 3 3 1 0 0 0 0 0 0 0 0 0 1 0 0 1 0 0 0 3 0 0 0 0 0 0 0 0 1 0 0 0 0 0 0 2 21 4 8 2 0 0 0 0
100 31 2 4 3 0 0 0 0 0 0 0 0 2 3 0 0 0 1 0 0 0 0 0 0 1 1 0 0 0 0 0 0 0 0 0 1 0 0 16 16 8 0 0 0 0 0
87 21 2 4 2 0 0 0 0 0 0 0 1 3 4 0 0 1 0 0 0 0 5 0 2 2 0 0 0 0 0 0 0 0 0 0 0 0 5 6 6 10 6 0 0 0 0
0 17 3 4 1 0 0 0 0 0 0 0 0 3 0 0 2 0 0 0 0 0 0 0 6 1 0 0 0 0 1 0 0 0 0 0 0 1 10 0 3 6 3 1 0 0 0
0 1 4 4 0 0 0 0 0 0 0 0 1 0 0 1 1 0 1 0 0 0 0 0 0 3 3 0 0 6 0 0 0 0 0 0 0 0 0 0 0 0 0 2 0 0 0
21 2 5 5 0 0 0 0 0 0 0 0 1 0 0 0 0 0 0 0 2 0 0 0 0 0 0 2 5 0 0 0 0 0 0 0 2 0 0 0 0 0 0 8 1 0 0
0 1 5 4 1 0 0 0 0 0 0 0 0 0 0 0 0 0 0 0 0 0 0 0 0 0 0 0 0 1 0 0 0 0 0 0 3 1 0 0 0 0 0 0 1 0 0
0 2 4 5 1 0 0 0 0 0 0 0 0 0 0 0 0 0 3 0 2 0 0 0 0 0 0 0 0 3 0 0 0 0 0 0 0 0 0 0 0 0 0 0 0 0 0
0 15 5 6 2 0 0 0 0 0 0 0 0 0 0 0 0 0 0 0 2 0 0 0 1 0 0 0 0 2 0 0 0 0 0 0 0 0 0 0 0 0 0 0 0 0 0
0 11 6 5 3 0 0 0 0 0 0 0 0 0 0 0 0 0 0 1 0 1 0 0 0 0 0 0 0 0 0 0 0 0 0 0 0 0 0 0 0 0 0 0 0 0 0
2 4 5 6 1 0 0 0 0 0 0 0 0 0 0 0 0 0 0 0 0 0 0 0 0 0 0 0 0 0 0 0 0 0 0 0 0 0 0 0 0 0 0 0 0 0 0
8 28 9 6 3 0 0 0 0 0 0 0 0 0 0 0 0 0 0 0 0 0 0 0 0 0 0 0 0 0 0 0 0 0 0 0 0 3 0 1 0 0 0 0 0 0 0
17 7 6 5 1 0 0 0 0 0 0 0 0 0 0 0 0 0 0 0 0 0 0 0 0 0 0 0 0 0 0 2 0 0 0 0 0 0 0 0 0 0 0 0 0 0 0
30 6 6 5 2 0 0 0 0 0 0 0 0 0 0 0 0 0 0 0 0 0 0 0 0 0 0 0 3 1 1 0 0 0 0 0 0 0 0 2 0 0 0 0 0 0 0
5 5 6 5 1 0 0 0 0 0 0 0 0 0 0 0 0 0 0 0 0 0 0 0 0 0 0 2 4 0 0 0 0 0 0 1 0 0 0 0 0 0 0 0 0 0 0
11 6 5 5 4 0 0 0 0 0 0 0 0 0 0 0 0 0 0 0 0 0 0 0 0 0 0 0 0 0 0 0 0 0 0 0 0 0 0 0 0 0 0 0 0 0 0

GFSGBSN_con_mlcape_087.txt.gz
CAPE
7 4 2 3 1 0 1 1 1 3 5 7 2 8 31 12 19 17 0 23 20 14 0 1 0 0 0 4 8 11 45 19 81 86 35 3 1 6 8 0 27 58 15 0 2 20 0
36 9 4 4 1 1 1 0 1 4 3 7 7 15 20 28 22 24 6 3 22 24 0 0 0 0 0 0 0 0 20 122 64 50 92 19 2 2 32 38 18 0 13 4 3 14 0
17 23 10 4 4 1 0 0 1 1 3 5 6 10 19 24 25 21 5 1 13 16 2 0 0 0 0 0 0 0 92 129 15 2 31 32 1 20 3 40 0 0 0 11 25 0 0
32 23 41 15 4 2 0 0 1 2 2 7 4 10 23 19 12 16 6 0 5 8 0 0 0 0 0 0 0 0 4 40 1 0 0 0 17 1 1 0 0 1 43 31 34 5 1
54 40 35 56 9 3 2 0 1 1 2 5 7 11 20 15 13 7 1 3 0 0 0 0 0 1 0 10 6 0 0 9 0 1 0 0 10 2 10 13 25 24 17 31 55 32 3
8 41 40 28 25 3 2 0 0 0 1 3 7 9 13 8 9 8 0 0 0 0 0 0 0 1 3 6 0 0 3 3 19 4 0 0 0 0 2 14 2 0 0 23 7 3 0
10 14 14 27 30 3 3 0 0 0 1 3 4 11 8 8 10 8 0 0 0 0 0 0 0 0 0 0 0 15 0 0 1 2 0 2 0 0 0 0 0 7 0 0 20 14 7
3 2 65 18 26 3 2 1 0 0 0 1 3 9 7 5 6 4 0 0 0 0 0 0 0 0 0 0 1 7 0 0 12 0 0 1 0 0 0 0 2 26 15 14 15 37 23
2 10 3 14 3 6 3 1 0 0 0 1 1 7 4 7 2 0 0 0 0 0 0 0 0 0 0 0 0 0 0 0 0 0 0 0 2 3 1 14 10 9 18 18 4 25 37
0 3 4 60 0 8 3 1 0 0 0 0 0 3 4 4 0 0 0 0 0 0 0 0 4 2 1 0 0 0 0 0 1 1 1 0 1 13 1 0 0 0 0 2 10 2 0
1 7 8 47 0 4 3 1 0 0 0 0 0 4 4 0 1 0 0 0 0 0 0 3 0 0 3 4 0 0 0 2 2 4 2 2 0 0 6 0 0 8 0 0 5 0 0
0 7 6 22 0 6 3 2 0 0 0 0 0 1 2 0 0 0 0 0 0 0 0 0 0 0 0 3 8 0 0 0 0 1 0 2 1 0 0 0 0 0 0 12 0 3 6
2 21 1 19 0 2 3 2 0 0 0 0 0 0 0 2 1 0 0 0 0 0 0 0 0 0 0 0 0 0 0 0 0 0 0 0 0 0 0 0 0 1 0 0 0 0 0
1 19 1 7 7 0 4 1 0 0 0 0 0 0 0 1 0 0 0 0 0 0 0 0 0 0 0 0 0 0 0 0 0 0 0 0 0 0 0 0 0 0 0 0 0 0 0
40 15 0 7 0 5 5 0 0 0 0 0 0 0 0 0 0 0 0 0 0 0 0 0 0 0 0 0 0 0 0 0 0 0 0 0 0 0 0 0 0 0 0 0 0 0 0
50 13 8 17 1 6 5 0 0 0 0 0 0 4 0 0 0 0 0 0 0 0 1 0 0 0 0 0 0 0 0 0 0 0 0 0 0 0 0 0 0 0 0 0 0 0 0
42 31 8 18 3 5 3 0 0 0 0 0 0 4 1 0 0 0 0 0 0 0 0 0 0 0 0 0 0 0 0 0 0 0 0 0 0 0 0 0 0 0 0 0 0 0 0
37 13 2 0 5 5 3 0 1 0 0 0 0 0 0 0 0 0 0 0 0 0 0 0 0 0 0 0 0 0 0 0 0 0 0 0 0 0 0 0 0 0 0 0 0 0 0
43 0 2 3 5 5 1 0 0 0 0 0 0 0 0 2 0 0 0 0 0 0 0 0 0 0 1 2 2 0 0 0 0 0 0 0 0 0 0 0 0 0 0 3 0 0 0
35 0 6 4 4 4 1 1 0 0 0 0 0 0 2 1 0 0 0 0 0 0 0 0 0 0 0 0 0 0 0 0 0 0 0 0 0 0 0 0 0 0 0 0 0 0 0
23 13 2 4 4 5 1 0 0 0 0 0 0 0 0 0 0 0 0 0 0 0 0 0 0 0 0 0 0 0 0 0 0 0 0 0 0 0 0 0 0 0 0 0 0 0 0
23 28 8 6 6 6 2 0 0 0 1 0 0 0 0 0 0 0 0 0 0 0 0 0 0 0 0 0 0 0 0 0 0 0 0 0 0 0 0 0 0 0 0 0 0 0 0
24 8 2 13 9 5 0 0 0 0 0 0 0 0 0 0 0 0 0 0 0 0 0 0 0 0 0 0 0 0 0 0 0 0 0 0 0 0 0 0 0 0 0 0 0 0 0
31 0 3 1 7 4 0 0 0 0 0 0 0 0 0 0 0 0 0 0 1 0 0 0 0 0 0 0 0 0 0 0 0 0 0 0 0 0 0 0 0 0 0 0 0 0 0
4 1 25 34 6 4 0 0 0 0 0 0 0 0 0 0 0 0 0 0 0 0 0 0 0 0 0 0 0 0 0 0 0 0 0 0 0 0 0 0 0 0 0 0 0 0 0
10 0 5 18 3 5 4 0 0 0 0 0 0 0 0 0 0 0 0 0 0 0 0 0 0 0 0 0 0 0 0 0 0 0 0 0 0 0 0 0 0 0 0 0 0 0 0
4 2 16 1 5 5 8 0 0 0 0 0 0 0 0 0 0 0 0 0 0 0 0 0 0 0 0 0 0 0 0 0 0 0 0 0 0 0 0 0 0 0 0 0 0 0 0
1 0 5 5 5 5 0 0 0 0 0 0 0 0 0 0 0 0 0 0 0 0 0 0 0 0 0 0 0 0 0 0 0 0 0 0 0 0 0 0 0 0 0 0 0 0 0
0 4 2 5 5 3 0 0 0 0 0 0 0 0 0 0 0 0 0 0 0 0 0 0 0 0 0 0 0 0 0 0 0 0 0 0 0 0 0 0 0 0 0 0 0 0 0

GFSGBSN_con_mlcape_090.txt.gz
CAPE
22 7 10 28 22 6 3 1 0 0 0 5 4 4 12 9 32 22 20 0 12 25 16 0 2 0 0 0 0 0 3 19 150 103 5 6 4 6 13 7 15 18 22 0 0 21 8
35 48 25 12 32 23 4 4 0 0 0 4 6 5 5 8 25 25 28 5 1 26 28 0 3 8 0 0 0 0 1 69 88 11 20 21 0 3 1 12 12 1 20 0 20 1 0
8 5 60 46 21 42 8 5 1 0 0 3 4 3 5 7 17 14 21 7 3 16 30 9 0 0 0 0 0 0 121 129 37 3 3 2 21 6 12 3 6 19 19 0 10 26 0
6 5 4 31 54 39 67 4 1 0 0 3 3 2 2 8 13 15 4 6 9 0 14 22 0 0 0 0 0 0 5 61 19 0 0 0 1 0 20 18 7 22 37 21 30 31 0
1 6 5 0 6 54 44 3 2 0 1 1 4 2 0 1 10 7 5 0 3 2 1 0 0 0 0 0 9 0 0 12 6 10 4 0 8 7 2 14 7 33 11 0 26 13 6
9 11 4 3 0 48 40 19 4 2 1 1 2 0 2 0 6 6 6 0 0 0 0 0 0 0 0 0 0 0 0 0 13 3 8 2 8 0 0 1 0 26 20 14 5 5 5
15 13 8 4 2 1 37 23 4 2 1 0 0 0 1 0 1 1 2 0 0 0 0 0 0 0 0 0 0 0 0 1 4 4 0 1 0 0 0 1 0 8 13 17 18 1 0
5 6 8 5 5 1 33 5 4 4 1 1 0 0 0 0 1 6 0 0 0 0 0 0 0 0 0 0 2 4 0 6 10 0 1 0 0 0 0 2 10 34 2 23 33 0 0
14 10 16 8 5 2 24 9 4 3 3 2 0 0 0 0 0 0 0 0 0 0 0 0 0 0 0 0 0 0 0 4 1 0 0 2 1 0 1 2 22 30 0 2 0 8 12
13 13 21 6 3 0 19 12 4 3 3 0 0 0 0 0 0 0 0 0 0 0 0 0 0 0 0 1 0 0 0 0 2 0 0 0 4 0 2 0 0 0 0 0 0 0 0
14 16 14 5 13 0 7 11 3 3 1 0 0 0 0 0 0 0 0 0 0 0 0 0 0 0 0 0 0 0 0 1 3 2 1 0 6 1 4 0 0 0 1 3 6 0 0
24 22 30 26 4 11 3 7 5 3 0 0 0 0 0 0 0 0 0 0 0 0 0 0 0 0 0 3 0 0 0 0 4 2 0 1 0 0 0 0 0 4 13 2 0 0 0
26 13 39 29 0 5 2 2 5 3 0 0 0 0 0 0 0 0 0 0 0 0 0 0 0 0 0 0 0 0 0 0 0 0 0 0 0 0 0 9 5 16 6 2 0 0 0
27 30 13 0 6 1 13 3 4 4 0 0 0 0 0 0 0 0 0 0 0 0 0 0 0 0 0 0 0 0 0 0 0 0 0 0 0 0 0 0 0 0 0 0 0 0 0
30 17 9 20 7 27 19 5 6 1 0 0 0 0 0 0 0 0 0 0 0 0 0 0 0 0 0 0 0 0 0 0 0 0 0 0 0 0 0 0 0 0 0 0 0 0 0
30 33 25 21 6 6 13 5 7 1 0 0 0 0 0 0 0 0 0 0 0 0 0 0 0 0 0 0 0 0 0 0 0 0 0 0 0 0 0 0 0 0 0 0 0 0 0
39 40 50 10 18 12 3 7 6 1 0 0 0 0 0 0 0 0 0 0 0 0 0 0 0 0 0 0 0 0 0 0 0 0 0 0 0 0 0 0 0 0 0 0 0 0 0
21 45 16 25 1 19 4 7 2 0 0 0 0 0 1 0 1 0 0 0 0 0 0 0 0 0 0 0 0 0 0 0 0 0 0 0 0 0 0 0 0 0 0 0 0 0 0
12 37 28 12 1 3 4 5 0 0 0 0 0 1 0 2 0 0 0 0 0 0 0 0 0 0 0 0 0 0 0 0 0 0 0 0 0 0 0 0 0 0 0 0 0 0 0
12 25 35 22 21 3 5 3 0 1 0 0 0 0 1 4 0 0 0 0 0 0 0 0 0 0 0 0 0 0 0 0 0 0 0 0 0 0 0 0 0 0 0 0 0 0 0
5 37 32 10 3 4 4 2 0 0 0 0 0 0 0 0 0 0 0 0 0 0 0 0 0 0 0 0 0 0 0 0 0 0 0 0 0 0 0 0 0 0 0 0 0 0 0
12 40 49 28 8 6 4 3 0 0 0 0 0 0 0 0 0 0 0 0 0 0 0 0 0 0 0 0 0 0 0 0 0 0 0 0 0 0 0 0 0 0 0 0 0 0 0
11 32 22 12 39 7 4 6 0 0 0 0 0 0 0 0 0 0 0 0 0 0 0 0 0 0 0 0 0 0 0 0 0 0 0 0 0 0 0 0 0 0 0 0 0 0 0
23 15 2 4 9 1 6 10 3 0 0 0 0 0 0 0 0 0 0 0 0 0 0 0 0 0 0 0 0 0 0 0 0 0 0 0 0 0 0 0 0 0 0 0 0 0 0
20 28 21 10 7 3 4 4 6 0 0 0 0 0 0 0 0 0 0 0 0 0 0 0 0 0 0 0 0 0 0 0 0 0 0 0 0 0 0 0 0 0 0 0 0 0 0
9 21 25 13 24 6 3 7 15 6 0 0 0 0 0 0 0 0 0 0 0 0 0 0 0 0 0 0 0 0 0 0 0 0 0 0 0 0 0 0 0 0 0 0 0 0 0
16 8 10 0 14 3 5 0 5 0 0 0 0 0 0 0 0 0 0 0 0 0 0 0 0 0 0 0 0 0 0 0 0 0 0 0 0 0 0 0 0 0 0 0 0 0 0
1 0 3 2 5 3 4 3 3 0 0 0 0 0 0 0 0 0 0 0 0 0 0 0 0 0 0 0 0 0 0 0 0 0 0 0 0 0 0 0 0 0 0 0 0 0 0
2 0 1 1 3 6 4 0 0 1 0 0 0 0 0 0 0 0 0 0 0 0 0 0 0 0 0 0 0 0 0 0 0 0 0 0 0 0 0 0 0 0 0 0 0 0 0

GFSGBSN_con_mlcape_093.txt.gz
CAPE
12 6 12 11 56 66 55 35 10 3 4 5 6 1 5 1 6 14 9 21 6 8 34 2 0 1 0 0 0 0 0 0 64 128 31 9 16 2 4 9 1 14 18 0 0 29 21
7 2 4 5 5 6 80 65 68 5 4 3 7 3 5 0 5 7 14 20 6 2 23 6 0 0 0 0 0 0 0 11 103 40 12 2 1 1 9 8 7 6 0 13 0 1 1
5 5 5 1 1 2 4 21 93 4 3 6 3 6 4 0 7 5 2 13 4 0 19 31 0 0 0 0 0 0 4 67 97 25 15 4 41 14 0 1 0 18 13 4 0 10 10
10 7 7 6 2 1 3 2 20 4 3 3 8 6 1 0 2 1 7 3 0 7 9 22 0 0 0 0 0 0 0 48 55 32 0 0 1 35 6 2 32 2 5 6 30 16 38
9 6 9 5 11 3 1 1 2 55 5 4 7 6 1 3 0 0 0 0 0 9 1 0 0 0 0 0 0 0 0 0 20 22 2 19 8 5 3 2 12 10 15 0 44 12 6
14 12 8 7 11 12 6 3 3 46 5 1 4 3 0 0 0 0 0 0 0 0 0 0 0 0 0 0 0 0 0 3 0 7 3 5 8 0 0 8 2 0 29 10 5 50 8
1 2 13 25 3 14 7 9 0 32 5 3 7 2 0 0 0 0 0 0 0 0 0 0 0 0 0 0 0 0 0 0 1 1 0 2 1 0 0 0 0 0 0 1 1 1 2
4 1 1 3 33 12 13 2 7 1 4 2 4 1 0 0 0 0 0 0 0 0 0 0 0 0 0 0 0 0 0 0 5 0 0 0 0 0 1 1 0 5 12 1 4 4 0
13 4 2 4 10 11 11 3 13 2 4 4 1 4 0 0 0 0 0 0 0 0 0 0 0 0 0 0 0 0 0 0 1 1 0 2 2 0 0 0 0 1 16 22 0 11 4
13 9 17 6 9 27 16 6 1 1 5 4 1 2 0 0 0 0 0 0 0 0 0 0 0 0 0 0 0 0 1 1 0 0 1 17 2 0 0 5 7 0 34 17 2 0 0
30 24 19 21 15 11 10 14 7 0 4 3 0 0 0 0 0 0 0 0 0 0 0 0 0 0 0 1 0 0 0 4 1 7 1 2 1 0 3 5 2 7 0 0 1 1 0
92 28 56 49 21 14 12 12 4 0 7 4 0 1 0 0 0 0 0 0 0 0 0 0 0 0 0 0 0 0 2 0 0 1 1 1 0 0 1 9 14 18 13 2 0 0 0
136 102 133 118 17 18 34 11 0 2 6 5 2 2 0 0 0 0 0 0 0 0 0 0 0 0 0 0 0 0 0 1 0 0 0 0 0 0 0 7 1 6 1 0 2 3 0
153 106 100 134 22 32 15 2 0 5 5 5 6 5 0 0 0 0 0 0 0 0 0 0 0 0 0 0 0 0 0 0 0 0 0 0 0 0 0 4 0 0 0 0 0 0 0
128 80 35 33 10 5 10 8 2 6 4 14 13 0 0 0 0 0 0 0 0 0 0 0 0 0 0 0 0 0 0 0 0 0 0 0 0 0 0 0 0 0 0 0 0 0 0
72 53 37 18 24 25 9 4 41 4 10 10 0 0 0 0 0 0 0 0 0 0 0 0 0 0 0 0 0 0 0 0 0 0 0 0 0 0 0 0 0 0 0 0 0 0 0
45 32 43 33 38 8 13 1 5 5 14 2 0 0 0 0 0 0 0 0 0 0 0 0 0 0 0 0 0 0 0 0 0 0 0 0 0 0 0 0 0 0 0 0 0 0 0
35 30 38 30 37 25 0 13 3 12 5 0 0 0 0 0 0 0 0 0 0 0 0 0 0 0 0 0 0 0 0 0 0 0 0 0 0 0 0 0 0 0 0 0 0 0 0
31 27 9 27 14 7 0 4 1 7 0 0 0 1 1 4 0 0 0 0 0 0 0 0 0 0 0 0 0 0 0 0 0 0 0 0 0 0 0 0 0 0 0 0 0 0 0
24 20 5 28 0 2 3 4 7 8 0 0 0 1 6 11 0 0 0 0 0 0 0 0 0 0 0 0 0 0 0 0 0 0 0 0 0 0 0 0 0 0 0 0 0 0 0
18 2 20 24 1 5 3 6 5 13 0 0 0 0 0 0 1 0 0 0 0 0 0 0 0 0 0 0 0 0 0 0 0 0 0 0 0 0 0 0 0 0 0 0 0 0 0
14 2 32 6 2 2 5 9 24 8 2 0 0 0 0 0 0 0 0 0 0 0 0 0 0 0 0 0 0 0 0 0 0 0 0 0 0 0 0 0 0 0 0 0 0 0 0
3 8 14 33 7 8 9 13 21 31 0 0 0 0 0 0 0 0 0 0 0 0 0 0 0 0 0 0 0 0 0 0 0 0 0 0 0 0 0 0 0 0 0 0 0 0 0
1 13 18 5 2 8 3 11 39 28 0 0 0 0 0 0 0 0 0 0 0 0 0 0 0 0 0 0 0 0 0 0 0 0 0 0 0 0 0 0 0 0 0 0 0 0 0
2 18 19 18 15 2 1 7 31 34 0 0 0 0 0 0 0 0 0 0 0 0 0 0 0 0 0 0 0 0 0 0 0 0 0 0 0 0 0 0 0 0 0 0 0 0 0
6 10 7 4 38 7 3 12 25 33 0 0 0 0 0 0 0 0 0 0 0 0 0 0 0 0 0 0 0 0 0 0 0 0 0 0 0 0 0 0 0 0 0 0 0 0 0
2 5 3 0 32 3 9 4 0 20 0 0 0 0 0 0 0 0 0 0 0 0 0 0 0 0 0 0 0 0 0 0 0 0 0 0 0 0 0 0 0 0 0 0 0 0 0
5 2 2 0 21 12 2 4 2 4 0 0 0 0 0 0 0 0 0 0 0 0 0 0 0 0 0 0 0 0 0 0 0 0 0 0 0 0 0 0 0 0 0 0 0 0 0
0 2 0 0 12 3 1 0 0 0 0 0 0 0 0 0 0 0 0 0 0 0 0 0 0 0 0 0 0 0 0 0 0 0 0 0 0 0 0 0 0 0 0 0 0 0 0

GFSGBSN_con_mlcape_096.txt.gz
CAPE
2 4 2 10 10 5 2 2 2 2 75 6 6 5 6 9 6 12 17 5 5 0 1 24 5 23 0 0 0 0 10 0 0 3 6 0 0 2 0 0 4 4 0 12 0 17 11
14 10 14 8 3 5 8 5 2 0 3 11 4 0 8 11 7 16 0 12 9 0 0 16 2 7 0 0 0 0 0 0 0 11 33 10 0 10 39 3 14 2 0 0 3 0 6
16 10 17 12 7 7 4 5 3 0 5 38 5 2 6 4 9 19 3 4 0 0 0 22 8 0 0 0 0 0 0 0 21 25 6 0 0 4 1 21 0 0 12 0 0 3 0
20 16 18 16 20 7 8 7 12 7 6 13 7 1 4 0 10 5 2 0 0 0 0 22 13 0 0 0 0 0 0 1 29 3 0 3 5 16 71 15 33 0 12 0 0 12 3
18 15 17 18 17 15 16 8 5 10 9 8 12 2 6 1 11 0 0 0 0 2 1 5 0 0 0 0 0 0 0 0 0 0 3 1 0 5 7 14 3 7 0 0 4 6 1
20 16 16 12 9 11 7 17 10 7 17 2 23 7 6 1 7 0 0 0 0 0 0 0 0 0 0 0 0 0 0 0 0 1 1 7 2 3 3 5 0 0 0 0 0 37 6
30 23 18 12 4 3 9 16 15 8 5 0 23 6 3 5 2 0 0 0 0 0 0 0 0 0 0 0 0 0 0 0 0 1 1 2 0 0 0 0 0 0 0 0 7 25 0
19 23 20 6 3 2 2 6 18 9 4 2 16 2 0 12 0 0 0 0 0 0 0 0 0 0 0 0 0 0 0 0 1 0 0 1 1 0 0 0 3 3 10 4 43 2 0
22 13 7 4 4 9 3 1 19 5 14 7 15 3 4 8 2 0 0 0 0 0 0 0 0 0 0 0 0 0 0 0 0 1 0 1 4 0 0 1 4 0 16 17 3 3 5
29 25 16 23 24 15 11 5 12 9 8 5 21 3 9 5 0 0 0 0 0 0 0 0 0 0 0 0 0 0 0 1 0 0 1 1 0 1 0 2 11 0 1 39 6 0 0
24 29 40 0 52 30 26 16 18 5 4 8 29 3 13 0 0 0 0 0 0 0 0 0 0 0 0 0 0 0 0 3 0 2 0 1 1 1 0 11 0 2 35 25 21 0 0
54 38 144 64 56 113 16 24 12 21 10 7 29 3 23 0 0 0 0 0 0 0 0 0 0 0 0 0 0 0 1 1 2 1 2 1 0 0 1 10 25 1 7 1 2 0 0
70 99 100 75 170 52 83 13 20 13 14 16 11 5 24 0 0 0 0 0 0 0 0 0 0 0 0 0 0 0 0 1 0 0 0 0 0 0 0 14 16 8 0 0 0 0 0
76 82 106 145 57 69 10 3 15 10 20 26 6 10 12 0 0 0 0 0 0 0 0 0 0 0 0 0 0 0 0 0 0 0 0 0 0 0 0 0 1 0 0 0 0 0 0
76 42 78 54 49 45 30 24 21 27 24 29 11 12 2 0 0 0 0 0 0 0 0 0 0 0 0 0 0 0 0 0 0 0 0 0 3 0 0 0 0 0 0 0 0 0 0
21 61 48 45 39 38 28 20 16 10 71 7 4 11 4 0 0 0 0 0 0 0 0 0 0 0 0 0 0 0 0 0 0 0 0 0 0 0 0 0 0 0 0 0 0 0 0
85 35 13 16 36 36 10 25 8 29 3 8 4 3 1 0 2 0 0 0 0 0 0 0 0 0 0 0 0 0 0 0 0 0 0 0 0 0 0 0 0 0 0 0 0 0 0
42 16 18 16 22 12 16 4 4 5 17 0 4 0 2 6 1 1 0 0 0 0 0 0 0 0 0 0 0 0 0 0 0 0 0 0 0 0 0 0 0 0 0 0 0 0 0
23 13 13 11 11 19 6 12 4 1 0 0 2 2 3 6 0 0 0 0 0 0 0 0 0 0 0 0 0 0 0 0 0 0 0 0 0 0 0 0 0 0 0 0 0 0 0
8 15 5 2 8 4 3 1 1 0 0 0 0 1 2 11 1 0 0 0 0 0 0 0 0 0 0 0 0 0 0 0 0 0 0 0 0 0 0 0 0 0 0 0 0 0 0
15 12 3 18 5 1 3 3 9 7 0 0 0 0 0 0 1 0 0 0 0 0 0 0 0 0 0 0 0 0 0 0 0 0 0 0 0 0 0 0 0 0 0 0 0 0 0
25 7 22 13 4 1 3 6 17 8 0 0 0 0 0 0 0 0 0 0 0 0 0 0 0 0 0 0 0 0 0 0 0 0 0 0 0 0 0 0 0 0 0 0 0 0 0
1 10 5 1 5 2 4 10 30 1 0 0 0 0 0 0 0 0 0 0 0 0 0 0 0 0 0 0 0 0 0 0 0 0 0 0 0 0 0 0 0 0 0 0 0 0 0
0 3 4 5 5 3 13 15 18 0 0 0 0 0 0 0 0 0 0 0 0 0 0 0 0 0 0 0 0 0 0 0 0 0 0 0 0 0 0 0 0 0 0 0 0 0 0
1 4 4 7 0 2 12 8 13 0 0 0 0 0 0 0 0 0 0 0 0 0 0 0 0 0 0 0 0 0 0 0 0 0 0 0 0 0 0 0 0 0 0 0 0 0 0
4 7 3 0 10 1 6 8 27 1 0 0 0 0 0 0 0 0 0 0 0 0 0 0 0 0 0 0 0 0 0 0 0 0 0 0 0 0 0 0 0 0 0 0 0 0 0
2 2 3 0 11 0 0 9 11 1 0 0 0 0 0 0 0 0 0 0 0 0 0 0 0 0 0 0 0 0 0 0 0 0 0 0 0 0 0 0 0 0 0 0 0 0 0
0 0 1 12 15 0 0 1 1 0 0 0 0 0 0 0 0 0 0 0 0 0 0 0 0 0 0 0 0 0 0 0 0 0 0 0 0 0 0 0 0 0 0 0 0 0 0
0 0 1 15 6 3 0 0 0 0 0 0 0 0 0 0 0 0 0 0 0 0 0 0 0 0 0 0 0 0 0 0 0 0 0 0 0 0 0 0 0 0 0 0 0 0 0

GFSGBSN_con_mlcape_099.txt.gz
CAPE
9 10 6 10 16 16 5 1 3 4 6 5 6 41 6 3 6 0 0 12 6 16 3 23 0 26 0 0 0 0 0 0 0 0 0 0 0 0 0 0 2 2 0 0 2 0 1
27 21 6 20 18 12 7 9 9 9 6 9 4 18 4 2 2 0 6 0 5 21 1 28 0 1 0 0 0 0 0 0 0 0 0 0 0 0 1 0 2 0 0 0 1 9 23
7 38 37 32 24 21 15 6 7 8 6 7 2 6 6 3 10 11 11 4 0 12 0 30 4 0 0 0 0 0 0 0 0 0 0 0 0 0 7 0 9 0 16 10 0 0 36
18 11 8 30 22 15 3 20 6 5 6 10 10 19 16 6 4 0 6 2 0 13 19 22 5 0 0 0 0 0 0 0 0 0 0 0 5 1 3 1 32 12 9 5 0 0 19
41 48 35 30 12 23 25 20 14 10 4 5 1 11 16 3 0 16 0 0 1 25 16 17 0 0 0 0 0 0 0 0 0 0 1 13 8 3 3 6 1 24 5 3 1 0 1
35 32 41 45 37 24 20 16 14 14 1 1 4 8 18 2 0 8 10 3 6 11 5 0 0 0 0 0 0 0 0 0 0 0 8 16 6 0 1 4 0 15 0 3 22 9 0
34 41 35 32 34 33 18 14 12 10 6 1 0 19 4 0 0 4 19 0 0 0 0 0 0 0 0 0 0 0 0 0 0 1 0 3 0 0 0 0 0 1 0 0 5 51 6
29 32 39 32 28 30 35 18 2 13 15 4 9 5 7 0 2 0 9 0 0 0 0 0 0 0 0 0 0 0 0 0 5 0 1 0 1 0 0 0 0 0 0 2 23 73 15
30 33 27 23 32 51 11 37 14 17 26 8 12 5 6 5 7 2 0 0 0 0 0 0 0 0 0 0 0 0 0 0 0 0 0 1 0 2 0 2 2 0 0 11 5 28 8
55 64 78 55 46 47 80 23 19 12 29 8 5 7 4 2 1 0 0 0 0 0 0 0 0 0 0 0 0 0 0 1 0 0 0 0 1 1 2 0 2 0 1 37 41 46 36
56 66 45 105 87 110 139 98 8 15 12 6 16 17 5 0 0 0 0 0 0 0 0 0 0 0 0 0 0 0 0 0 0 0 0 1 6 0 3 0 6 0 2 38 9 13 0
46 60 73 107 27 98 132 136 47 19 1 11 15 30 9 0 0 0 0 0 0 0 0 0 0 0 0 0 0 0 0 1 1 1 1 0 0 0 7 5 2 5 9 11 3 0 0
60 94 44 110 145 145 127 92 35 11 5 19 10 19 7 0 0 0 0 0 0 0 0 0 0 0 0 0 0 0 0 0 0 0 0 0 1 2 1 15 2 0 0 0 0 0 0
85 84 86 39 41 85 43 25 9 22 34 29 21 29 8 0 0 0 0 0 0 0 0 0 0 0 0 0 0 0 0 0 0 0 0 0 0 0 0 0 1 0 0 0 0 0 0
123 70 37 67 62 51 52 31 23 12 0 1 35 1 0 0 0 0 0 0 0 0 0 0 0 0 0 0 0 0 0 0 0 0 0 0 1 2 0 0 0 0 0 0 0 0 0
59 31 34 33 40 45 42 42 26 4 4 3 1 1 2 0 0 0 0 0 0 0 0 0 0 0 0 0 0 0 0 0 0 0 0 0 0 0 0 0 0 0 0 0 0 0 0
61 41 34 24 27 26 21 19 20 24 11 31 0 0 7 0 0 0 0 0 0 0 0 0 0 0 0 0 0 0 0 0 0 0 0 0 0 0 0 0 0 0 0 0 0 0 0
25 27 15 29 38 16 2 1 17 34 13 0 1 2 2 0 0 1 0 0 0 0 0 0 0 0 0 0 0 0 0 0 0 0 0 0 0 0 0 0 0 0 0 0 0 0 0
31 31 26 0 2 5 7 5 0 0 0 0 1 3 3 9 0 0 0 0 0 0 0 0 0 0 0 0 0 0 0 0 0 0 0 0 0 0 0 0 0 0 0 0 0 0 0
39 27 19 18 10 2 4 3 3 1 0 0 0 0 4 22 0 0 0 0 0 0 0 0 0 0 0 0 0 0 0 0 0 0 0 0 0 0 0 0 0 0 0 0 0 0 0
17 11 23 3 6 0 1 9 1 0 0 0 0 1 0 0 2 0 0 0 0 0 0 0 0 0 0 0 0 0 0 0 0 0 0 0 0 0 0 0 0 0 0 0 0 0 0
1 20 5 4 5 0 8 12 0 0 0 0 0 0 0 0 0 0 0 0 0 0 0 0 0 0 0 0 0 0 0 0 0 0 0 0 0 0 0 0 0 0 0 0 0 0 0
2 4 12 16 8 14 12 0 0 0 0 0 0 0 0 0 0 0 0 0 0 0 0 0 0 0 0 0 0 0 0 0 0 0 0 0 0 0 0 0 0 0 0 0 0 0 0
5 6 23 30 25 19 0 0 0 0 0 0 0 0 0 0 0 0 0 0 0 0 0 0 0 0 0 0 0 0 0 0 0 0 0 0 0 0 0 0 0 0 0 0 0 0 0
4 5 8 23 21 2 2 0 0 0 0 0 0 0 0 0 0 0 0 0 0 0 0 0 0 0 0 0 0 0 0 0 0 0 0 0 0 0 0 0 0 0 0 0 0 0 0
4 1 0 6 9 5 5 0 0 0 0 0 0 0 0 0 0 0 0 0 0 0 0 0 0 0 0 0 0 0 0 0 0 0 0 0 0 0 0 0 0 0 0 0 0 0 0
5 0 1 9 7 12 4 6 0 0 0 0 0 0 0 0 0 0 0 0 0 0 0 0 0 0 0 0 0 0 0 0 0 0 0 0 0 0 0 0 0 0 0 0 0 0 0
0 0 6 22 5 6 6 5 0 0 0 0 0 0 0 0 0 0 0 0 0 0 0 0 0 0 0 0 0 0 0 0 0 0 0 0 0 0 0 0 0 0 0 0 0 0 0
0 0 0 15 6 0 1 1 0 0 0 0 0 0 0 0 0 0 0 0 0 0 0 0 0 0 0 0 0 0 0 0 0 0 0 0 0 0 0 0 0 0 0 0 0 0 0

GFSGBSN_con_mlcape_102.txt.gz
CAPE
34 39 44 43 47 40 26 16 14 8 14 9 5 3 11 54 5 9 0 0 7 18 8 8 16 10 0 0 0 0 0 10 0 0 0 0 0 0 0 0 0 1 0 0 6 1 0
47 46 52 51 57 58 54 36 9 14 8 10 11 7 14 24 5 2 0 2 0 13 8 6 14 4 0 0 0 0 0 0 0 0 0 0 2 2 3 1 0 0 0 0 4 2 1
13 37 37 37 37 45 47 45 22 22 14 4 12 10 2 30 5 1 1 7 0 6 8 8 18 0 0 0 0 0 0 0 0 0 0 0 7 6 12 7 6 0 0 2 0 0 2
35 35 28 38 30 29 36 23 20 21 19 4 14 6 27 30 6 3 2 0 0 0 12 19 22 0 0 0 0 0 0 0 0 0 1 8 15 17 13 4 0 8 13 1 0 1 5
35 45 44 46 54 44 43 41 13 16 14 9 6 3 14 20 4 0 0 0 0 0 24 24 0 0 0 0 0 0 0 0 3 12 9 16 20 6 0 0 5 6 1 0 6 1 1
44 54 57 56 50 53 37 33 28 19 5 11 3 1 0 19 1 0 0 4 3 3 4 0 0 0 0 0 0 0 0 0 0 13 24 19 26 3 0 0 1 2 9 2 3 2 9
38 48 49 48 16 29 32 32 25 31 12 11 2 0 24 2 4 1 0 1 0 0 0 0 0 0 0 0 0 0 0 0 0 1 1 9 2 0 0 5 17 3 15 10 38 0 6
46 59 59 47 36 46 51 31 27 29 17 22 7 4 1 10 8 1 0 0 0 0 0 0 0 0 0 0 0 0 0 0 3 2 4 3 0 1 7 1 19 0 13 18 74 46 19
46 44 49 58 45 60 74 48 45 27 30 15 4 0 0 8 6 2 0 0 0 0 0 0 0 0 0 0 0 0 0 0 1 2 2 1 0 0 4 0 7 0 1 14 54 85 128
65 70 80 75 67 75 38 105 80 59 9 5 7 0 64 1 0 0 3 0 0 0 0 0 0 0 0 0 0 0 0 1 1 0 0 0 1 0 2 3 1 1 0 56 96 103 101
62 77 125 93 78 54 114 135 106 45 18 5 10 0 43 0 0 1 0 0 0 0 0 0 0 0 0 0 0 0 0 0 0 0 0 0 2 2 0 1 0 1 0 54 64 35 111
103 78 69 144 60 146 126 132 115 45 1 5 18 1 15 0 0 0 0 0 0 0 0 0 0 0 0 0 0 0 0 1 2 0 1 1 2 1 16 1 0 13 4 13 4 9 1
79 102 118 163 133 89 63 111 5 29 24 36 12 2 7 0 0 0 0 0 0 0 0 0 0 0 0 0 0 0 0 2 2 0 0 0 6 6 14 17 8 14 3 3 2 3 0
45 87 33 29 28 76 82 29 3 7 22 3 0 10 4 0 0 0 0 0 0 0 0 0 0 0 0 0 0 0 0 2 0 0 0 2 4 1 2 13 10 13 0 1 0 0 0
49 48 32 35 54 49 24 32 22 11 9 1 2 2 0 0 0 0 0 0 0 0 0 0 0 0 0 0 0 0 0 0 0 0 0 3 0 0 0 0 1 0 0 0 0 0 0
30 24 18 24 22 25 34 46 4 0 0 0 1 0 2 1 0 0 0 0 0 0 0 0 0 0 0 0 0 0 0 0 0 0 0 0 0 1 0 0 0 0 0 0 0 0 0
44 25 8 8 8 6 29 2 21 17 20 6 0 0 1 0 0 0 0 0 0 0 0 0 0 0 0 0 0 0 0 0 0 0 0 0 0 0 0 0 0 0 0 0 0 0 0
23 20 25 13 0 0 0 2 24 40 27 2 0 0 3 0 1 0 0 0 0 0 0 0 0 0 0 0 0 0 0 0 0 0 0 0 0 0 0 0 0 0 0 0 0 0 0
9 11 5 5 3 3 6 3 3 42 3 0 1 3 4 4 1 0 0 0 0 0 0 0 0 0 0 0 0 0 0 0 0 0 0 0 0 0 0 0 0 0 0 0 0 0 0
5 7 27 0 0 5 3 4 2 0 0 0 0 0 5 3 0 0 0 0 0 0 0 0 0 0 0 0 0 0 0 0 0 0 0 0 0 0 0 0 0 0 0 0 0 0 0
5 18 4 4 6 2 3 0 0 0 0 0 0 2 1 2 2 0 0 0 0 0 0 0 0 0 0 0 0 0 0 0 0 0 0 0 0 0 0 0 0 0 0 0 0 0 0
3 32 10 7 0 0 0 0 0 0 0 0 0 0 0 0 0 0 0 0 0 0 0 0 0 0 0 0 0 0 0 0 0 0 0 0 0 0 0 0 0 0 0 0 0 0 0
2 6 22 0 0 0 0 0 0 0 0 0 0 0 0 0 1 0 0 0 0 0 0 0 0 0 0 0 0 0 0 0 0 0 0 0 0 0 0 0 0 0 0 0 0 0 0
0 3 13 2 0 0 0 0 0 0 0 0 0 0 0 0 0 0 0 0 0 0 0 0 0 0 0 0 0 0 0 0 0 0 0 0 0 0 0 0 0 0 0 0 0 0 0
0 0 3 11 0 0 0 0 0 0 0 0 0 0 0 0 0 0 0 0 0 0 0 0 0 0 0 0 0 0 0 0 0 0 0 0 0 0 0 0 0 0 0 0 0 0 0
0 0 1 8 24 0 0 0 0 0 0 0 0 0 0 0 0 0 0 0 0 0 0 0 0 0 0 0 0 0 0 0 0 0 0 0 0 0 0 0 0 0 0 0 0 0 0
0 0 1 18 12 1 0 0 0 0 0 0 0 0 0 0 0 0 0 0 0 0 0 0 0 0 0 0 0 0 0 0 0 0 0 0 0 0 0 0 0 0 0 0 0 0 0
0 0 1 25 12 14 13 0 0 0 0 0 0 0 0 0 0 0 0 0 0 0 0 0 0 0 0 0 0 0 0 0 0 0 0 0 0 0 0 0 0 0 0 0 0 0 0
0 0 0 6 6 3 30 0 0 0 0 0 0 0 0 0 0 0 0 0 0 0 0 0 0 0 0 0 0 0 0 0 0 0 0 0 0 0 0 0 0 0 0 0 0 0 0

GFSGBSN_con_mlcape_105.txt.gz
CAPE
23 30 29 26 14 8 15 29 32 19 20 8 8 11 4 12 4 40 4 0 7 0 0 1 11 0 0 0 0 0 0 7 1 0 0 0 0 0 0 0 0 0 2 1 7 8 10
17 31 24 26 34 34 29 26 34 14 14 20 11 11 12 2 7 15 0 0 0 0 1 1 7 0 0 0 0 0 0 0 0 0 1 0 0 0 0 0 0 0 0 0 0 1 28
26 23 33 43 43 55 42 34 28 0 6 23 11 9 0 3 10 2 0 1 0 0 2 4 4 0 2 0 0 0 0 0 3 0 4 9 5 4 4 2 3 4 3 0 0 2 7
21 37 48 62 62 75 83 31 40 16 2 11 7 3 0 5 15 2 3 3 0 0 0 0 12 3 2 0 0 0 0 0 6 15 13 23 22 16 13 11 6 10 11 14 0 0 0
33 51 61 77 92 74 87 86 71 50 30 0 0 0 0 0 8 4 6 1 0 0 0 6 10 2 0 0 0 0 0 4 10 25 24 25 22 17 16 4 5 5 2 4 8 0 38
47 77 92 97 119 106 71 80 83 47 43 2 0 0 0 0 22 4 0 0 15 10 6 1 0 0 0 0 0 0 0 0 3 15 16 17 23 5 3 2 0 7 4 7 4 2 68
80 105 108 111 109 101 104 88 83 60 35 7 0 0 0 22 2 0 0 5 0 0 2 0 0 0 0 0 0 0 2 2 4 9 7 17 3 1 2 2 2 13 0 0 14 6 53
107 121 180 181 195 154 134 124 105 67 23 18 0 0 0 5 1 11 1 0 0 0 0 0 0 0 0 0 0 0 0 5 4 2 0 0 0 0 3 6 8 5 0 0 11 6 60
150 181 156 162 75 133 91 119 50 79 12 1 0 0 0 6 6 1 0 0 0 0 0 0 0 0 0 0 2 3 0 2 5 2 0 0 0 0 0 4 2 0 0 4 0 29 69
43 45 67 55 56 34 54 28 110 75 31 0 0 0 15 26 1 1 1 0 0 0 0 0 0 0 0 0 0 0 0 1 2 1 0 0 0 0 1 3 1 0 0 0 0 26 58
28 42 22 25 103 64 68 67 85 20 3 0 0 4 39 0 0 3 0 0 0 0 0 0 0 0 0 0 1 1 0 1 0 0 0 1 1 1 3 3 1 2 11 0 27 25 96
23 58 20 36 36 27 96 86 44 14 0 0 0 12 32 0 0 0 0 0 0 0 0 0 0 0 0 1 0 1 2 0 0 0 0 3 0 0 4 11 0 0 4 0 2 8 13
37 60 23 16 23 29 56 52 2 9 0 0 0 0 7 0 0 0 0 0 0 0 0 0 0 0 0 0 0 0 3 1 1 0 1 1 5 3 12 9 0 0 1 1 0 0 1
33 31 30 21 21 15 7 2 2 13 0 0 0 6 7 1 0 0 0 0 0 0 0 0 0 0 0 0 0 0 4 1 0 0 11 1 0 0 1 11 0 0 0 0 0 0 1
19 5 20 22 27 16 9 12 20 17 5 0 3 1 0 1 0 0 0 0 0 0 0 0 0 0 0 0 0 0 1 3 0 0 0 9 1 2 13 11 2 5 0 0 0 0 0
20 15 0 0 9 26 0 0 0 0 0 2 0 0 1 1 0 0 3 0 0 0 0 0 0 0 0 0 0 0 2 0 1 0 0 0 0 0 0 1 6 0 0 0 0 0 0
3 26 6 0 0 4 8 0 0 1 0 0 0 0 1 0 0 0 2 1 0 0 0 0 0 0 0 0 0 0 0 0 0 0 0 0 0 0 11 0 0 0 0 0 0 0 0
20 11 1 2 0 0 1 0 10 3 3 0 0 0 2 0 3 0 0 0 0 0 0 0 0 0 0 0 0 0 0 0 0 0 0 0 7 0 0 0 0 0 0 0 0 0 0
16 4 0 1 0 0 0 0 2 6 0 0 0 1 1 2 3 0 0 0 0 0 0 0 0 0 0 0 0 0 0 0 0 0 0 0 0 0 0 0 0 0 0 0 0 0 0
5 11 2 2 1 0 0 6 3 0 0 0 1 0 0 3 0 0 0 0 0 0 0 0 0 0 0 0 0 0 0 0 0 0 0 0 0 0 0 0 0 0 0 0 0 0 0
13 0 0 2 2 0 0 0 1 1 0 0 0 1 1 2 0 0 0 1 0 0 0 0 0 0 0 0 0 0 0 0 0 0 0 0 0 0 0 0 0 0 0 0 0 0 0
0 8 0 0 2 0 0 0 0 0 0 0 0 0 1 1 0 0 0 1 0 0 0 0 0 0 0 0 0 0 0 0 0 0 0 0 0 0 0 0 0 0 0 0 0 0 0
0 0 0 0 0 0 0 0 0 0 0 0 0 0 0 0 0 0 0 0 0 0 0 0 0 0 0 0 0 0 0 0 0 0 0 0 0 0 0 0 0 0 0 0 0 0 0
2 1 2 0 0 0 0 0 0 0 0 0 0 0 0 0 0 0 0 0 0 0 0 0 0 0 0 0 0 0 0 0 0 0 0 0 0 0 0 0 0 0 0 0 0 0 0
0 2 1 0 0 0 0 0 0 0 0 0 0 0 0 0 0 0 0 0 0 0 0 0 0 0 0 0 0 0 0 0 0 0 0 0 0 0 0 0 0 0 0 0 0 0 0
0 0 1 2 0 0 0 0 0 0 0 0 0 0 0 0 0 0 0 0 0 0 0 0 0 0 0 0 0 0 0 0 0 0 0 0 0 0 0 0 0 0 0 0 0 0 0
0 0 1 0 6 1 0 0 0 0 0 0 0 0 0 0 0 0 0 0 0 0 0 0 0 0 0 0 0 0 0 0 0 0 0 0 0 0 0 0 0 0 0 0 0 0 0
0 0 0 0 0 4 0 0 0 0 0 0 0 0 0 0 0 0 0 0 0 0 0 0 0 0 0 0 0 0 0 0 0 0 0 0 0 0 0 0 0 0 0 0 0 0 0
0 1 2 0 0 0 0 0 0 0 0 0 0 0 0 0 0 0 0 0 0 0 0 0 0 0 0 0 0 0 0 0 0 0 0 0 0 0 0 0 0 0 0 0 0 0 0

GFSGBSN_con_mlcape_108.txt.gz
CAPE
51 52 34 37 43 53 45 60 34 32 26 3 24 17 17 7 3 8 41 2 0 0 0 0 2 0 0 0 0 0 0 9 10 0 0 0 0 0 0 0 0 0 0 0 0 0 0
62 37 35 47 57 72 77 90 63 31 30 26 0 12 12 6 2 3 21 0 1 0 0 0 3 0 0 0 0 0 0 0 1 0 0 0 0 0 0 0 0 0 0 0 0 0 0
48 33 32 55 59 57 54 116 77 79 37 33 8 1 0 0 0 8 3 3 0 2 0 0 0 0 0 0 0 0 0 0 0 0 0 0 0 0 0 0 0 0 0 0 0 0 0
34 29 32 24 28 21 47 65 107 41 71 22 7 0 0 0 0 31 5 5 1 0 0 0 6 2 0 0 0 0 0 0 0 0 0 0 0 0 1 2 0 3 0 0 0 0 0
35 22 37 88 93 64 65 54 63 77 72 51 15 0 0 0 0 6 17 2 0 0 8 2 6 2 0 0 0 0 0 0 0 0 3 6 18 12 11 0 1 0 0 0 0 0 0
21 28 44 68 158 161 121 101 81 85 38 23 7 0 0 0 0 24 2 0 1 19 25 7 0 0 0 0 0 0 0 0 0 10 7 11 22 4 4 4 0 0 0 0 0 0 11
37 35 49 1 106 54 97 141 133 100 58 23 15 0 0 2 10 1 0 5 4 0 2 0 0 0 0 0 0 0 0 0 0 2 0 4 5 0 0 0 1 0 6 0 1 16 12
50 77 20 46 99 65 31 34 19 22 17 7 0 0 0 11 3 3 0 0 0 0 0 0 0 0 0 0 0 0 0 0 0 0 0 0 1 0 0 1 6 7 1 0 0 13 5
23 42 66 36 64 48 46 28 23 17 60 1 0 1 0 10 11 0 0 0 0 0 0 0 0 0 0 0 0 0 0 1 4 1 0 0 0 1 0 0 5 7 0 0 0 6 4
14 46 17 34 32 18 27 12 0 3 6 3 0 0 0 20 0 1 0 0 0 0 0 0 0 0 0 0 0 0 0 2 2 2 0 0 0 1 5 3 6 1 0 0 0 0 0
19 39 29 5 13 13 11 0 30 7 10 0 0 16 13 11 2 0 0 0 0 0 0 0 0 0 0 0 0 0 0 0 0 0 0 2 4 0 0 0 2 0 0 3 2 1 3
10 1 26 12 15 18 7 0 0 11 0 2 0 1 1 0 0 0 0 0 0 0 0 0 0 0 0 0 1 0 0 0 0 0 0 0 0 0 0 1 11 0 0 0 0 0 0
16 0 0 28 9 10 17 0 0 7 8 2 0 0 0 0 0 0 0 0 0 0 0 0 0 0 0 0 0 0 0 1 2 0 0 2 1 1 1 3 0 0 0 0 0 0 1
62 0 0 1 0 0 0 0 5 0 0 2 0 0 1 1 0 0 0 0 0 0 0 0 0 0 0 0 0 0 1 4 0 1 0 0 0 0 9 0 0 1 1 0 3 4 1
15 0 0 0 0 0 0 4 10 0 0 3 1 0 1 1 0 0 0 0 0 0 0 0 0 0 0 0 0 0 0 1 0 0 0 2 0 0 0 1 5 0 0 0 0 0 0
10 1 0 0 0 0 0 0 0 0 0 2 0 0 1 0 0 0 0 1 0 0 0 0 0 0 0 0 0 0 0 0 0 0 0 0 0 0 1 8 5 0 0 0 0 0 0
10 2 0 0 2 0 0 0 0 0 0 0 0 0 2 0 0 0 1 0 0 0 0 0 0 0 0 0 0 0 0 0 0 0 0 0 1 0 4 0 0 0 0 0 0 0 0
17 1 5 0 2 0 0 0 0 0 0 0 2 0 0 0 0 0 0 0 0 0 0 0 0 0 0 0 0 0 0 0 0 0 0 0 0 0 0 0 0 0 0 0 0 0 0
3 3 5 6 0 0 3 6 1 0 0 0 0 1 0 0 0 0 0 0 0 0 0 0 0 0 0 0 0 0 0 0 0 0 0 0 0 0 1 0 0 0 0 0 0 0 0
0 5 17 0 2 1 4 0 0 0 0 0 0 1 0 0 0 0 0 0 0 0 0 0 0 0 0 0 0 0 0 0 0 0 0 0 0 0 0 0 0 0 0 0 0 0 0
0 0 1 5 0 0 6 4 0 0 0 0 0 0 0 0 0 0 0 0 0 0 0 0 0 0 0 0 0 0 0 0 0 0 0 0 0 0 0 0 0 0 0 0 0 0 0
2 0 0 0 0 0 0 0 0 0 0 0 0 0 0 0 0 0 0 0 0 0 0 0 0 0 0 0 0 0 0 0 0 0 0 0 0 0 0 0 0 0 0 0 0 0 0
0 0 0 0 0 0 0 0 0 0 0 1 0 0 0 0 0 0 0 0 0 0 0 0 0 0 0 0 0 0 0 0 0 0 0 0 0 0 0 0 0 0 0 0 0 0 0
1 0 0 0 0 0 0 0 0 0 0 0 0 0 0 0 0 0 0 0 0 0 0 0 0 0 0 0 0 0 0 0 0 0 0 0 0 0 0 0 0 0 0 0 0 0 0
0 0 1 0 0 0 0 0 0 0 0 0 0 0 0 0 0 0 0 0 0 0 0 0 0 0 0 0 0 0 0 0 0 0 0 0 0 0 0 0 0 0 0 0 0 0 0
0 0 0 0 0 0 0 0 0 0 0 0 0 0 0 0 0 0 0 0 0 0 0 0 0 0 0 0 0 0 0 0 0 0 0 0 0 0 0 0 0 0 0 0 0 0 0
0 0 1 0 0 0 0 0 0 0 0 0 0 0 0 0 0 0 0 0 0 0 0 0 0 0 0 0 0 0 0 0 0 0 0 0 0 0 0 0 0 0 0 0 0 0 0
0 0 1 1 1 0 0 0 0 0 0 0 0 0 0 0 0 0 0 0 0 0 0 0 0 0 0 0 0 0 0 0 0 0 0 0 0 0 0 0 0 0 0 0 0 0 0
0 0 1 0 0 2 0 0 0 0 0 0 0 0 0 0 0 0 0 0 0 0 0 0 0 0 0 0 0 0 0 0 0 0 0 0 0 0 0 0 0 0 0 0 0 0 0

GFSGBSN_con_mlcape_111.txt.gz
CAPE
52 15 22 39 50 63 44 36 30 31 19 31 61 32 23 17 12 1 20 30 10 0 0 0 0 0 0 0 0 10 10 26 0 0 0 0 0 0 0 0 0 0 0 0 0 0 0
45 30 21 28 45 51 58 37 25 22 18 29 68 50 11 12 3 0 0 72 9 1 0 0 0 0 0 0 0 1 0 0 0 0 0 0 0 0 0 0 0 0 0 0 0 0 0
19 54 31 19 24 71 49 18 33 16 15 27 52 54 8 2 0 2 26 20 16 1 0 0 0 0 0 0 0 0 0 0 0 0 0 0 0 0 0 0 0 0 0 0 0 0 0
28 32 57 53 28 44 113 10 34 16 59 56 75 68 2 0 0 0 85 8 1 5 0 0 0 0 0 0 0 0 0 0 0 0 0 0 0 0 0 0 0 0 0 0 0 0 0
36 48 52 52 29 38 137 92 18 11 76 75 69 57 2 0 0 11 15 1 0 0 0 0 0 0 0 0 0 0 0 0 0 0 0 0 0 0 0 0 0 0 0 0 0 0 0
58 64 60 35 68 66 25 93 78 89 78 59 36 13 0 0 0 28 1 0 0 1 1 9 0 0 0 0 0 0 0 1 1 0 0 0 0 0 0 0 0 0 0 0 0 0 0
31 59 48 35 69 113 32 0 0 7 0 25 3 0 0 200 44 0 0 13 5 0 4 0 0 0 0 0 0 0 0 0 0 0 0 1 0 0 0 0 0 0 0 0 0 0 0
21 48 33 23 80 67 15 7 3 0 13 25 0 0 0 45 8 0 0 0 0 0 0 0 0 0 0 0 0 0 0 0 0 0 0 0 0 0 0 0 1 2 1 0 0 0 1
14 7 46 20 34 24 6 0 10 3 12 0 0 0 0 33 0 0 0 0 0 0 0 0 0 0 0 0 0 0 0 0 0 1 0 0 0 0 2 0 0 0 0 0 0 0 0
0 4 10 5 1 6 4 0 0 36 3 0 4 0 0 14 3 0 0 0 0 0 0 0 0 0 0 0 0 0 0 0 1 1 2 0 0 0 2 1 5 0 0 0 0 0 0
2 0 1 0 0 0 4 11 55 18 0 0 16 22 22 0 0 0 0 0 0 0 0 0 0 0 0 0 0 0 0 0 0 0 1 0 0 0 0 0 0 0 0 0 0 0 1
25 0 0 0 0 0 0 3 3 0 0 5 2 5 0 0 0 0 0 0 0 0 0 0 0 0 0 0 0 0 0 0 0 0 0 0 0 0 0 0 0 2 0 0 1 0 0
3 0 0 1 5 1 2 2 0 0 0 0 1 0 0 0 0 0 0 0 0 0 0 0 0 0 0 0 0 0 0 0 0 0 0 1 0 0 0 1 0 0 0 0 0 0 0
0 0 0 1 0 2 14 5 1 0 0 0 0 0 1 1 0 0 0 0 0 0 0 0 0 0 0 0 0 0 5 2 3 0 0 0 0 0 0 0 0 0 0 0 0 0 0
0 0 0 1 0 2 23 9 0 1 0 0 0 0 1 0 0 0 0 0 0 0 0 0 0 0 0 0 0 0 0 0 0 0 0 0 0 0 0 7 1 1 0 0 0 0 0
12 2 3 8 22 10 9 0 0 1 0 0 0 0 0 0 0 0 0 0 0 0 0 0 0 0 0 0 0 0 0 0 0 0 0 0 0 0 11 1 1 2 0 0 0 0 0
2 1 18 16 5 10 3 0 0 4 0 0 0 0 0 0 0 0 0 0 0 0 0 0 0 0 0 0 0 0 0 0 0 0 0 0 0 0 0 0 0 0 0 0 0 0 0
0 0 1 9 8 0 0 0 0 0 0 0 0 0 0 0 0 0 0 0 0 0 0 0 0 0 0 0 0 0 0 0 0 0 0 0 0 0 0 0 0 0 0 0 0 0 0
8 0 0 0 0 0 0 0 0 0 0 0 0 0 0 0 0 0 0 0 0 0 0 0 0 0 0 0 0 0 0 0 0 0 0 0 0 0 0 0 0 0 0 0 0 0 0
0 1 0 0 0 0 0 0 0 0 3 0 0 0 0 0 0 0 0 0 0 0 0 0 0 0 0 0 0 0 0 0 0 0 0 0 0 0 0 0 0 0 0 0 0 0 0
1 0 0 0 0 0 0 0 0 0 0 0 0 0 0 0 0 0 0 0 0 0 0 0 0 0 0 0 0 0 0 0 0 0 0 0 0 0 0 0 0 0 0 0 0 0 0
1 0 0 0 0 0 0 0 0 0 0 0 0 0 0 0 0 0 0 0 0 0 0 0 0 0 0 0 0 0 0 0 0 0 0 0 0 0 0 0 0 0 0 0 0 0 0
0 2 0 0 0 0 0 0 0 0 0 0 2 0 0 0 0 0 0 0 0 0 0 0 0 0 0 0 0 0 0 0 0 0 0 0 0 0 0 0 0 0 0 0 0 0 0
0 0 0 0 0 0 0 0 0 0 0 0 0 0 0 0 0 0 0 0 0 0 0 0 0 0 0 0 0 0 0 0 0 0 0 0 0 0 0 0 0 0 0 0 0 0 0
0 0 0 0 0 0 0 0 0 0 0 0 0 0 0 0 0 0 0 0 0 0 0 0 0 0 0 0 0 0 0 0 0 0 0 0 0 0 0 0 0 0 0 0 0 0 0
0 0 0 0 0 0 0 0 0 0 0 0 0 0 0 0 0 0 0 0 0 0 0 0 0 0 0 0 0 0 0 0 0 0 0 0 0 0 0 0 0 0 0 0 0 0 0
0 0 0 0 0 0 0 0 0 0 0 0 0 0 0 0 0 0 0 0 0 0 0 0 0 0 0 0 0 0 0 0 0 0 0 0 0 0 0 0 0 0 0 0 0 0 0
0 0 0 1 1 0 0 0 0 0 0 0 0 0 0 0 0 0 0 0 0 0 0 0 0 0 0 0 0 0 0 0 0 0 0 0 0 0 0 0 0 0 0 0 0 0 0
0 0 2 1 0 0 0 0 0 0 0 0 0 0 0 0 0 0 0 0 0 0 0 0 0 0 0 0 0 0 0 0 0 0 0 0 0 0 0 0 0 0 0 0 0 0 0

GFSGBSN_con_mlcape_114.txt.gz
CAPE
54 28 32 41 40 30 27 45 58 40 37 18 21 24 17 11 14 7 3 2 92 13 2 0 0 0 0 0 0 0 10 0 0 0 0 0 0 0 0 0 0 0 0 0 0 0 0
18 26 55 71 87 44 22 79 22 29 16 16 23 20 29 10 4 3 0 2 115 3 0 0 0 0 0 0 0 4 0 0 0 0 0 0 0 0 0 0 0 0 0 0 0 0 0
27 58 96 96 80 63 49 90 9 16 3 23 26 11 44 8 4 5 43 124 12 2 0 0 0 0 0 0 0 0 0 0 0 0 0 0 0 0 0 0 0 0 0 0 0 0 0
31 61 91 142 39 52 72 98 9 4 2 21 11 9 12 5 0 8 101 44 0 1 13 0 0 0 0 0 0 0 0 0 0 0 0 0 0 0 0 0 0 0 0 0 0 0 0
35 32 113 90 50 138 81 21 21 11 13 17 27 18 6 8 0 0 39 8 0 12 6 0 0 0 0 0 0 0 0 0 0 0 0 0 0 0 0 0 0 0 0 0 0 0 0
9 14 42 7 80 148 32 14 14 52 19 19 4 1 1 3 8 6 0 0 1 0 0 0 0 0 0 0 0 0 0 0 0 0 0 0 0 0 0 0 0 0 0 0 0 0 0
0 1 20 4 48 41 14 0 5 14 30 11 0 12 211 215 9 3 0 1 0 0 0 0 0 0 0 0 0 0 0 0 0 0 0 0 0 0 0 0 0 0 0 0 0 0 0
4 0 15 3 17 31 30 17 23 12 19 0 0 76 137 58 7 16 0 0 0 0 0 0 0 0 0 0 0 0 0 0 0 0 0 0 0 0 0 0 0 1 0 0 0 0 0
2 0 5 16 15 3 3 18 31 22 0 0 0 0 40 15 0 0 0 0 0 0 0 0 0 0 0 0 0 0 0 0 0 0 1 1 0 2 0 2 1 1 0 0 0 0 0
0 0 9 15 4 3 13 20 4 0 0 4 0 0 2 0 0 0 0 0 0 0 0 0 0 0 0 0 0 0 0 0 0 1 1 0 0 0 0 0 1 0 0 0 0 0 0
0 0 12 13 7 1 0 0 0 0 0 0 0 0 0 0 0 0 0 0 0 0 0 0 0 0 0 0 0 0 0 0 0 0 0 0 0 0 0 0 0 0 0 0 0 0 0
0 4 13 11 6 5 4 0 1 16 9 6 4 0 0 0 0 0 0 0 0 0 0 0 0 0 0 0 0 0 0 0 0 2 1 0 0 0 0 0 0 0 2 0 1 0 0
7 11 9 7 16 6 1 2 0 0 0 2 0 0 0 0 0 0 0 0 0 0 0 0 0 0 0 0 0 0 0 0 0 0 0 0 0 0 0 0 0 2 0 0 0 0 0
11 7 13 3 19 6 4 7 0 0 7 0 0 0 0 0 0 0 0 0 0 0 0 0 0 0 0 0 0 0 1 4 0 0 0 0 0 0 0 0 0 0 0 0 0 0 0
1 10 15 13 17 7 2 11 14 5 0 0 0 0 0 0 0 0 0 0 0 0 0 0 0 0 0 0 0 2 0 0 0 0 0 0 0 0 0 0 0 3 0 0 0 0 0
0 3 0 2 7 0 0 0 9 5 0 0 0 0 0 0 0 0 0 0 0 0 0 0 0 0 0 0 0 0 0 0 0 0 0 0 0 0 0 0 0 1 0 0 0 0 0
0 0 0 0 0 0 0 0 0 0 0 0 0 0 0 0 0 0 0 0 0 0 0 0 0 0 0 0 0 0 0 0 0 0 0 0 0 0 0 0 0 0 0 0 0 0 0
0 0 0 0 0 0 0 0 0 0 0 0 0 0 0 0 0 0 0 0 0 0 0 0 0 0 0 0 0 0 0 0 0 0 0 0 0 0 0 0 0 0 0 0 0 0 0
1 0 0 0 0 0 0 0 0 0 1 0 0 0 0 0 0 0 0 0 0 0 0 0 0 0 0 0 0 0 0 0 0 0 0 0 0 0 0 0 0 0 0 0 0 0 0
2 5 0 0 0 0 0 0 0 0 0 0 0 0 0 0 0 0 0 0 0 0 0 0 0 0 0 0 0 0 0 0 0 0 0 0 0 0 0 0 0 0 0 0 0 0 0
0 0 0 0 0 0 0 0 0 0 0 0 0 0 0 0 0 0 0 0 0 0 0 0 0 0 0 0 0 0 0 0 0 0 0 0 0 0 0 0 0 0 0 0 0 0 0
0 0 0 0 0 0 0 0 0 0 0 0 0 0 0 0 0 0 0 0 0 0 0 0 0 0 0 0 0 0 0 0 0 0 0 0 0 0 0 0 0 0 0 0 0 0 0
0 0 0 0 0 0 0 0 0 0 0 0 0 0 0 0 0 0 0 0 0 0 0 0 0 0 0 0 0 0 0 0 0 0 0 0 0 0 0 0 0 0 0 0 0 0 0
0 0 0 0 0 0 0 0 0 0 0 0 0 0 0 0 0 0 0 0 0 0 0 0 0 0 0 0 0 0 0 0 0 0 0 0 0 0 0 0 0 0 0 0 0 0 0
0 0 0 0 0 0 0 0 0 0 0 0 0 0 0 0 0 0 0 0 0 0 0 0 0 0 0 0 0 0 0 0 0 0 0 0 0 0 0 0 0 0 0 0 0 0 0
0 0 0 0 0 0 0 0 0 0 0 0 0 0 0 0 0 0 0 0 0 0 0 0 0 0 0 0 0 0 0 0 0 0 0 0 0 0 0 0 0 0 0 0 0 0 0
0 0 0 0 0 0 0 0 0 0 0 0 0 0 0 0 0 0 0 0 0 0 0 0 0 0 0 0 0 0 0 0 0 0 0 0 0 0 0 0 0 0 0 0 0 0 0
0 0 0 0 2 1 1 0 0 0 0 0 0 0 0 0 0 0 0 0 0 0 0 0 0 0 0 0 0 0 0 0 0 0 0 0 0 0 0 0 0 0 0 0 0 0 0
0 0 0 0 0 2 1 1 0 0 0 0 0 0 0 0 0 0 0 0 0 0 0 0 0 0 0 0 0 0 0 0 0 0 0 0 0 0 0 0 0 0 0 0 0 0 0

GFSGBSN_con_mlcape_117.txt.gz
CAPE
17 109 184 231 79 88 75 42 55 33 41 13 64 26 20 2 0 7 9 1 3 125 1 0 0 0 0 0 0 0 4 0 0 0 0 0 0 0 0 0 0 0 0 0 0 0 0
114 124 141 199 166 103 92 38 41 13 15 16 21 12 21 17 4 4 0 0 12 60 0 0 0 0 0 0 0 0 0 0 0 0 0 0 0 0 0 0 0 0 0 0 0 0 0
66 96 120 68 96 99 98 18 23 1 21 17 9 14 19 1 2 4 34 24 92 1 1 3 0 0 0 0 0 0 0 0 0 0 0 0 0 0 0 0 0 0 0 0 0 0 0
167 39 47 28 162 177 63 52 9 4 18 13 11 2 5 3 6 34 146 70 3 0 5 0 0 0 0 0 0 0 0 0 0 0 0 0 0 0 0 0 0 0 0 0 0 0 0
97 4 35 45 146 71 32 17 7 4 3 1 15 1 0 4 0 74 38 2 1 0 11 0 0 0 0 0 0 0 0 0 0 0 0 0 0 0 0 0 0 0 0 0 0 0 0
14 4 9 20 54 8 0 25 34 14 22 29 4 0 0 150 168 16 24 5 0 1 0 0 0 0 0 0 0 0 0 0 0 0 0 0 0 0 0 0 0 0 0 0 0 0 0
0 2 27 23 32 1 0 1 0 26 2 0 33 41 23 114 8 1 0 0 0 0 0 0 0 0 0 0 0 0 0 0 0 0 0 0 0 0 0 0 0 0 0 0 0 0 0
0 1 17 17 6 8 0 0 12 13 0 6 158 276 40 22 45 0 0 0 0 0 0 0 0 0 0 0 0 0 0 0 0 0 0 0 0 0 0 0 0 0 1 0 0 0 0
1 1 8 16 6 16 8 2 0 0 0 3 109 44 20 10 0 0 0 0 0 0 0 0 0 0 0 0 0 0 0 0 0 0 0 1 0 0 0 0 1 0 0 0 0 0 0
6 4 3 17 3 9 2 1 0 1 0 0 32 29 2 0 0 0 0 0 0 0 0 0 0 0 0 0 0 0 0 0 0 0 0 0 0 0 0 0 0 0 0 0 0 0 0
10 4 6 5 7 11 4 5 30 4 0 0 0 0 0 0 0 0 0 0 0 0 0 0 0 0 0 0 0 0 0 0 0 0 0 0 0 0 0 0 0 0 0 0 0 2 0
0 5 13 11 4 1 7 21 33 28 12 3 0 0 0 0 0 0 0 0 0 0 0 0 0 0 0 0 0 0 0 0 0 0 0 0 0 1 0 0 0 0 0 2 3 0 0
0 0 16 8 6 4 1 0 6 25 5 3 0 0 0 0 0 0 0 0 0 0 0 0 0 0 0 0 0 0 1 0 0 0 0 0 0 0 0 0 0 1 0 0 0 0 0
0 0 0 4 1 0 2 0 7 0 0 0 0 0 0 0 0 0 0 0 0 0 0 0 0 0 0 0 0 0 5 0 0 1 1 0 0 0 0 0 0 0 0 0 0 0 0
0 0 0 0 0 0 0 0 0 0 0 0 0 0 0 0 0 0 0 0 0 0 0 0 0 0 0 0 0 1 0 0 0 0 0 0 0 0 0 0 0 2 0 1 0 1 0
0 0 0 0 0 0 0 0 0 0 0 0 0 0 0 0 0 0 0 0 0 0 0 0 0 0 0 0 0 0 0 0 0 0 0 0 0 0 0 0 0 0 0 0 0 0 0
0 0 0 0 0 0 0 0 0 0 0 0 0 0 0 0 0 0 0 0 0 0 0 0 0 0 0 0 0 0 0 0 0 0 0 0 0 0 0 0 0 0 0 0 0 0 0
0 0 0 0 0 0 0 0 0 0 0 0 0 0 0 0 0 0 0 0 0 0 0 0 0 0 0 0 0 0 0 0 0 0 0 0 0 0 0 0 0 0 0 0 0 0 0
3 0 0 0 0 0 0 0 0 0 0 0 0 0 0 0 0 0 0 0 0 0 0 0 0 0 0 0 0 0 0 0 0 0 0 0 0 0 0 0 0 0 0 0 0 0 0
0 3 0 0 0 0 0 0 0 0 0 0 0 0 0 0 0 0 0 0 0 0 0 0 0 0 0 0 0 0 0 0 0 0 0 0 0 0 0 0 0 0 0 0 0 0 0
0 0 2 0 0 0 0 0 0 0 0 0 0 0 0 0 0 0 0 0 0 0 0 0 0 0 0 0 0 0 0 0 0 0 0 0 0 0 0 0 0 0 0 0 0 0 0
0 0 0 0 0 0 0 0 0 0 0 0 0 0 0 0 0 0 0 0 0 0 0 0 0 0 0 0 0 0 0 0 0 0 0 0 0 0 0 0 0 0 0 0 0 0 0
0 0 0 0 0 0 0 0 0 0 0 0 0 0 0 0 0 0 0 0 0 0 0 0 0 0 0 0 0 0 0 0 0 0 0 0 0 0 0 0 0 0 0 0 0 0 0
0 0 0 0 0 0 0 0 0 0 0 0 0 0 0 0 0 0 0 0 0 0 0 0 0 0 0 0 0 0 0 0 0 0 0 0 0 0 0 0 0 0 0 0 0 0 0
0 0 0 0 0 0 0 0 0 0 0 0 0 0 0 0 0 0 0 0 0 0 0 0 0 0 0 0 0 0 0 0 0 0 0 0 0 0 0 0 0 0 0 0 0 0 0
0 0 0 0 0 0 0 0 0 0 0 0 0 0 0 0 0 0 0 0 0 0 0 0 0 0 0 0 0 0 0 0 0 0 0 0 0 0 0 0 0 0 0 0 0 0 0
0 0 0 0 0 0 0 0 0 0 0 0 0 0 0 0 0 0 0 0 0 0 0 0 0 0 0 0 0 0 0 0 0 0 0 0 0 0 0 0 0 0 0 0 0 0 0
0 0 0 0 0 0 1 0 0 0 0 0 0 0 0 0 0 0 0 0 0 0 0 0 0 0 0 0 0 0 0 0 0 0 0 0 0 0 0 0 0 0 0 0 0 0 0
0 0 0 0 0 0 3 0 1 0 0 0 0 0 0 0 0 0 0 0 0 0 0 0 0 0 0 0 0 0 0 0 0 0 0 0 0 0 0 0 0 0 0 0 0 0 0